<?xml version="1.0" encoding="UTF-8" standalone="no" ?>
<gpx xmlns="http://www.topografix.com/GPX/1/1" xmlns:xsi="http://www.w3.org/2001/XMLSchema-instance" xsi:schemaLocation="http://www.topografix.com/GPX/1/1 http://www.topografix.com/GPX/1/1/gpx.xsd" version="1.1" creator="VisuGPX - https://www.visugpx.com">
  <metadata>
    <name>circuit orsonette parentignat 230912</name>
    <desc><![CDATA[circuit assez roulant
la plaine]]></desc>
  </metadata>
  <trk>
    <name><![CDATA[2012-09-23 10:46]]></name>
    <desc><![CDATA[<h1>OruxMaps</h1><br /><hr align="center" width="480" style="height: 2px; width: 517px"/><h2>Nom: 2012-09-23 10:46</h2><br /><p>Temps de départ: 09/23/2012 10:46</p><p>Temps d'arrivée: 09/23/2012 12:50</p><p>Distance: 37,4 km (02:02)</p><p>Temps déplacement: 01:54</p><p>Vitesse moyenne: 18,3 km/h</p><p>Vitesse moyenne: 19,5 km/h</p><p>Vitess Max.: 45,9 km/h</p><p>Altitude minimale: 368 m</p><p>Altitude maximale: 571 m</p><p>Vitesse d'élévation: 563,6 m/h</p><p>Vitesse de descente: -612,2 m/h</p><p>Gain Altitude: 412 m</p><p>Perte Altitude: -376 m</p><p>Temps d'élévation: 00:43</p><p>Temps de descente: 00:36</p><hr align="center" width="480" style="height: 2px; width: 517px"/>]]></desc>
    <trkseg>
      <trkpt lat="45.50672" lon="3.22274">
        <ele>551.38403</ele>
        <time>2012-09-23T08:48:23Z</time>
      </trkpt>
      <trkpt lat="45.50659" lon="3.22291">
        <ele>553.93555</ele>
        <time>2012-09-23T08:49:12Z</time>
      </trkpt>
      <trkpt lat="45.50653" lon="3.22317">
        <ele>556.18286</ele>
        <time>2012-09-23T08:49:17Z</time>
      </trkpt>
      <trkpt lat="45.50644" lon="3.22341">
        <ele>556.27563</ele>
        <time>2012-09-23T08:49:22Z</time>
      </trkpt>
      <trkpt lat="45.50625" lon="3.22351">
        <ele>555.63776</ele>
        <time>2012-09-23T08:49:29Z</time>
      </trkpt>
      <trkpt lat="45.50608" lon="3.22342">
        <ele>551.79974</ele>
        <time>2012-09-23T08:49:38Z</time>
      </trkpt>
      <trkpt lat="45.50607" lon="3.22372">
        <ele>549.45996</ele>
        <time>2012-09-23T08:49:44Z</time>
      </trkpt>
      <trkpt lat="45.50609" lon="3.22401">
        <ele>548.6977</ele>
        <time>2012-09-23T08:49:49Z</time>
      </trkpt>
      <trkpt lat="45.50609" lon="3.22428">
        <ele>548.51715</ele>
        <time>2012-09-23T08:49:53Z</time>
      </trkpt>
      <trkpt lat="45.50609" lon="3.22459">
        <ele>547.6668</ele>
        <time>2012-09-23T08:49:58Z</time>
      </trkpt>
      <trkpt lat="45.5061" lon="3.22489">
        <ele>546.5352</ele>
        <time>2012-09-23T08:50:03Z</time>
      </trkpt>
      <trkpt lat="45.50612" lon="3.22518">
        <ele>545.9053</ele>
        <time>2012-09-23T08:50:07Z</time>
      </trkpt>
      <trkpt lat="45.50612" lon="3.22547">
        <ele>544.03534</ele>
        <time>2012-09-23T08:50:12Z</time>
      </trkpt>
      <trkpt lat="45.50611" lon="3.22577">
        <ele>542.1956</ele>
        <time>2012-09-23T08:50:18Z</time>
      </trkpt>
      <trkpt lat="45.5061" lon="3.22604">
        <ele>541.8996</ele>
        <time>2012-09-23T08:50:23Z</time>
      </trkpt>
      <trkpt lat="45.50606" lon="3.22631">
        <ele>542.5422</ele>
        <time>2012-09-23T08:50:28Z</time>
      </trkpt>
      <trkpt lat="45.50604" lon="3.22658">
        <ele>543.2321</ele>
        <time>2012-09-23T08:50:33Z</time>
      </trkpt>
      <trkpt lat="45.50601" lon="3.22687">
        <ele>543.702</ele>
        <time>2012-09-23T08:50:39Z</time>
      </trkpt>
      <trkpt lat="45.50598" lon="3.22715">
        <ele>544.00696</ele>
        <time>2012-09-23T08:50:45Z</time>
      </trkpt>
      <trkpt lat="45.50597" lon="3.22741">
        <ele>545.6937</ele>
        <time>2012-09-23T08:50:52Z</time>
      </trkpt>
      <trkpt lat="45.50589" lon="3.22768">
        <ele>542.3897</ele>
        <time>2012-09-23T08:50:58Z</time>
      </trkpt>
      <trkpt lat="45.50583" lon="3.22794">
        <ele>540.35767</ele>
        <time>2012-09-23T08:51:06Z</time>
      </trkpt>
      <trkpt lat="45.50575" lon="3.22819">
        <ele>546.5863</ele>
        <time>2012-09-23T08:51:17Z</time>
      </trkpt>
      <trkpt lat="45.50556" lon="3.22825">
        <ele>548.24146</ele>
        <time>2012-09-23T08:51:28Z</time>
      </trkpt>
      <trkpt lat="45.50536" lon="3.22815">
        <ele>549.5319</ele>
        <time>2012-09-23T08:51:33Z</time>
      </trkpt>
      <trkpt lat="45.50519" lon="3.22805">
        <ele>549.5385</ele>
        <time>2012-09-23T08:51:37Z</time>
      </trkpt>
      <trkpt lat="45.50507" lon="3.22785">
        <ele>549.09644</ele>
        <time>2012-09-23T08:51:40Z</time>
      </trkpt>
      <trkpt lat="45.50495" lon="3.22766">
        <ele>548.424</ele>
        <time>2012-09-23T08:51:43Z</time>
      </trkpt>
      <trkpt lat="45.50467" lon="3.22728">
        <ele>548.584</ele>
        <time>2012-09-23T08:51:49Z</time>
      </trkpt>
      <trkpt lat="45.5044" lon="3.22685">
        <ele>551.334</ele>
        <time>2012-09-23T08:51:54Z</time>
      </trkpt>
      <trkpt lat="45.50423" lon="3.22664">
        <ele>549.9539</ele>
        <time>2012-09-23T08:51:58Z</time>
      </trkpt>
      <trkpt lat="45.50414" lon="3.22641">
        <ele>548.2983</ele>
        <time>2012-09-23T08:52:01Z</time>
      </trkpt>
      <trkpt lat="45.50396" lon="3.22617">
        <ele>546.62634</ele>
        <time>2012-09-23T08:52:04Z</time>
      </trkpt>
      <trkpt lat="45.50384" lon="3.22593">
        <ele>544.93976</ele>
        <time>2012-09-23T08:52:07Z</time>
      </trkpt>
      <trkpt lat="45.50372" lon="3.2257">
        <ele>542.96014</ele>
        <time>2012-09-23T08:52:11Z</time>
      </trkpt>
      <trkpt lat="45.50358" lon="3.22548">
        <ele>541.03613</ele>
        <time>2012-09-23T08:52:15Z</time>
      </trkpt>
      <trkpt lat="45.50335" lon="3.22532">
        <ele>538.134</ele>
        <time>2012-09-23T08:52:19Z</time>
      </trkpt>
      <trkpt lat="45.50324" lon="3.22511">
        <ele>536.7477</ele>
        <time>2012-09-23T08:52:22Z</time>
      </trkpt>
      <trkpt lat="45.50305" lon="3.22495">
        <ele>534.354</ele>
        <time>2012-09-23T08:52:27Z</time>
      </trkpt>
      <trkpt lat="45.50287" lon="3.22485">
        <ele>533.7275</ele>
        <time>2012-09-23T08:52:32Z</time>
      </trkpt>
      <trkpt lat="45.50265" lon="3.22472">
        <ele>532.6598</ele>
        <time>2012-09-23T08:52:36Z</time>
      </trkpt>
      <trkpt lat="45.50246" lon="3.22459">
        <ele>530.0648</ele>
        <time>2012-09-23T08:52:39Z</time>
      </trkpt>
      <trkpt lat="45.50226" lon="3.22441">
        <ele>525.4833</ele>
        <time>2012-09-23T08:52:43Z</time>
      </trkpt>
      <trkpt lat="45.50211" lon="3.22414">
        <ele>521.3247</ele>
        <time>2012-09-23T08:52:46Z</time>
      </trkpt>
      <trkpt lat="45.502" lon="3.22383">
        <ele>517.77814</ele>
        <time>2012-09-23T08:52:50Z</time>
      </trkpt>
      <trkpt lat="45.50195" lon="3.22357">
        <ele>514.6258</ele>
        <time>2012-09-23T08:52:54Z</time>
      </trkpt>
      <trkpt lat="45.5018" lon="3.22334">
        <ele>510.12463</ele>
        <time>2012-09-23T08:53:02Z</time>
      </trkpt>
      <trkpt lat="45.50162" lon="3.22324">
        <ele>507.41873</ele>
        <time>2012-09-23T08:53:05Z</time>
      </trkpt>
      <trkpt lat="45.5014" lon="3.22313">
        <ele>504.98187</ele>
        <time>2012-09-23T08:53:08Z</time>
      </trkpt>
      <trkpt lat="45.50115" lon="3.223">
        <ele>502.54755</ele>
        <time>2012-09-23T08:53:11Z</time>
      </trkpt>
      <trkpt lat="45.50106" lon="3.22274">
        <ele>501.29318</ele>
        <time>2012-09-23T08:53:13Z</time>
      </trkpt>
      <trkpt lat="45.501" lon="3.22246">
        <ele>499.43134</ele>
        <time>2012-09-23T08:53:15Z</time>
      </trkpt>
      <trkpt lat="45.5009" lon="3.22218">
        <ele>497.58408</ele>
        <time>2012-09-23T08:53:17Z</time>
      </trkpt>
      <trkpt lat="45.50079" lon="3.22194">
        <ele>495.3387</ele>
        <time>2012-09-23T08:53:19Z</time>
      </trkpt>
      <trkpt lat="45.50071" lon="3.2217">
        <ele>492.7762</ele>
        <time>2012-09-23T08:53:22Z</time>
      </trkpt>
      <trkpt lat="45.50052" lon="3.22178">
        <ele>490.65967</ele>
        <time>2012-09-23T08:53:28Z</time>
      </trkpt>
      <trkpt lat="45.50034" lon="3.2219">
        <ele>489.6772</ele>
        <time>2012-09-23T08:57:05Z</time>
      </trkpt>
      <trkpt lat="45.50012" lon="3.22191">
        <ele>488.83932</ele>
        <time>2012-09-23T08:57:10Z</time>
      </trkpt>
      <trkpt lat="45.49987" lon="3.22185">
        <ele>488.46</ele>
        <time>2012-09-23T08:57:14Z</time>
      </trkpt>
      <trkpt lat="45.49968" lon="3.22184">
        <ele>487.53677</ele>
        <time>2012-09-23T08:57:17Z</time>
      </trkpt>
      <trkpt lat="45.49949" lon="3.22181">
        <ele>485.79883</ele>
        <time>2012-09-23T08:57:20Z</time>
      </trkpt>
      <trkpt lat="45.49928" lon="3.22182">
        <ele>484.27658</ele>
        <time>2012-09-23T08:57:23Z</time>
      </trkpt>
      <trkpt lat="45.49907" lon="3.2218">
        <ele>482.29843</ele>
        <time>2012-09-23T08:57:26Z</time>
      </trkpt>
      <trkpt lat="45.49885" lon="3.22178">
        <ele>481.54987</ele>
        <time>2012-09-23T08:57:28Z</time>
      </trkpt>
      <trkpt lat="45.49866" lon="3.22175">
        <ele>481.04187</ele>
        <time>2012-09-23T08:57:32Z</time>
      </trkpt>
      <trkpt lat="45.49846" lon="3.22175">
        <ele>480.57913</ele>
        <time>2012-09-23T08:57:35Z</time>
      </trkpt>
      <trkpt lat="45.49823" lon="3.22179">
        <ele>479.6519</ele>
        <time>2012-09-23T08:57:39Z</time>
      </trkpt>
      <trkpt lat="45.49805" lon="3.22188">
        <ele>478.98648</ele>
        <time>2012-09-23T08:57:42Z</time>
      </trkpt>
      <trkpt lat="45.49782" lon="3.22196">
        <ele>478.52335</ele>
        <time>2012-09-23T08:57:46Z</time>
      </trkpt>
      <trkpt lat="45.4976" lon="3.222">
        <ele>478.66235</ele>
        <time>2012-09-23T08:57:50Z</time>
      </trkpt>
      <trkpt lat="45.49736" lon="3.22198">
        <ele>478.29855</ele>
        <time>2012-09-23T08:57:54Z</time>
      </trkpt>
      <trkpt lat="45.49713" lon="3.22195">
        <ele>478.0686</ele>
        <time>2012-09-23T08:57:58Z</time>
      </trkpt>
      <trkpt lat="45.49689" lon="3.22193">
        <ele>477.72513</ele>
        <time>2012-09-23T08:58:02Z</time>
      </trkpt>
      <trkpt lat="45.49665" lon="3.2219">
        <ele>477.1766</ele>
        <time>2012-09-23T08:58:06Z</time>
      </trkpt>
      <trkpt lat="45.49646" lon="3.22188">
        <ele>476.5047</ele>
        <time>2012-09-23T08:58:09Z</time>
      </trkpt>
      <trkpt lat="45.49628" lon="3.22188">
        <ele>476.08533</ele>
        <time>2012-09-23T08:58:12Z</time>
      </trkpt>
      <trkpt lat="45.49604" lon="3.22187">
        <ele>475.46518</ele>
        <time>2012-09-23T08:58:15Z</time>
      </trkpt>
      <trkpt lat="45.49585" lon="3.22188">
        <ele>474.89832</ele>
        <time>2012-09-23T08:58:19Z</time>
      </trkpt>
      <trkpt lat="45.49565" lon="3.2219">
        <ele>473.98575</ele>
        <time>2012-09-23T08:58:22Z</time>
      </trkpt>
      <trkpt lat="45.49545" lon="3.22195">
        <ele>473.44763</ele>
        <time>2012-09-23T08:58:25Z</time>
      </trkpt>
      <trkpt lat="45.49524" lon="3.222">
        <ele>473.7253</ele>
        <time>2012-09-23T08:58:28Z</time>
      </trkpt>
      <trkpt lat="45.49505" lon="3.22203">
        <ele>473.77838</ele>
        <time>2012-09-23T08:58:31Z</time>
      </trkpt>
      <trkpt lat="45.49487" lon="3.22204">
        <ele>473.13828</ele>
        <time>2012-09-23T08:58:34Z</time>
      </trkpt>
      <trkpt lat="45.49468" lon="3.22205">
        <ele>472.42136</ele>
        <time>2012-09-23T08:58:37Z</time>
      </trkpt>
      <trkpt lat="45.49445" lon="3.22206">
        <ele>471.72345</ele>
        <time>2012-09-23T08:58:41Z</time>
      </trkpt>
      <trkpt lat="45.49425" lon="3.22208">
        <ele>471.18228</ele>
        <time>2012-09-23T08:58:44Z</time>
      </trkpt>
      <trkpt lat="45.49403" lon="3.22216">
        <ele>470.69742</ele>
        <time>2012-09-23T08:58:48Z</time>
      </trkpt>
      <trkpt lat="45.49382" lon="3.22223">
        <ele>471.14362</ele>
        <time>2012-09-23T08:58:52Z</time>
      </trkpt>
      <trkpt lat="45.49362" lon="3.22231">
        <ele>471.459</ele>
        <time>2012-09-23T08:58:56Z</time>
      </trkpt>
      <trkpt lat="45.49343" lon="3.22242">
        <ele>472.6463</ele>
        <time>2012-09-23T08:59:00Z</time>
      </trkpt>
      <trkpt lat="45.49325" lon="3.22247">
        <ele>473.64542</ele>
        <time>2012-09-23T08:59:04Z</time>
      </trkpt>
      <trkpt lat="45.49307" lon="3.22251">
        <ele>474.6131</ele>
        <time>2012-09-23T08:59:08Z</time>
      </trkpt>
      <trkpt lat="45.49293" lon="3.22272">
        <ele>474.97775</ele>
        <time>2012-09-23T08:59:14Z</time>
      </trkpt>
      <trkpt lat="45.49296" lon="3.22301">
        <ele>476.69437</ele>
        <time>2012-09-23T08:59:20Z</time>
      </trkpt>
      <trkpt lat="45.49295" lon="3.22327">
        <ele>478.8593</ele>
        <time>2012-09-23T08:59:27Z</time>
      </trkpt>
      <trkpt lat="45.49276" lon="3.22334">
        <ele>479.55716</ele>
        <time>2012-09-23T08:59:34Z</time>
      </trkpt>
      <trkpt lat="45.49255" lon="3.22336">
        <ele>479.56213</ele>
        <time>2012-09-23T08:59:39Z</time>
      </trkpt>
      <trkpt lat="45.49237" lon="3.22338">
        <ele>478.87775</ele>
        <time>2012-09-23T08:59:43Z</time>
      </trkpt>
      <trkpt lat="45.49217" lon="3.22342">
        <ele>478.56863</ele>
        <time>2012-09-23T08:59:47Z</time>
      </trkpt>
      <trkpt lat="45.49196" lon="3.22345">
        <ele>478.3439</ele>
        <time>2012-09-23T08:59:51Z</time>
      </trkpt>
      <trkpt lat="45.49177" lon="3.22351">
        <ele>477.16534</ele>
        <time>2012-09-23T08:59:55Z</time>
      </trkpt>
      <trkpt lat="45.49156" lon="3.22357">
        <ele>475.91318</ele>
        <time>2012-09-23T08:59:59Z</time>
      </trkpt>
      <trkpt lat="45.49136" lon="3.22361">
        <ele>474.4607</ele>
        <time>2012-09-23T09:00:03Z</time>
      </trkpt>
      <trkpt lat="45.49116" lon="3.22366">
        <ele>474.24997</ele>
        <time>2012-09-23T09:00:07Z</time>
      </trkpt>
      <trkpt lat="45.49095" lon="3.22366">
        <ele>473.1884</ele>
        <time>2012-09-23T09:00:11Z</time>
      </trkpt>
      <trkpt lat="45.49071" lon="3.22369">
        <ele>471.62085</ele>
        <time>2012-09-23T09:00:15Z</time>
      </trkpt>
      <trkpt lat="45.49051" lon="3.22371">
        <ele>470.25464</ele>
        <time>2012-09-23T09:00:18Z</time>
      </trkpt>
      <trkpt lat="45.4903" lon="3.22374">
        <ele>469.09076</ele>
        <time>2012-09-23T09:00:21Z</time>
      </trkpt>
      <trkpt lat="45.4901" lon="3.22376">
        <ele>468.28568</ele>
        <time>2012-09-23T09:00:24Z</time>
      </trkpt>
      <trkpt lat="45.48992" lon="3.22383">
        <ele>468.04135</ele>
        <time>2012-09-23T09:00:27Z</time>
      </trkpt>
      <trkpt lat="45.48973" lon="3.22387">
        <ele>468.3211</ele>
        <time>2012-09-23T09:00:30Z</time>
      </trkpt>
      <trkpt lat="45.48954" lon="3.22391">
        <ele>468.2719</ele>
        <time>2012-09-23T09:00:33Z</time>
      </trkpt>
      <trkpt lat="45.48936" lon="3.22389">
        <ele>467.66522</ele>
        <time>2012-09-23T09:00:36Z</time>
      </trkpt>
      <trkpt lat="45.48916" lon="3.2238">
        <ele>466.67178</ele>
        <time>2012-09-23T09:00:39Z</time>
      </trkpt>
      <trkpt lat="45.48894" lon="3.22374">
        <ele>466.2605</ele>
        <time>2012-09-23T09:00:42Z</time>
      </trkpt>
      <trkpt lat="45.48871" lon="3.22369">
        <ele>466.05728</ele>
        <time>2012-09-23T09:00:45Z</time>
      </trkpt>
      <trkpt lat="45.48847" lon="3.22365">
        <ele>465.26843</ele>
        <time>2012-09-23T09:00:48Z</time>
      </trkpt>
      <trkpt lat="45.48823" lon="3.22354">
        <ele>463.4325</ele>
        <time>2012-09-23T09:00:51Z</time>
      </trkpt>
      <trkpt lat="45.48805" lon="3.22348">
        <ele>462.42847</ele>
        <time>2012-09-23T09:00:53Z</time>
      </trkpt>
      <trkpt lat="45.48787" lon="3.22342">
        <ele>461.54495</ele>
        <time>2012-09-23T09:00:54Z</time>
      </trkpt>
      <trkpt lat="45.4876" lon="3.22335">
        <ele>460.0226</ele>
        <time>2012-09-23T09:00:58Z</time>
      </trkpt>
      <trkpt lat="45.48742" lon="3.22331">
        <ele>459.26663</ele>
        <time>2012-09-23T09:01:00Z</time>
      </trkpt>
      <trkpt lat="45.48716" lon="3.22327">
        <ele>457.76926</ele>
        <time>2012-09-23T09:01:03Z</time>
      </trkpt>
      <trkpt lat="45.48693" lon="3.22324">
        <ele>457.12347</ele>
        <time>2012-09-23T09:01:06Z</time>
      </trkpt>
      <trkpt lat="45.48672" lon="3.2232">
        <ele>456.53543</ele>
        <time>2012-09-23T09:01:09Z</time>
      </trkpt>
      <trkpt lat="45.48651" lon="3.22317">
        <ele>455.31857</ele>
        <time>2012-09-23T09:01:12Z</time>
      </trkpt>
      <trkpt lat="45.48629" lon="3.22314">
        <ele>454.249</ele>
        <time>2012-09-23T09:01:15Z</time>
      </trkpt>
      <trkpt lat="45.48607" lon="3.22306">
        <ele>452.90088</ele>
        <time>2012-09-23T09:01:18Z</time>
      </trkpt>
      <trkpt lat="45.48585" lon="3.22294">
        <ele>451.41806</ele>
        <time>2012-09-23T09:01:21Z</time>
      </trkpt>
      <trkpt lat="45.48562" lon="3.2228">
        <ele>450.54407</ele>
        <time>2012-09-23T09:01:24Z</time>
      </trkpt>
      <trkpt lat="45.4854" lon="3.2227">
        <ele>449.38004</ele>
        <time>2012-09-23T09:01:27Z</time>
      </trkpt>
      <trkpt lat="45.48527" lon="3.22247">
        <ele>448.7499</ele>
        <time>2012-09-23T09:01:30Z</time>
      </trkpt>
      <trkpt lat="45.48525" lon="3.22213">
        <ele>447.34344</ele>
        <time>2012-09-23T09:01:33Z</time>
      </trkpt>
      <trkpt lat="45.48524" lon="3.22177">
        <ele>445.6579</ele>
        <time>2012-09-23T09:01:36Z</time>
      </trkpt>
      <trkpt lat="45.48522" lon="3.22141">
        <ele>444.0109</ele>
        <time>2012-09-23T09:01:39Z</time>
      </trkpt>
      <trkpt lat="45.4852" lon="3.22104">
        <ele>442.84573</ele>
        <time>2012-09-23T09:01:42Z</time>
      </trkpt>
      <trkpt lat="45.48517" lon="3.2207">
        <ele>442.10886</ele>
        <time>2012-09-23T09:01:45Z</time>
      </trkpt>
      <trkpt lat="45.48508" lon="3.22048">
        <ele>441.13318</ele>
        <time>2012-09-23T09:01:49Z</time>
      </trkpt>
      <trkpt lat="45.48489" lon="3.22052">
        <ele>440.38306</ele>
        <time>2012-09-23T09:01:53Z</time>
      </trkpt>
      <trkpt lat="45.48466" lon="3.22059">
        <ele>440.63596</ele>
        <time>2012-09-23T09:01:57Z</time>
      </trkpt>
      <trkpt lat="45.48447" lon="3.22065">
        <ele>440.1438</ele>
        <time>2012-09-23T09:02:00Z</time>
      </trkpt>
      <trkpt lat="45.48425" lon="3.22073">
        <ele>438.41275</ele>
        <time>2012-09-23T09:02:03Z</time>
      </trkpt>
      <trkpt lat="45.48404" lon="3.2208">
        <ele>436.6762</ele>
        <time>2012-09-23T09:02:06Z</time>
      </trkpt>
      <trkpt lat="45.48381" lon="3.22088">
        <ele>435.90454</ele>
        <time>2012-09-23T09:02:09Z</time>
      </trkpt>
      <trkpt lat="45.48359" lon="3.22095">
        <ele>435.62585</ele>
        <time>2012-09-23T09:02:12Z</time>
      </trkpt>
      <trkpt lat="45.48338" lon="3.22102">
        <ele>435.8177</ele>
        <time>2012-09-23T09:02:15Z</time>
      </trkpt>
      <trkpt lat="45.48317" lon="3.22104">
        <ele>436.15796</ele>
        <time>2012-09-23T09:02:18Z</time>
      </trkpt>
      <trkpt lat="45.48297" lon="3.22102">
        <ele>436.26715</ele>
        <time>2012-09-23T09:02:21Z</time>
      </trkpt>
      <trkpt lat="45.48278" lon="3.221">
        <ele>436.0976</ele>
        <time>2012-09-23T09:02:24Z</time>
      </trkpt>
      <trkpt lat="45.4826" lon="3.22095">
        <ele>435.94168</ele>
        <time>2012-09-23T09:02:27Z</time>
      </trkpt>
      <trkpt lat="45.4824" lon="3.2209">
        <ele>435.64935</ele>
        <time>2012-09-23T09:02:30Z</time>
      </trkpt>
      <trkpt lat="45.48218" lon="3.22087">
        <ele>435.46198</ele>
        <time>2012-09-23T09:02:33Z</time>
      </trkpt>
      <trkpt lat="45.48194" lon="3.22088">
        <ele>434.51883</ele>
        <time>2012-09-23T09:02:36Z</time>
      </trkpt>
      <trkpt lat="45.48171" lon="3.22089">
        <ele>433.74127</ele>
        <time>2012-09-23T09:02:39Z</time>
      </trkpt>
      <trkpt lat="45.48151" lon="3.2209">
        <ele>432.28043</ele>
        <time>2012-09-23T09:02:42Z</time>
      </trkpt>
      <trkpt lat="45.48128" lon="3.22093">
        <ele>431.25476</ele>
        <time>2012-09-23T09:02:45Z</time>
      </trkpt>
      <trkpt lat="45.48107" lon="3.22089">
        <ele>430.3502</ele>
        <time>2012-09-23T09:02:48Z</time>
      </trkpt>
      <trkpt lat="45.48082" lon="3.22089">
        <ele>429.50137</ele>
        <time>2012-09-23T09:02:50Z</time>
      </trkpt>
      <trkpt lat="45.4806" lon="3.2208">
        <ele>428.59796</ele>
        <time>2012-09-23T09:02:54Z</time>
      </trkpt>
      <trkpt lat="45.48042" lon="3.22067">
        <ele>427.32153</ele>
        <time>2012-09-23T09:02:57Z</time>
      </trkpt>
      <trkpt lat="45.48024" lon="3.2207">
        <ele>425.21585</ele>
        <time>2012-09-23T09:03:00Z</time>
      </trkpt>
      <trkpt lat="45.48001" lon="3.22075">
        <ele>424.9436</ele>
        <time>2012-09-23T09:03:04Z</time>
      </trkpt>
      <trkpt lat="45.4798" lon="3.22077">
        <ele>424.9215</ele>
        <time>2012-09-23T09:03:08Z</time>
      </trkpt>
      <trkpt lat="45.47958" lon="3.22074">
        <ele>427.4608</ele>
        <time>2012-09-23T09:03:13Z</time>
      </trkpt>
      <trkpt lat="45.47939" lon="3.22074">
        <ele>428.49765</ele>
        <time>2012-09-23T09:03:17Z</time>
      </trkpt>
      <trkpt lat="45.47916" lon="3.22066">
        <ele>429.23392</ele>
        <time>2012-09-23T09:03:20Z</time>
      </trkpt>
      <trkpt lat="45.47895" lon="3.22056">
        <ele>429.4492</ele>
        <time>2012-09-23T09:03:23Z</time>
      </trkpt>
      <trkpt lat="45.47871" lon="3.22054">
        <ele>428.74313</ele>
        <time>2012-09-23T09:03:26Z</time>
      </trkpt>
      <trkpt lat="45.4785" lon="3.2205">
        <ele>427.47653</ele>
        <time>2012-09-23T09:03:29Z</time>
      </trkpt>
      <trkpt lat="45.47829" lon="3.22046">
        <ele>426.58124</ele>
        <time>2012-09-23T09:03:32Z</time>
      </trkpt>
      <trkpt lat="45.47805" lon="3.22041">
        <ele>426.3223</ele>
        <time>2012-09-23T09:03:35Z</time>
      </trkpt>
      <trkpt lat="45.47782" lon="3.22036">
        <ele>426.42084</ele>
        <time>2012-09-23T09:03:38Z</time>
      </trkpt>
      <trkpt lat="45.4776" lon="3.22031">
        <ele>425.80933</ele>
        <time>2012-09-23T09:03:41Z</time>
      </trkpt>
      <trkpt lat="45.47736" lon="3.2203">
        <ele>423.9279</ele>
        <time>2012-09-23T09:03:44Z</time>
      </trkpt>
      <trkpt lat="45.47713" lon="3.2203">
        <ele>422.87323</ele>
        <time>2012-09-23T09:03:47Z</time>
      </trkpt>
      <trkpt lat="45.47691" lon="3.22029">
        <ele>422.58453</ele>
        <time>2012-09-23T09:03:50Z</time>
      </trkpt>
      <trkpt lat="45.47669" lon="3.22027">
        <ele>422.61743</ele>
        <time>2012-09-23T09:03:53Z</time>
      </trkpt>
      <trkpt lat="45.47647" lon="3.22027">
        <ele>422.79694</ele>
        <time>2012-09-23T09:03:56Z</time>
      </trkpt>
      <trkpt lat="45.47625" lon="3.22028">
        <ele>422.63983</ele>
        <time>2012-09-23T09:03:59Z</time>
      </trkpt>
      <trkpt lat="45.47604" lon="3.22032">
        <ele>422.25327</ele>
        <time>2012-09-23T09:04:02Z</time>
      </trkpt>
      <trkpt lat="45.47583" lon="3.22036">
        <ele>421.2558</ele>
        <time>2012-09-23T09:04:05Z</time>
      </trkpt>
      <trkpt lat="45.47562" lon="3.22041">
        <ele>420.17874</ele>
        <time>2012-09-23T09:04:08Z</time>
      </trkpt>
      <trkpt lat="45.47541" lon="3.22046">
        <ele>420.08374</ele>
        <time>2012-09-23T09:04:11Z</time>
      </trkpt>
      <trkpt lat="45.47521" lon="3.22053">
        <ele>419.51553</ele>
        <time>2012-09-23T09:04:14Z</time>
      </trkpt>
      <trkpt lat="45.475" lon="3.22061">
        <ele>418.668</ele>
        <time>2012-09-23T09:04:17Z</time>
      </trkpt>
      <trkpt lat="45.4748" lon="3.22067">
        <ele>418.44327</ele>
        <time>2012-09-23T09:04:20Z</time>
      </trkpt>
      <trkpt lat="45.4746" lon="3.22075">
        <ele>418.17032</ele>
        <time>2012-09-23T09:04:23Z</time>
      </trkpt>
      <trkpt lat="45.47441" lon="3.22084">
        <ele>418.05832</ele>
        <time>2012-09-23T09:04:26Z</time>
      </trkpt>
      <trkpt lat="45.47424" lon="3.22093">
        <ele>417.89542</ele>
        <time>2012-09-23T09:04:29Z</time>
      </trkpt>
      <trkpt lat="45.47406" lon="3.221">
        <ele>417.35327</ele>
        <time>2012-09-23T09:04:32Z</time>
      </trkpt>
      <trkpt lat="45.47388" lon="3.22108">
        <ele>416.89957</ele>
        <time>2012-09-23T09:04:35Z</time>
      </trkpt>
      <trkpt lat="45.47366" lon="3.22122">
        <ele>417.17828</ele>
        <time>2012-09-23T09:04:39Z</time>
      </trkpt>
      <trkpt lat="45.47351" lon="3.22135">
        <ele>417.32416</ele>
        <time>2012-09-23T09:04:42Z</time>
      </trkpt>
      <trkpt lat="45.47332" lon="3.2215">
        <ele>416.64822</ele>
        <time>2012-09-23T09:04:45Z</time>
      </trkpt>
      <trkpt lat="45.47315" lon="3.22164">
        <ele>415.7568</ele>
        <time>2012-09-23T09:04:48Z</time>
      </trkpt>
      <trkpt lat="45.47299" lon="3.22178">
        <ele>415.45886</ele>
        <time>2012-09-23T09:04:51Z</time>
      </trkpt>
      <trkpt lat="45.47283" lon="3.22192">
        <ele>414.57535</ele>
        <time>2012-09-23T09:04:54Z</time>
      </trkpt>
      <trkpt lat="45.47267" lon="3.22206">
        <ele>414.1651</ele>
        <time>2012-09-23T09:04:57Z</time>
      </trkpt>
      <trkpt lat="45.47252" lon="3.22219">
        <ele>414.27954</ele>
        <time>2012-09-23T09:05:00Z</time>
      </trkpt>
      <trkpt lat="45.47235" lon="3.22233">
        <ele>414.42</ele>
        <time>2012-09-23T09:05:03Z</time>
      </trkpt>
      <trkpt lat="45.47218" lon="3.22248">
        <ele>414.0074</ele>
        <time>2012-09-23T09:05:06Z</time>
      </trkpt>
      <trkpt lat="45.472" lon="3.22263">
        <ele>413.87552</ele>
        <time>2012-09-23T09:05:09Z</time>
      </trkpt>
      <trkpt lat="45.47183" lon="3.22276">
        <ele>413.66364</ele>
        <time>2012-09-23T09:05:12Z</time>
      </trkpt>
      <trkpt lat="45.47169" lon="3.22292">
        <ele>412.83984</ele>
        <time>2012-09-23T09:05:15Z</time>
      </trkpt>
      <trkpt lat="45.47158" lon="3.22321">
        <ele>412.075</ele>
        <time>2012-09-23T09:05:19Z</time>
      </trkpt>
      <trkpt lat="45.47148" lon="3.22352">
        <ele>411.3752</ele>
        <time>2012-09-23T09:05:23Z</time>
      </trkpt>
      <trkpt lat="45.4714" lon="3.22376">
        <ele>410.9666</ele>
        <time>2012-09-23T09:05:26Z</time>
      </trkpt>
      <trkpt lat="45.47129" lon="3.22404">
        <ele>410.91043</ele>
        <time>2012-09-23T09:05:30Z</time>
      </trkpt>
      <trkpt lat="45.4712" lon="3.22433">
        <ele>411.36063</ele>
        <time>2012-09-23T09:05:34Z</time>
      </trkpt>
      <trkpt lat="45.4711" lon="3.2246">
        <ele>412.5765</ele>
        <time>2012-09-23T09:05:38Z</time>
      </trkpt>
      <trkpt lat="45.47102" lon="3.22488">
        <ele>413.2206</ele>
        <time>2012-09-23T09:05:42Z</time>
      </trkpt>
      <trkpt lat="45.47093" lon="3.22513">
        <ele>413.73416</ele>
        <time>2012-09-23T09:05:46Z</time>
      </trkpt>
      <trkpt lat="45.47085" lon="3.22541">
        <ele>414.58963</ele>
        <time>2012-09-23T09:05:50Z</time>
      </trkpt>
      <trkpt lat="45.47081" lon="3.22572">
        <ele>414.56772</ele>
        <time>2012-09-23T09:05:54Z</time>
      </trkpt>
      <trkpt lat="45.4708" lon="3.22598">
        <ele>414.14</ele>
        <time>2012-09-23T09:05:56Z</time>
      </trkpt>
      <trkpt lat="45.47079" lon="3.22632">
        <ele>413.60242</ele>
        <time>2012-09-23T09:06:01Z</time>
      </trkpt>
      <trkpt lat="45.4708" lon="3.22665">
        <ele>413.14246</ele>
        <time>2012-09-23T09:06:05Z</time>
      </trkpt>
      <trkpt lat="45.4708" lon="3.22698">
        <ele>412.6407</ele>
        <time>2012-09-23T09:06:09Z</time>
      </trkpt>
      <trkpt lat="45.47079" lon="3.22731">
        <ele>412.01004</ele>
        <time>2012-09-23T09:06:13Z</time>
      </trkpt>
      <trkpt lat="45.47079" lon="3.22757">
        <ele>411.60007</ele>
        <time>2012-09-23T09:06:16Z</time>
      </trkpt>
      <trkpt lat="45.47079" lon="3.22783">
        <ele>411.17242</ele>
        <time>2012-09-23T09:06:19Z</time>
      </trkpt>
      <trkpt lat="45.4708" lon="3.22818">
        <ele>410.63843</ele>
        <time>2012-09-23T09:06:23Z</time>
      </trkpt>
      <trkpt lat="45.47085" lon="3.22851">
        <ele>410.4777</ele>
        <time>2012-09-23T09:06:27Z</time>
      </trkpt>
      <trkpt lat="45.47092" lon="3.22876">
        <ele>409.8083</ele>
        <time>2012-09-23T09:06:30Z</time>
      </trkpt>
      <trkpt lat="45.471" lon="3.22902">
        <ele>409.15872</ele>
        <time>2012-09-23T09:06:33Z</time>
      </trkpt>
      <trkpt lat="45.4711" lon="3.22925">
        <ele>408.91748</ele>
        <time>2012-09-23T09:06:36Z</time>
      </trkpt>
      <trkpt lat="45.4712" lon="3.22949">
        <ele>408.14227</ele>
        <time>2012-09-23T09:06:39Z</time>
      </trkpt>
      <trkpt lat="45.47129" lon="3.22973">
        <ele>407.35272</ele>
        <time>2012-09-23T09:06:42Z</time>
      </trkpt>
      <trkpt lat="45.47138" lon="3.22996">
        <ele>407.204</ele>
        <time>2012-09-23T09:06:45Z</time>
      </trkpt>
      <trkpt lat="45.47146" lon="3.23021">
        <ele>406.9522</ele>
        <time>2012-09-23T09:06:48Z</time>
      </trkpt>
      <trkpt lat="45.47152" lon="3.2305">
        <ele>406.46097</ele>
        <time>2012-09-23T09:06:52Z</time>
      </trkpt>
      <trkpt lat="45.47135" lon="3.23072">
        <ele>405.4063</ele>
        <time>2012-09-23T09:06:56Z</time>
      </trkpt>
      <trkpt lat="45.4712" lon="3.23087">
        <ele>404.511</ele>
        <time>2012-09-23T09:06:59Z</time>
      </trkpt>
      <trkpt lat="45.47104" lon="3.23105">
        <ele>404.0911</ele>
        <time>2012-09-23T09:07:02Z</time>
      </trkpt>
      <trkpt lat="45.4709" lon="3.23122">
        <ele>404.04675</ele>
        <time>2012-09-23T09:07:05Z</time>
      </trkpt>
      <trkpt lat="45.47074" lon="3.23146">
        <ele>404.47565</ele>
        <time>2012-09-23T09:07:09Z</time>
      </trkpt>
      <trkpt lat="45.47058" lon="3.23165">
        <ele>405.33322</ele>
        <time>2012-09-23T09:07:13Z</time>
      </trkpt>
      <trkpt lat="45.47043" lon="3.23178">
        <ele>406.73483</ele>
        <time>2012-09-23T09:07:16Z</time>
      </trkpt>
      <trkpt lat="45.47024" lon="3.23195">
        <ele>408.5945</ele>
        <time>2012-09-23T09:07:20Z</time>
      </trkpt>
      <trkpt lat="45.47005" lon="3.23214">
        <ele>409.99582</ele>
        <time>2012-09-23T09:07:24Z</time>
      </trkpt>
      <trkpt lat="45.46988" lon="3.23231">
        <ele>410.45874</ele>
        <time>2012-09-23T09:07:28Z</time>
      </trkpt>
      <trkpt lat="45.4697" lon="3.2325">
        <ele>410.60712</ele>
        <time>2012-09-23T09:07:33Z</time>
      </trkpt>
      <trkpt lat="45.46954" lon="3.23265">
        <ele>410.3689</ele>
        <time>2012-09-23T09:07:38Z</time>
      </trkpt>
      <trkpt lat="45.4694" lon="3.2328">
        <ele>410.94196</ele>
        <time>2012-09-23T09:07:43Z</time>
      </trkpt>
      <trkpt lat="45.46926" lon="3.23301">
        <ele>411.89642</ele>
        <time>2012-09-23T09:07:48Z</time>
      </trkpt>
      <trkpt lat="45.46908" lon="3.23314">
        <ele>414.75516</ele>
        <time>2012-09-23T09:07:55Z</time>
      </trkpt>
      <trkpt lat="45.46888" lon="3.23326">
        <ele>414.31137</ele>
        <time>2012-09-23T09:08:01Z</time>
      </trkpt>
      <trkpt lat="45.46868" lon="3.23334">
        <ele>413.94894</ele>
        <time>2012-09-23T09:08:07Z</time>
      </trkpt>
      <trkpt lat="45.46849" lon="3.23339">
        <ele>413.49213</ele>
        <time>2012-09-23T09:08:12Z</time>
      </trkpt>
      <trkpt lat="45.4683" lon="3.23347">
        <ele>412.8429</ele>
        <time>2012-09-23T09:08:17Z</time>
      </trkpt>
      <trkpt lat="45.4681" lon="3.23357">
        <ele>414.2388</ele>
        <time>2012-09-23T09:08:22Z</time>
      </trkpt>
      <trkpt lat="45.4679" lon="3.2337">
        <ele>414.7015</ele>
        <time>2012-09-23T09:08:27Z</time>
      </trkpt>
      <trkpt lat="45.4677" lon="3.23382">
        <ele>415.7879</ele>
        <time>2012-09-23T09:08:32Z</time>
      </trkpt>
      <trkpt lat="45.46752" lon="3.23395">
        <ele>417.7707</ele>
        <time>2012-09-23T09:08:37Z</time>
      </trkpt>
      <trkpt lat="45.46733" lon="3.23406">
        <ele>418.67218</ele>
        <time>2012-09-23T09:08:42Z</time>
      </trkpt>
      <trkpt lat="45.46714" lon="3.23418">
        <ele>419.9487</ele>
        <time>2012-09-23T09:08:47Z</time>
      </trkpt>
      <trkpt lat="45.46694" lon="3.23427">
        <ele>420.83813</ele>
        <time>2012-09-23T09:08:52Z</time>
      </trkpt>
      <trkpt lat="45.46673" lon="3.23438">
        <ele>420.56024</ele>
        <time>2012-09-23T09:08:57Z</time>
      </trkpt>
      <trkpt lat="45.46656" lon="3.23448">
        <ele>420.24396</ele>
        <time>2012-09-23T09:09:01Z</time>
      </trkpt>
      <trkpt lat="45.46637" lon="3.23457">
        <ele>420.14624</ele>
        <time>2012-09-23T09:09:05Z</time>
      </trkpt>
      <trkpt lat="45.46615" lon="3.23467">
        <ele>419.42197</ele>
        <time>2012-09-23T09:09:09Z</time>
      </trkpt>
      <trkpt lat="45.46594" lon="3.2348">
        <ele>417.17325</ele>
        <time>2012-09-23T09:09:13Z</time>
      </trkpt>
      <trkpt lat="45.46577" lon="3.23501">
        <ele>416.1176</ele>
        <time>2012-09-23T09:09:17Z</time>
      </trkpt>
      <trkpt lat="45.46566" lon="3.23522">
        <ele>415.76263</ele>
        <time>2012-09-23T09:09:20Z</time>
      </trkpt>
      <trkpt lat="45.46548" lon="3.23546">
        <ele>418.1361</ele>
        <time>2012-09-23T09:09:24Z</time>
      </trkpt>
      <trkpt lat="45.46533" lon="3.23561">
        <ele>419.68607</ele>
        <time>2012-09-23T09:09:27Z</time>
      </trkpt>
      <trkpt lat="45.46518" lon="3.23579">
        <ele>419.78214</ele>
        <time>2012-09-23T09:09:30Z</time>
      </trkpt>
      <trkpt lat="45.46502" lon="3.23594">
        <ele>419.8711</ele>
        <time>2012-09-23T09:09:33Z</time>
      </trkpt>
      <trkpt lat="45.46486" lon="3.23613">
        <ele>419.85864</ele>
        <time>2012-09-23T09:09:36Z</time>
      </trkpt>
      <trkpt lat="45.46472" lon="3.23629">
        <ele>420.02682</ele>
        <time>2012-09-23T09:09:39Z</time>
      </trkpt>
      <trkpt lat="45.46459" lon="3.23647">
        <ele>418.97278</ele>
        <time>2012-09-23T09:09:42Z</time>
      </trkpt>
      <trkpt lat="45.46442" lon="3.23669">
        <ele>417.35144</ele>
        <time>2012-09-23T09:09:46Z</time>
      </trkpt>
      <trkpt lat="45.46423" lon="3.23688">
        <ele>416.52478</ele>
        <time>2012-09-23T09:09:50Z</time>
      </trkpt>
      <trkpt lat="45.46405" lon="3.23699">
        <ele>415.95697</ele>
        <time>2012-09-23T09:09:54Z</time>
      </trkpt>
      <trkpt lat="45.464" lon="3.23729">
        <ele>415.40033</ele>
        <time>2012-09-23T09:09:58Z</time>
      </trkpt>
      <trkpt lat="45.46406" lon="3.23756">
        <ele>414.7647</ele>
        <time>2012-09-23T09:10:01Z</time>
      </trkpt>
      <trkpt lat="45.46415" lon="3.2378">
        <ele>413.56375</ele>
        <time>2012-09-23T09:10:04Z</time>
      </trkpt>
      <trkpt lat="45.46428" lon="3.23806">
        <ele>412.8232</ele>
        <time>2012-09-23T09:10:08Z</time>
      </trkpt>
      <trkpt lat="45.46438" lon="3.23836">
        <ele>412.2213</ele>
        <time>2012-09-23T09:10:12Z</time>
      </trkpt>
      <trkpt lat="45.4644" lon="3.23866">
        <ele>412.33008</ele>
        <time>2012-09-23T09:10:16Z</time>
      </trkpt>
      <trkpt lat="45.46441" lon="3.23892">
        <ele>412.97726</ele>
        <time>2012-09-23T09:10:19Z</time>
      </trkpt>
      <trkpt lat="45.46439" lon="3.23919">
        <ele>412.9956</ele>
        <time>2012-09-23T09:10:22Z</time>
      </trkpt>
      <trkpt lat="45.4644" lon="3.23953">
        <ele>413.15475</ele>
        <time>2012-09-23T09:10:26Z</time>
      </trkpt>
      <trkpt lat="45.46443" lon="3.23979">
        <ele>412.58142</ele>
        <time>2012-09-23T09:10:29Z</time>
      </trkpt>
      <trkpt lat="45.46446" lon="3.24005">
        <ele>412.013</ele>
        <time>2012-09-23T09:10:32Z</time>
      </trkpt>
      <trkpt lat="45.4645" lon="3.24039">
        <ele>411.96573</ele>
        <time>2012-09-23T09:10:36Z</time>
      </trkpt>
      <trkpt lat="45.46454" lon="3.24066">
        <ele>410.94388</ele>
        <time>2012-09-23T09:10:39Z</time>
      </trkpt>
      <trkpt lat="45.46456" lon="3.24093">
        <ele>410.23465</ele>
        <time>2012-09-23T09:10:42Z</time>
      </trkpt>
      <trkpt lat="45.46459" lon="3.24121">
        <ele>409.4839</ele>
        <time>2012-09-23T09:10:45Z</time>
      </trkpt>
      <trkpt lat="45.46464" lon="3.24147">
        <ele>408.28903</ele>
        <time>2012-09-23T09:10:48Z</time>
      </trkpt>
      <trkpt lat="45.46472" lon="3.24178">
        <ele>408.26752</ele>
        <time>2012-09-23T09:10:52Z</time>
      </trkpt>
      <trkpt lat="45.46479" lon="3.24203">
        <ele>408.48215</ele>
        <time>2012-09-23T09:10:55Z</time>
      </trkpt>
      <trkpt lat="45.46489" lon="3.24228">
        <ele>408.88986</ele>
        <time>2012-09-23T09:10:58Z</time>
      </trkpt>
      <trkpt lat="45.46497" lon="3.24259">
        <ele>409.54004</ele>
        <time>2012-09-23T09:11:02Z</time>
      </trkpt>
      <trkpt lat="45.46502" lon="3.24288">
        <ele>410.03796</ele>
        <time>2012-09-23T09:11:06Z</time>
      </trkpt>
      <trkpt lat="45.46502" lon="3.24314">
        <ele>410.73685</ele>
        <time>2012-09-23T09:11:09Z</time>
      </trkpt>
      <trkpt lat="45.46505" lon="3.24342">
        <ele>412.06625</ele>
        <time>2012-09-23T09:11:13Z</time>
      </trkpt>
      <trkpt lat="45.46513" lon="3.2437">
        <ele>412.42523</ele>
        <time>2012-09-23T09:11:18Z</time>
      </trkpt>
      <trkpt lat="45.46519" lon="3.24395">
        <ele>412.195</ele>
        <time>2012-09-23T09:11:22Z</time>
      </trkpt>
      <trkpt lat="45.46528" lon="3.24421">
        <ele>412.8052</ele>
        <time>2012-09-23T09:11:27Z</time>
      </trkpt>
      <trkpt lat="45.46535" lon="3.24444">
        <ele>413.3906</ele>
        <time>2012-09-23T09:11:31Z</time>
      </trkpt>
      <trkpt lat="45.46544" lon="3.24469">
        <ele>412.986</ele>
        <time>2012-09-23T09:11:35Z</time>
      </trkpt>
      <trkpt lat="45.46552" lon="3.24494">
        <ele>411.88727</ele>
        <time>2012-09-23T09:11:39Z</time>
      </trkpt>
      <trkpt lat="45.46561" lon="3.24525">
        <ele>410.5822</ele>
        <time>2012-09-23T09:11:43Z</time>
      </trkpt>
      <trkpt lat="45.46573" lon="3.24552">
        <ele>409.88644</ele>
        <time>2012-09-23T09:11:47Z</time>
      </trkpt>
      <trkpt lat="45.4658" lon="3.24576">
        <ele>409.212</ele>
        <time>2012-09-23T09:11:50Z</time>
      </trkpt>
      <trkpt lat="45.46587" lon="3.24603">
        <ele>408.24777</ele>
        <time>2012-09-23T09:11:53Z</time>
      </trkpt>
      <trkpt lat="45.46594" lon="3.2463">
        <ele>407.43942</ele>
        <time>2012-09-23T09:11:56Z</time>
      </trkpt>
      <trkpt lat="45.46602" lon="3.24656">
        <ele>407.34058</ele>
        <time>2012-09-23T09:11:59Z</time>
      </trkpt>
      <trkpt lat="45.4661" lon="3.2468">
        <ele>407.5067</ele>
        <time>2012-09-23T09:12:02Z</time>
      </trkpt>
      <trkpt lat="45.46617" lon="3.24707">
        <ele>407.6549</ele>
        <time>2012-09-23T09:12:05Z</time>
      </trkpt>
      <trkpt lat="45.46626" lon="3.24731">
        <ele>407.41116</ele>
        <time>2012-09-23T09:12:08Z</time>
      </trkpt>
      <trkpt lat="45.46631" lon="3.24758">
        <ele>407.39584</ele>
        <time>2012-09-23T09:12:11Z</time>
      </trkpt>
      <trkpt lat="45.4664" lon="3.24782">
        <ele>407.7144</ele>
        <time>2012-09-23T09:12:14Z</time>
      </trkpt>
      <trkpt lat="45.46648" lon="3.24811">
        <ele>408.14877</ele>
        <time>2012-09-23T09:12:17Z</time>
      </trkpt>
      <trkpt lat="45.46653" lon="3.24839">
        <ele>408.14764</ele>
        <time>2012-09-23T09:12:20Z</time>
      </trkpt>
      <trkpt lat="45.46659" lon="3.24867">
        <ele>408.055</ele>
        <time>2012-09-23T09:12:23Z</time>
      </trkpt>
      <trkpt lat="45.46664" lon="3.249">
        <ele>407.0909</ele>
        <time>2012-09-23T09:12:26Z</time>
      </trkpt>
      <trkpt lat="45.46669" lon="3.2493">
        <ele>406.02637</ele>
        <time>2012-09-23T09:12:29Z</time>
      </trkpt>
      <trkpt lat="45.46673" lon="3.2496">
        <ele>405.73038</ele>
        <time>2012-09-23T09:12:32Z</time>
      </trkpt>
      <trkpt lat="45.46678" lon="3.24989">
        <ele>405.7274</ele>
        <time>2012-09-23T09:12:35Z</time>
      </trkpt>
      <trkpt lat="45.46685" lon="3.25019">
        <ele>406.02457</ele>
        <time>2012-09-23T09:12:38Z</time>
      </trkpt>
      <trkpt lat="45.4669" lon="3.25048">
        <ele>405.49213</ele>
        <time>2012-09-23T09:12:40Z</time>
      </trkpt>
      <trkpt lat="45.46698" lon="3.25075">
        <ele>404.93002</ele>
        <time>2012-09-23T09:12:44Z</time>
      </trkpt>
      <trkpt lat="45.46706" lon="3.25099">
        <ele>404.90692</ele>
        <time>2012-09-23T09:12:46Z</time>
      </trkpt>
      <trkpt lat="45.46715" lon="3.25124">
        <ele>404.77374</ele>
        <time>2012-09-23T09:12:50Z</time>
      </trkpt>
      <trkpt lat="45.4673" lon="3.25178">
        <ele>404.78256</ele>
        <time>2012-09-23T09:12:58Z</time>
      </trkpt>
      <trkpt lat="45.46717" lon="3.25197">
        <ele>405.2264</ele>
        <time>2012-09-23T09:13:02Z</time>
      </trkpt>
      <trkpt lat="45.46698" lon="3.25215">
        <ele>404.7981</ele>
        <time>2012-09-23T09:13:06Z</time>
      </trkpt>
      <trkpt lat="45.46679" lon="3.25234">
        <ele>403.95282</ele>
        <time>2012-09-23T09:13:10Z</time>
      </trkpt>
      <trkpt lat="45.46664" lon="3.2525">
        <ele>403.4056</ele>
        <time>2012-09-23T09:13:13Z</time>
      </trkpt>
      <trkpt lat="45.46645" lon="3.25268">
        <ele>402.86026</ele>
        <time>2012-09-23T09:13:17Z</time>
      </trkpt>
      <trkpt lat="45.46629" lon="3.25283">
        <ele>402.18616</ele>
        <time>2012-09-23T09:13:21Z</time>
      </trkpt>
      <trkpt lat="45.46613" lon="3.25301">
        <ele>401.49005</ele>
        <time>2012-09-23T09:13:25Z</time>
      </trkpt>
      <trkpt lat="45.46594" lon="3.25318">
        <ele>400.12057</ele>
        <time>2012-09-23T09:13:29Z</time>
      </trkpt>
      <trkpt lat="45.46578" lon="3.25335">
        <ele>399.2318</ele>
        <time>2012-09-23T09:13:33Z</time>
      </trkpt>
      <trkpt lat="45.46563" lon="3.25352">
        <ele>399.59787</ele>
        <time>2012-09-23T09:13:37Z</time>
      </trkpt>
      <trkpt lat="45.46546" lon="3.25368">
        <ele>399.51837</ele>
        <time>2012-09-23T09:13:41Z</time>
      </trkpt>
      <trkpt lat="45.4653" lon="3.25385">
        <ele>399.2315</ele>
        <time>2012-09-23T09:13:45Z</time>
      </trkpt>
      <trkpt lat="45.46514" lon="3.25402">
        <ele>398.27197</ele>
        <time>2012-09-23T09:13:49Z</time>
      </trkpt>
      <trkpt lat="45.46497" lon="3.25419">
        <ele>398.06213</ele>
        <time>2012-09-23T09:13:53Z</time>
      </trkpt>
      <trkpt lat="45.46482" lon="3.25436">
        <ele>398.15198</ele>
        <time>2012-09-23T09:13:57Z</time>
      </trkpt>
      <trkpt lat="45.46467" lon="3.25455">
        <ele>399.3804</ele>
        <time>2012-09-23T09:14:01Z</time>
      </trkpt>
      <trkpt lat="45.46466" lon="3.25483">
        <ele>403.75104</ele>
        <time>2012-09-23T09:14:08Z</time>
      </trkpt>
      <trkpt lat="45.46484" lon="3.25509">
        <ele>405.29398</ele>
        <time>2012-09-23T09:14:14Z</time>
      </trkpt>
      <trkpt lat="45.465" lon="3.25535">
        <ele>405.89172</ele>
        <time>2012-09-23T09:14:17Z</time>
      </trkpt>
      <trkpt lat="45.46513" lon="3.25562">
        <ele>405.9215</ele>
        <time>2012-09-23T09:14:21Z</time>
      </trkpt>
      <trkpt lat="45.46528" lon="3.25587">
        <ele>405.79968</ele>
        <time>2012-09-23T09:14:25Z</time>
      </trkpt>
      <trkpt lat="45.46538" lon="3.25614">
        <ele>404.9998</ele>
        <time>2012-09-23T09:14:29Z</time>
      </trkpt>
      <trkpt lat="45.46554" lon="3.25635">
        <ele>404.219</ele>
        <time>2012-09-23T09:14:32Z</time>
      </trkpt>
      <trkpt lat="45.46567" lon="3.25656">
        <ele>403.08832</ele>
        <time>2012-09-23T09:14:37Z</time>
      </trkpt>
      <trkpt lat="45.4658" lon="3.25676">
        <ele>402.70364</ele>
        <time>2012-09-23T09:14:41Z</time>
      </trkpt>
      <trkpt lat="45.46586" lon="3.25701">
        <ele>401.97058</ele>
        <time>2012-09-23T09:14:45Z</time>
      </trkpt>
      <trkpt lat="45.46587" lon="3.25727">
        <ele>402.01154</ele>
        <time>2012-09-23T09:14:48Z</time>
      </trkpt>
      <trkpt lat="45.46592" lon="3.25753">
        <ele>402.47153</ele>
        <time>2012-09-23T09:14:52Z</time>
      </trkpt>
      <trkpt lat="45.46601" lon="3.25779">
        <ele>402.8377</ele>
        <time>2012-09-23T09:14:57Z</time>
      </trkpt>
      <trkpt lat="45.46606" lon="3.25812">
        <ele>403.23145</ele>
        <time>2012-09-23T09:15:02Z</time>
      </trkpt>
      <trkpt lat="45.46611" lon="3.25839">
        <ele>402.0321</ele>
        <time>2012-09-23T09:15:06Z</time>
      </trkpt>
      <trkpt lat="45.46612" lon="3.25868">
        <ele>400.64835</ele>
        <time>2012-09-23T09:15:10Z</time>
      </trkpt>
      <trkpt lat="45.46611" lon="3.259">
        <ele>400.2984</ele>
        <time>2012-09-23T09:15:14Z</time>
      </trkpt>
      <trkpt lat="45.46614" lon="3.25925">
        <ele>400.13107</ele>
        <time>2012-09-23T09:15:17Z</time>
      </trkpt>
      <trkpt lat="45.46618" lon="3.25953">
        <ele>399.83707</ele>
        <time>2012-09-23T09:15:20Z</time>
      </trkpt>
      <trkpt lat="45.46624" lon="3.2598">
        <ele>399.68802</ele>
        <time>2012-09-23T09:15:23Z</time>
      </trkpt>
      <trkpt lat="45.4663" lon="3.26007">
        <ele>399.42984</ele>
        <time>2012-09-23T09:15:26Z</time>
      </trkpt>
      <trkpt lat="45.46633" lon="3.26035">
        <ele>398.66467</ele>
        <time>2012-09-23T09:15:29Z</time>
      </trkpt>
      <trkpt lat="45.46632" lon="3.26063">
        <ele>397.92154</ele>
        <time>2012-09-23T09:15:32Z</time>
      </trkpt>
      <trkpt lat="45.46631" lon="3.26092">
        <ele>397.2846</ele>
        <time>2012-09-23T09:15:35Z</time>
      </trkpt>
      <trkpt lat="45.46631" lon="3.26121">
        <ele>396.75497</ele>
        <time>2012-09-23T09:15:38Z</time>
      </trkpt>
      <trkpt lat="45.46631" lon="3.2615">
        <ele>395.75027</ele>
        <time>2012-09-23T09:15:41Z</time>
      </trkpt>
      <trkpt lat="45.46629" lon="3.26177">
        <ele>395.51547</ele>
        <time>2012-09-23T09:15:44Z</time>
      </trkpt>
      <trkpt lat="45.46623" lon="3.26207">
        <ele>395.40128</ele>
        <time>2012-09-23T09:15:48Z</time>
      </trkpt>
      <trkpt lat="45.46625" lon="3.26233">
        <ele>395.70773</ele>
        <time>2012-09-23T09:15:52Z</time>
      </trkpt>
      <trkpt lat="45.46631" lon="3.26259">
        <ele>396.67267</ele>
        <time>2012-09-23T09:15:56Z</time>
      </trkpt>
      <trkpt lat="45.4664" lon="3.26286">
        <ele>396.49905</ele>
        <time>2012-09-23T09:16:00Z</time>
      </trkpt>
      <trkpt lat="45.4665" lon="3.2631">
        <ele>395.66263</ele>
        <time>2012-09-23T09:16:03Z</time>
      </trkpt>
      <trkpt lat="45.46661" lon="3.26336">
        <ele>394.72226</ele>
        <time>2012-09-23T09:16:06Z</time>
      </trkpt>
      <trkpt lat="45.46671" lon="3.26361">
        <ele>393.74896</ele>
        <time>2012-09-23T09:16:09Z</time>
      </trkpt>
      <trkpt lat="45.46673" lon="3.26389">
        <ele>392.74304</ele>
        <time>2012-09-23T09:16:12Z</time>
      </trkpt>
      <trkpt lat="45.46667" lon="3.26416">
        <ele>391.77023</ele>
        <time>2012-09-23T09:16:15Z</time>
      </trkpt>
      <trkpt lat="45.46653" lon="3.26435">
        <ele>390.58914</ele>
        <time>2012-09-23T09:16:20Z</time>
      </trkpt>
      <trkpt lat="45.46633" lon="3.26437">
        <ele>390.8624</ele>
        <time>2012-09-23T09:16:26Z</time>
      </trkpt>
      <trkpt lat="45.46613" lon="3.26443">
        <ele>392.297</ele>
        <time>2012-09-23T09:16:30Z</time>
      </trkpt>
      <trkpt lat="45.46594" lon="3.26447">
        <ele>394.25482</ele>
        <time>2012-09-23T09:16:34Z</time>
      </trkpt>
      <trkpt lat="45.46573" lon="3.26452">
        <ele>395.95865</ele>
        <time>2012-09-23T09:16:38Z</time>
      </trkpt>
      <trkpt lat="45.46554" lon="3.26456">
        <ele>398.22394</ele>
        <time>2012-09-23T09:16:42Z</time>
      </trkpt>
      <trkpt lat="45.46545" lon="3.26486">
        <ele>399.81766</ele>
        <time>2012-09-23T09:16:48Z</time>
      </trkpt>
      <trkpt lat="45.46541" lon="3.26512">
        <ele>399.6689</ele>
        <time>2012-09-23T09:16:51Z</time>
      </trkpt>
      <trkpt lat="45.46536" lon="3.26543">
        <ele>398.76077</ele>
        <time>2012-09-23T09:16:55Z</time>
      </trkpt>
      <trkpt lat="45.46528" lon="3.26568">
        <ele>398.0281</ele>
        <time>2012-09-23T09:16:59Z</time>
      </trkpt>
      <trkpt lat="45.46507" lon="3.2658">
        <ele>398.2149</ele>
        <time>2012-09-23T09:17:04Z</time>
      </trkpt>
      <trkpt lat="45.46488" lon="3.26586">
        <ele>397.88977</ele>
        <time>2012-09-23T09:17:08Z</time>
      </trkpt>
      <trkpt lat="45.46469" lon="3.2659">
        <ele>397.26385</ele>
        <time>2012-09-23T09:17:12Z</time>
      </trkpt>
      <trkpt lat="45.46447" lon="3.26592">
        <ele>396.75043</ele>
        <time>2012-09-23T09:17:17Z</time>
      </trkpt>
      <trkpt lat="45.46429" lon="3.26607">
        <ele>395.51587</ele>
        <time>2012-09-23T09:17:21Z</time>
      </trkpt>
      <trkpt lat="45.46412" lon="3.26627">
        <ele>394.07797</ele>
        <time>2012-09-23T09:17:25Z</time>
      </trkpt>
      <trkpt lat="45.46398" lon="3.26648">
        <ele>394.4445</ele>
        <time>2012-09-23T09:17:29Z</time>
      </trkpt>
      <trkpt lat="45.46394" lon="3.26677">
        <ele>395.7257</ele>
        <time>2012-09-23T09:17:33Z</time>
      </trkpt>
      <trkpt lat="45.46389" lon="3.26707">
        <ele>396.70685</ele>
        <time>2012-09-23T09:17:37Z</time>
      </trkpt>
      <trkpt lat="45.46383" lon="3.26738">
        <ele>396.4841</ele>
        <time>2012-09-23T09:17:41Z</time>
      </trkpt>
      <trkpt lat="45.46384" lon="3.26769">
        <ele>395.62613</ele>
        <time>2012-09-23T09:17:45Z</time>
      </trkpt>
      <trkpt lat="45.46388" lon="3.26795">
        <ele>393.5584</ele>
        <time>2012-09-23T09:17:48Z</time>
      </trkpt>
      <trkpt lat="45.46395" lon="3.26826">
        <ele>392.21213</ele>
        <time>2012-09-23T09:17:52Z</time>
      </trkpt>
      <trkpt lat="45.464" lon="3.26852">
        <ele>391.20724</ele>
        <time>2012-09-23T09:17:56Z</time>
      </trkpt>
      <trkpt lat="45.46392" lon="3.26882">
        <ele>390.45297</ele>
        <time>2012-09-23T09:18:00Z</time>
      </trkpt>
      <trkpt lat="45.46387" lon="3.26912">
        <ele>390.31042</ele>
        <time>2012-09-23T09:18:04Z</time>
      </trkpt>
      <trkpt lat="45.46393" lon="3.26945">
        <ele>390.19186</ele>
        <time>2012-09-23T09:18:08Z</time>
      </trkpt>
      <trkpt lat="45.46399" lon="3.26969">
        <ele>390.02832</ele>
        <time>2012-09-23T09:18:10Z</time>
      </trkpt>
      <trkpt lat="45.46404" lon="3.26994">
        <ele>389.94373</ele>
        <time>2012-09-23T09:18:14Z</time>
      </trkpt>
      <trkpt lat="45.4641" lon="3.27019">
        <ele>389.6377</ele>
        <time>2012-09-23T09:18:17Z</time>
      </trkpt>
      <trkpt lat="45.46416" lon="3.27044">
        <ele>389.52734</ele>
        <time>2012-09-23T09:18:20Z</time>
      </trkpt>
      <trkpt lat="45.4642" lon="3.27069">
        <ele>389.23392</ele>
        <time>2012-09-23T09:18:23Z</time>
      </trkpt>
      <trkpt lat="45.46418" lon="3.27095">
        <ele>388.63513</ele>
        <time>2012-09-23T09:18:26Z</time>
      </trkpt>
      <trkpt lat="45.46411" lon="3.27124">
        <ele>388.86884</ele>
        <time>2012-09-23T09:18:30Z</time>
      </trkpt>
      <trkpt lat="45.46398" lon="3.27148">
        <ele>389.71777</ele>
        <time>2012-09-23T09:18:34Z</time>
      </trkpt>
      <trkpt lat="45.46379" lon="3.27152">
        <ele>389.4774</ele>
        <time>2012-09-23T09:18:38Z</time>
      </trkpt>
      <trkpt lat="45.46356" lon="3.27154">
        <ele>389.54703</ele>
        <time>2012-09-23T09:18:42Z</time>
      </trkpt>
      <trkpt lat="45.46335" lon="3.27153">
        <ele>389.4063</ele>
        <time>2012-09-23T09:18:45Z</time>
      </trkpt>
      <trkpt lat="45.46311" lon="3.27152">
        <ele>390.4033</ele>
        <time>2012-09-23T09:18:50Z</time>
      </trkpt>
      <trkpt lat="45.46292" lon="3.27148">
        <ele>392.6768</ele>
        <time>2012-09-23T09:18:56Z</time>
      </trkpt>
      <trkpt lat="45.46285" lon="3.27176">
        <ele>391.5567</ele>
        <time>2012-09-23T09:19:04Z</time>
      </trkpt>
      <trkpt lat="45.46284" lon="3.27204">
        <ele>391.5733</ele>
        <time>2012-09-23T09:19:08Z</time>
      </trkpt>
      <trkpt lat="45.46284" lon="3.27236">
        <ele>391.33835</ele>
        <time>2012-09-23T09:19:12Z</time>
      </trkpt>
      <trkpt lat="45.46284" lon="3.27269">
        <ele>391.19562</ele>
        <time>2012-09-23T09:19:16Z</time>
      </trkpt>
      <trkpt lat="45.46283" lon="3.27295">
        <ele>390.92212</ele>
        <time>2012-09-23T09:19:19Z</time>
      </trkpt>
      <trkpt lat="45.46282" lon="3.27322">
        <ele>390.45514</ele>
        <time>2012-09-23T09:19:22Z</time>
      </trkpt>
      <trkpt lat="45.46281" lon="3.2735">
        <ele>389.84097</ele>
        <time>2012-09-23T09:19:25Z</time>
      </trkpt>
      <trkpt lat="45.46281" lon="3.27377">
        <ele>390.14124</ele>
        <time>2012-09-23T09:19:28Z</time>
      </trkpt>
      <trkpt lat="45.46283" lon="3.27404">
        <ele>389.9726</ele>
        <time>2012-09-23T09:19:31Z</time>
      </trkpt>
      <trkpt lat="45.46283" lon="3.27431">
        <ele>390.0874</ele>
        <time>2012-09-23T09:19:34Z</time>
      </trkpt>
      <trkpt lat="45.46283" lon="3.27457">
        <ele>389.978</ele>
        <time>2012-09-23T09:19:37Z</time>
      </trkpt>
      <trkpt lat="45.4629" lon="3.27488">
        <ele>389.13748</ele>
        <time>2012-09-23T09:19:41Z</time>
      </trkpt>
      <trkpt lat="45.46306" lon="3.27503">
        <ele>388.19446</ele>
        <time>2012-09-23T09:19:44Z</time>
      </trkpt>
      <trkpt lat="45.46321" lon="3.27519">
        <ele>387.59192</ele>
        <time>2012-09-23T09:19:47Z</time>
      </trkpt>
      <trkpt lat="45.46336" lon="3.27534">
        <ele>387.35022</ele>
        <time>2012-09-23T09:19:50Z</time>
      </trkpt>
      <trkpt lat="45.46351" lon="3.27551">
        <ele>387.1764</ele>
        <time>2012-09-23T09:19:53Z</time>
      </trkpt>
      <trkpt lat="45.46365" lon="3.27569">
        <ele>386.90463</ele>
        <time>2012-09-23T09:19:56Z</time>
      </trkpt>
      <trkpt lat="45.46377" lon="3.27598">
        <ele>386.64862</ele>
        <time>2012-09-23T09:20:00Z</time>
      </trkpt>
      <trkpt lat="45.46387" lon="3.27629">
        <ele>386.28015</ele>
        <time>2012-09-23T09:20:04Z</time>
      </trkpt>
      <trkpt lat="45.46393" lon="3.27658">
        <ele>386.0147</ele>
        <time>2012-09-23T09:20:08Z</time>
      </trkpt>
      <trkpt lat="45.46394" lon="3.2769">
        <ele>385.64713</ele>
        <time>2012-09-23T09:20:12Z</time>
      </trkpt>
      <trkpt lat="45.46393" lon="3.27721">
        <ele>385.53278</ele>
        <time>2012-09-23T09:20:16Z</time>
      </trkpt>
      <trkpt lat="45.46392" lon="3.27747">
        <ele>385.2294</ele>
        <time>2012-09-23T09:20:20Z</time>
      </trkpt>
      <trkpt lat="45.46391" lon="3.27778">
        <ele>385.0079</ele>
        <time>2012-09-23T09:20:25Z</time>
      </trkpt>
      <trkpt lat="45.4639" lon="3.27805">
        <ele>385.50085</ele>
        <time>2012-09-23T09:20:29Z</time>
      </trkpt>
      <trkpt lat="45.46389" lon="3.27832">
        <ele>385.3654</ele>
        <time>2012-09-23T09:20:33Z</time>
      </trkpt>
      <trkpt lat="45.46387" lon="3.27863">
        <ele>384.76004</ele>
        <time>2012-09-23T09:20:37Z</time>
      </trkpt>
      <trkpt lat="45.46388" lon="3.27889">
        <ele>384.44507</ele>
        <time>2012-09-23T09:20:41Z</time>
      </trkpt>
      <trkpt lat="45.46387" lon="3.27915">
        <ele>384.48682</ele>
        <time>2012-09-23T09:20:45Z</time>
      </trkpt>
      <trkpt lat="45.46385" lon="3.27948">
        <ele>384.6549</ele>
        <time>2012-09-23T09:20:50Z</time>
      </trkpt>
      <trkpt lat="45.46385" lon="3.27977">
        <ele>385.78552</ele>
        <time>2012-09-23T09:20:55Z</time>
      </trkpt>
      <trkpt lat="45.46385" lon="3.28007">
        <ele>386.451</ele>
        <time>2012-09-23T09:21:00Z</time>
      </trkpt>
      <trkpt lat="45.46385" lon="3.28038">
        <ele>386.75296</ele>
        <time>2012-09-23T09:21:05Z</time>
      </trkpt>
      <trkpt lat="45.46386" lon="3.28069">
        <ele>387.3461</ele>
        <time>2012-09-23T09:21:10Z</time>
      </trkpt>
      <trkpt lat="45.46385" lon="3.28098">
        <ele>388.2842</ele>
        <time>2012-09-23T09:21:15Z</time>
      </trkpt>
      <trkpt lat="45.46385" lon="3.28125">
        <ele>389.68613</ele>
        <time>2012-09-23T09:21:21Z</time>
      </trkpt>
      <trkpt lat="45.46404" lon="3.28129">
        <ele>390.21988</ele>
        <time>2012-09-23T09:21:26Z</time>
      </trkpt>
      <trkpt lat="45.46423" lon="3.28131">
        <ele>390.21246</ele>
        <time>2012-09-23T09:21:30Z</time>
      </trkpt>
      <trkpt lat="45.46444" lon="3.28133">
        <ele>389.87024</ele>
        <time>2012-09-23T09:21:34Z</time>
      </trkpt>
      <trkpt lat="45.46467" lon="3.28134">
        <ele>389.73502</ele>
        <time>2012-09-23T09:21:38Z</time>
      </trkpt>
      <trkpt lat="45.46485" lon="3.28135">
        <ele>389.69968</ele>
        <time>2012-09-23T09:21:41Z</time>
      </trkpt>
      <trkpt lat="45.46504" lon="3.28137">
        <ele>389.53162</ele>
        <time>2012-09-23T09:21:44Z</time>
      </trkpt>
      <trkpt lat="45.46523" lon="3.28139">
        <ele>389.5873</ele>
        <time>2012-09-23T09:21:47Z</time>
      </trkpt>
      <trkpt lat="45.46543" lon="3.2814">
        <ele>389.65765</ele>
        <time>2012-09-23T09:21:50Z</time>
      </trkpt>
      <trkpt lat="45.46564" lon="3.28142">
        <ele>389.7389</ele>
        <time>2012-09-23T09:21:53Z</time>
      </trkpt>
      <trkpt lat="45.46585" lon="3.28144">
        <ele>389.85287</ele>
        <time>2012-09-23T09:21:56Z</time>
      </trkpt>
      <trkpt lat="45.46605" lon="3.28147">
        <ele>389.69626</ele>
        <time>2012-09-23T09:21:59Z</time>
      </trkpt>
      <trkpt lat="45.46625" lon="3.28149">
        <ele>390.05362</ele>
        <time>2012-09-23T09:22:02Z</time>
      </trkpt>
      <trkpt lat="45.46645" lon="3.28151">
        <ele>390.26376</ele>
        <time>2012-09-23T09:22:05Z</time>
      </trkpt>
      <trkpt lat="45.46664" lon="3.28154">
        <ele>390.4915</ele>
        <time>2012-09-23T09:22:08Z</time>
      </trkpt>
      <trkpt lat="45.46683" lon="3.28155">
        <ele>391.1688</ele>
        <time>2012-09-23T09:22:11Z</time>
      </trkpt>
      <trkpt lat="45.46701" lon="3.28157">
        <ele>391.31705</ele>
        <time>2012-09-23T09:22:14Z</time>
      </trkpt>
      <trkpt lat="45.46725" lon="3.28155">
        <ele>391.1475</ele>
        <time>2012-09-23T09:22:18Z</time>
      </trkpt>
      <trkpt lat="45.46748" lon="3.28147">
        <ele>392.40555</ele>
        <time>2012-09-23T09:22:22Z</time>
      </trkpt>
      <trkpt lat="45.46769" lon="3.2813">
        <ele>394.52002</ele>
        <time>2012-09-23T09:22:26Z</time>
      </trkpt>
      <trkpt lat="45.46784" lon="3.28116">
        <ele>396.51834</ele>
        <time>2012-09-23T09:22:29Z</time>
      </trkpt>
      <trkpt lat="45.46804" lon="3.28099">
        <ele>397.7854</ele>
        <time>2012-09-23T09:22:33Z</time>
      </trkpt>
      <trkpt lat="45.46823" lon="3.28079">
        <ele>397.07925</ele>
        <time>2012-09-23T09:22:37Z</time>
      </trkpt>
      <trkpt lat="45.46841" lon="3.28066">
        <ele>397.04175</ele>
        <time>2012-09-23T09:22:40Z</time>
      </trkpt>
      <trkpt lat="45.46857" lon="3.28051">
        <ele>396.9447</ele>
        <time>2012-09-23T09:22:43Z</time>
      </trkpt>
      <trkpt lat="45.46875" lon="3.28034">
        <ele>396.02094</ele>
        <time>2012-09-23T09:22:46Z</time>
      </trkpt>
      <trkpt lat="45.46892" lon="3.28021">
        <ele>395.27655</ele>
        <time>2012-09-23T09:22:49Z</time>
      </trkpt>
      <trkpt lat="45.4691" lon="3.28013">
        <ele>395.04843</ele>
        <time>2012-09-23T09:22:52Z</time>
      </trkpt>
      <trkpt lat="45.46927" lon="3.28025">
        <ele>395.26523</ele>
        <time>2012-09-23T09:22:56Z</time>
      </trkpt>
      <trkpt lat="45.46944" lon="3.28034">
        <ele>398.95267</ele>
        <time>2012-09-23T09:24:38Z</time>
      </trkpt>
      <trkpt lat="45.46961" lon="3.28053">
        <ele>398.79025</ele>
        <time>2012-09-23T09:24:43Z</time>
      </trkpt>
      <trkpt lat="45.46974" lon="3.28077">
        <ele>397.13022</ele>
        <time>2012-09-23T09:24:47Z</time>
      </trkpt>
      <trkpt lat="45.46984" lon="3.28102">
        <ele>395.83524</ele>
        <time>2012-09-23T09:24:52Z</time>
      </trkpt>
      <trkpt lat="45.46999" lon="3.28132">
        <ele>394.55246</ele>
        <time>2012-09-23T09:24:56Z</time>
      </trkpt>
      <trkpt lat="45.47013" lon="3.28155">
        <ele>393.82422</ele>
        <time>2012-09-23T09:24:59Z</time>
      </trkpt>
      <trkpt lat="45.47029" lon="3.2818">
        <ele>393.44662</ele>
        <time>2012-09-23T09:25:03Z</time>
      </trkpt>
      <trkpt lat="45.47046" lon="3.28201">
        <ele>394.42175</ele>
        <time>2012-09-23T09:25:06Z</time>
      </trkpt>
      <trkpt lat="45.47061" lon="3.28219">
        <ele>395.555</ele>
        <time>2012-09-23T09:25:09Z</time>
      </trkpt>
      <trkpt lat="45.47079" lon="3.2824">
        <ele>396.96747</ele>
        <time>2012-09-23T09:25:12Z</time>
      </trkpt>
      <trkpt lat="45.47096" lon="3.28259">
        <ele>397.99615</ele>
        <time>2012-09-23T09:25:15Z</time>
      </trkpt>
      <trkpt lat="45.47114" lon="3.28282">
        <ele>397.51608</ele>
        <time>2012-09-23T09:25:18Z</time>
      </trkpt>
      <trkpt lat="45.47134" lon="3.28303">
        <ele>397.10886</ele>
        <time>2012-09-23T09:25:21Z</time>
      </trkpt>
      <trkpt lat="45.47154" lon="3.28322">
        <ele>398.23395</ele>
        <time>2012-09-23T09:25:23Z</time>
      </trkpt>
      <trkpt lat="45.47172" lon="3.28341">
        <ele>398.50235</ele>
        <time>2012-09-23T09:25:27Z</time>
      </trkpt>
      <trkpt lat="45.4719" lon="3.28359">
        <ele>398.03745</ele>
        <time>2012-09-23T09:25:30Z</time>
      </trkpt>
      <trkpt lat="45.47213" lon="3.28369">
        <ele>397.7132</ele>
        <time>2012-09-23T09:25:33Z</time>
      </trkpt>
      <trkpt lat="45.47234" lon="3.28383">
        <ele>397.46075</ele>
        <time>2012-09-23T09:25:36Z</time>
      </trkpt>
      <trkpt lat="45.4725" lon="3.284">
        <ele>397.06207</ele>
        <time>2012-09-23T09:25:39Z</time>
      </trkpt>
      <trkpt lat="45.47268" lon="3.28415">
        <ele>396.82513</ele>
        <time>2012-09-23T09:25:42Z</time>
      </trkpt>
      <trkpt lat="45.47286" lon="3.28427">
        <ele>395.87988</ele>
        <time>2012-09-23T09:25:45Z</time>
      </trkpt>
      <trkpt lat="45.47304" lon="3.28436">
        <ele>395.3139</ele>
        <time>2012-09-23T09:25:48Z</time>
      </trkpt>
      <trkpt lat="45.47327" lon="3.28438">
        <ele>394.44077</ele>
        <time>2012-09-23T09:25:51Z</time>
      </trkpt>
      <trkpt lat="45.47351" lon="3.28441">
        <ele>393.20676</ele>
        <time>2012-09-23T09:25:54Z</time>
      </trkpt>
      <trkpt lat="45.47375" lon="3.28445">
        <ele>393.18307</ele>
        <time>2012-09-23T09:25:56Z</time>
      </trkpt>
      <trkpt lat="45.47396" lon="3.28453">
        <ele>393.68243</ele>
        <time>2012-09-23T09:26:00Z</time>
      </trkpt>
      <trkpt lat="45.47416" lon="3.28471">
        <ele>393.5853</ele>
        <time>2012-09-23T09:26:03Z</time>
      </trkpt>
      <trkpt lat="45.47428" lon="3.28499">
        <ele>393.43494</ele>
        <time>2012-09-23T09:26:06Z</time>
      </trkpt>
      <trkpt lat="45.47437" lon="3.2853">
        <ele>393.59494</ele>
        <time>2012-09-23T09:26:09Z</time>
      </trkpt>
      <trkpt lat="45.4744" lon="3.28562">
        <ele>393.24683</ele>
        <time>2012-09-23T09:26:12Z</time>
      </trkpt>
      <trkpt lat="45.47443" lon="3.28591">
        <ele>392.864</ele>
        <time>2012-09-23T09:26:15Z</time>
      </trkpt>
      <trkpt lat="45.47442" lon="3.28621">
        <ele>392.38065</ele>
        <time>2012-09-23T09:26:18Z</time>
      </trkpt>
      <trkpt lat="45.47439" lon="3.28647">
        <ele>391.7236</ele>
        <time>2012-09-23T09:26:21Z</time>
      </trkpt>
      <trkpt lat="45.47435" lon="3.28675">
        <ele>391.59485</ele>
        <time>2012-09-23T09:26:24Z</time>
      </trkpt>
      <trkpt lat="45.4743" lon="3.28703">
        <ele>391.7077</ele>
        <time>2012-09-23T09:26:27Z</time>
      </trkpt>
      <trkpt lat="45.4743" lon="3.28729">
        <ele>391.71783</ele>
        <time>2012-09-23T09:26:30Z</time>
      </trkpt>
      <trkpt lat="45.47437" lon="3.28756">
        <ele>391.47366</ele>
        <time>2012-09-23T09:26:33Z</time>
      </trkpt>
      <trkpt lat="45.47445" lon="3.28784">
        <ele>391.2863</ele>
        <time>2012-09-23T09:26:36Z</time>
      </trkpt>
      <trkpt lat="45.47454" lon="3.28808">
        <ele>391.34003</ele>
        <time>2012-09-23T09:26:39Z</time>
      </trkpt>
      <trkpt lat="45.47468" lon="3.28837">
        <ele>391.2032</ele>
        <time>2012-09-23T09:26:43Z</time>
      </trkpt>
      <trkpt lat="45.47475" lon="3.28864">
        <ele>390.5753</ele>
        <time>2012-09-23T09:26:46Z</time>
      </trkpt>
      <trkpt lat="45.47483" lon="3.2889">
        <ele>390.39792</ele>
        <time>2012-09-23T09:26:49Z</time>
      </trkpt>
      <trkpt lat="45.47487" lon="3.28917">
        <ele>390.55118</ele>
        <time>2012-09-23T09:26:52Z</time>
      </trkpt>
      <trkpt lat="45.47493" lon="3.28941">
        <ele>390.85962</ele>
        <time>2012-09-23T09:26:55Z</time>
      </trkpt>
      <trkpt lat="45.47498" lon="3.28974">
        <ele>390.9965</ele>
        <time>2012-09-23T09:26:59Z</time>
      </trkpt>
      <trkpt lat="45.47502" lon="3.29004">
        <ele>391.0074</ele>
        <time>2012-09-23T09:27:03Z</time>
      </trkpt>
      <trkpt lat="45.4748" lon="3.29">
        <ele>390.34296</ele>
        <time>2012-09-23T09:27:09Z</time>
      </trkpt>
      <trkpt lat="45.47463" lon="3.28992">
        <ele>389.2975</ele>
        <time>2012-09-23T09:27:13Z</time>
      </trkpt>
      <trkpt lat="45.47443" lon="3.28983">
        <ele>388.75888</ele>
        <time>2012-09-23T09:27:17Z</time>
      </trkpt>
      <trkpt lat="45.47424" lon="3.28974">
        <ele>388.54822</ele>
        <time>2012-09-23T09:27:21Z</time>
      </trkpt>
      <trkpt lat="45.47402" lon="3.28962">
        <ele>387.9347</ele>
        <time>2012-09-23T09:27:25Z</time>
      </trkpt>
      <trkpt lat="45.47382" lon="3.28953">
        <ele>389.23746</ele>
        <time>2012-09-23T09:27:29Z</time>
      </trkpt>
      <trkpt lat="45.4736" lon="3.28944">
        <ele>390.14767</ele>
        <time>2012-09-23T09:27:33Z</time>
      </trkpt>
      <trkpt lat="45.4734" lon="3.28935">
        <ele>390.4896</ele>
        <time>2012-09-23T09:27:37Z</time>
      </trkpt>
      <trkpt lat="45.4732" lon="3.28928">
        <ele>390.16263</ele>
        <time>2012-09-23T09:27:40Z</time>
      </trkpt>
      <trkpt lat="45.47299" lon="3.28919">
        <ele>390.3615</ele>
        <time>2012-09-23T09:27:45Z</time>
      </trkpt>
      <trkpt lat="45.47279" lon="3.28909">
        <ele>390.33344</ele>
        <time>2012-09-23T09:27:49Z</time>
      </trkpt>
      <trkpt lat="45.4726" lon="3.289">
        <ele>390.3175</ele>
        <time>2012-09-23T09:27:53Z</time>
      </trkpt>
      <trkpt lat="45.47238" lon="3.28893">
        <ele>390.24734</ele>
        <time>2012-09-23T09:27:58Z</time>
      </trkpt>
      <trkpt lat="45.4722" lon="3.28895">
        <ele>389.98987</ele>
        <time>2012-09-23T09:28:02Z</time>
      </trkpt>
      <trkpt lat="45.47208" lon="3.28922">
        <ele>391.10886</ele>
        <time>2012-09-23T09:28:06Z</time>
      </trkpt>
      <trkpt lat="45.472" lon="3.28946">
        <ele>392.03162</ele>
        <time>2012-09-23T09:28:10Z</time>
      </trkpt>
      <trkpt lat="45.47193" lon="3.2897">
        <ele>391.83878</ele>
        <time>2012-09-23T09:28:16Z</time>
      </trkpt>
      <trkpt lat="45.47182" lon="3.29001">
        <ele>392.30865</ele>
        <time>2012-09-23T09:28:21Z</time>
      </trkpt>
      <trkpt lat="45.47172" lon="3.29029">
        <ele>392.10068</ele>
        <time>2012-09-23T09:28:25Z</time>
      </trkpt>
      <trkpt lat="45.47159" lon="3.29054">
        <ele>392.12903</ele>
        <time>2012-09-23T09:28:29Z</time>
      </trkpt>
      <trkpt lat="45.47148" lon="3.29075">
        <ele>391.91574</ele>
        <time>2012-09-23T09:28:33Z</time>
      </trkpt>
      <trkpt lat="45.47138" lon="3.29098">
        <ele>391.5041</ele>
        <time>2012-09-23T09:28:37Z</time>
      </trkpt>
      <trkpt lat="45.47126" lon="3.29121">
        <ele>391.71954</ele>
        <time>2012-09-23T09:28:41Z</time>
      </trkpt>
      <trkpt lat="45.47115" lon="3.29144">
        <ele>391.79346</ele>
        <time>2012-09-23T09:28:46Z</time>
      </trkpt>
      <trkpt lat="45.47103" lon="3.29167">
        <ele>391.476</ele>
        <time>2012-09-23T09:28:51Z</time>
      </trkpt>
      <trkpt lat="45.47089" lon="3.29194">
        <ele>391.9849</ele>
        <time>2012-09-23T09:28:55Z</time>
      </trkpt>
      <trkpt lat="45.47075" lon="3.29214">
        <ele>392.33008</ele>
        <time>2012-09-23T09:28:58Z</time>
      </trkpt>
      <trkpt lat="45.47063" lon="3.29234">
        <ele>393.00708</ele>
        <time>2012-09-23T09:29:02Z</time>
      </trkpt>
      <trkpt lat="45.47048" lon="3.29254">
        <ele>393.17557</ele>
        <time>2012-09-23T09:29:06Z</time>
      </trkpt>
      <trkpt lat="45.47032" lon="3.29276">
        <ele>393.20987</ele>
        <time>2012-09-23T09:29:11Z</time>
      </trkpt>
      <trkpt lat="45.47017" lon="3.29298">
        <ele>393.337</ele>
        <time>2012-09-23T09:29:15Z</time>
      </trkpt>
      <trkpt lat="45.47009" lon="3.29321">
        <ele>393.1974</ele>
        <time>2012-09-23T09:29:18Z</time>
      </trkpt>
      <trkpt lat="45.46994" lon="3.29342">
        <ele>392.97876</ele>
        <time>2012-09-23T09:29:21Z</time>
      </trkpt>
      <trkpt lat="45.46983" lon="3.29364">
        <ele>393.32874</ele>
        <time>2012-09-23T09:29:26Z</time>
      </trkpt>
      <trkpt lat="45.46977" lon="3.29389">
        <ele>393.40796</ele>
        <time>2012-09-23T09:29:29Z</time>
      </trkpt>
      <trkpt lat="45.46973" lon="3.29421">
        <ele>394.16763</ele>
        <time>2012-09-23T09:29:33Z</time>
      </trkpt>
      <trkpt lat="45.46983" lon="3.29446">
        <ele>392.70563</ele>
        <time>2012-09-23T09:29:36Z</time>
      </trkpt>
      <trkpt lat="45.47001" lon="3.29454">
        <ele>392.6435</ele>
        <time>2012-09-23T09:29:39Z</time>
      </trkpt>
      <trkpt lat="45.47019" lon="3.29474">
        <ele>391.98602</ele>
        <time>2012-09-23T09:29:44Z</time>
      </trkpt>
      <trkpt lat="45.47029" lon="3.29498">
        <ele>390.59036</ele>
        <time>2012-09-23T09:29:49Z</time>
      </trkpt>
      <trkpt lat="45.47014" lon="3.2952">
        <ele>390.24725</ele>
        <time>2012-09-23T09:29:54Z</time>
      </trkpt>
      <trkpt lat="45.47" lon="3.29539">
        <ele>390.51358</ele>
        <time>2012-09-23T09:29:59Z</time>
      </trkpt>
      <trkpt lat="45.46983" lon="3.29562">
        <ele>391.65735</ele>
        <time>2012-09-23T09:30:04Z</time>
      </trkpt>
      <trkpt lat="45.46963" lon="3.2958">
        <ele>391.25244</ele>
        <time>2012-09-23T09:30:08Z</time>
      </trkpt>
      <trkpt lat="45.46951" lon="3.29608">
        <ele>391.34384</ele>
        <time>2012-09-23T09:30:12Z</time>
      </trkpt>
      <trkpt lat="45.46939" lon="3.29634">
        <ele>391.55792</ele>
        <time>2012-09-23T09:30:16Z</time>
      </trkpt>
      <trkpt lat="45.46926" lon="3.29654">
        <ele>391.20142</ele>
        <time>2012-09-23T09:30:20Z</time>
      </trkpt>
      <trkpt lat="45.46912" lon="3.29676">
        <ele>392.06598</ele>
        <time>2012-09-23T09:30:24Z</time>
      </trkpt>
      <trkpt lat="45.46899" lon="3.29694">
        <ele>392.15335</ele>
        <time>2012-09-23T09:30:27Z</time>
      </trkpt>
      <trkpt lat="45.46882" lon="3.29714">
        <ele>393.0492</ele>
        <time>2012-09-23T09:30:31Z</time>
      </trkpt>
      <trkpt lat="45.46864" lon="3.29729">
        <ele>393.07486</ele>
        <time>2012-09-23T09:30:35Z</time>
      </trkpt>
      <trkpt lat="45.46845" lon="3.29745">
        <ele>391.87085</ele>
        <time>2012-09-23T09:30:39Z</time>
      </trkpt>
      <trkpt lat="45.46825" lon="3.2976">
        <ele>391.8403</ele>
        <time>2012-09-23T09:30:43Z</time>
      </trkpt>
      <trkpt lat="45.46803" lon="3.29771">
        <ele>391.3814</ele>
        <time>2012-09-23T09:30:46Z</time>
      </trkpt>
      <trkpt lat="45.46782" lon="3.29779">
        <ele>391.38193</ele>
        <time>2012-09-23T09:30:51Z</time>
      </trkpt>
      <trkpt lat="45.46762" lon="3.29788">
        <ele>392.03323</ele>
        <time>2012-09-23T09:30:55Z</time>
      </trkpt>
      <trkpt lat="45.46745" lon="3.29795">
        <ele>392.42236</ele>
        <time>2012-09-23T09:30:58Z</time>
      </trkpt>
      <trkpt lat="45.46728" lon="3.29805">
        <ele>392.76947</ele>
        <time>2012-09-23T09:31:02Z</time>
      </trkpt>
      <trkpt lat="45.4671" lon="3.29816">
        <ele>394.2633</ele>
        <time>2012-09-23T09:31:06Z</time>
      </trkpt>
      <trkpt lat="45.46691" lon="3.29831">
        <ele>395.76758</ele>
        <time>2012-09-23T09:31:10Z</time>
      </trkpt>
      <trkpt lat="45.46683" lon="3.29858">
        <ele>396.03693</ele>
        <time>2012-09-23T09:31:14Z</time>
      </trkpt>
      <trkpt lat="45.46681" lon="3.29884">
        <ele>396.25046</ele>
        <time>2012-09-23T09:31:17Z</time>
      </trkpt>
      <trkpt lat="45.46679" lon="3.29913">
        <ele>396.0104</ele>
        <time>2012-09-23T09:31:21Z</time>
      </trkpt>
      <trkpt lat="45.46682" lon="3.29942">
        <ele>396.1251</ele>
        <time>2012-09-23T09:31:25Z</time>
      </trkpt>
      <trkpt lat="45.46684" lon="3.29972">
        <ele>395.70236</ele>
        <time>2012-09-23T09:31:29Z</time>
      </trkpt>
      <trkpt lat="45.46688" lon="3.29999">
        <ele>395.18542</ele>
        <time>2012-09-23T09:31:33Z</time>
      </trkpt>
      <trkpt lat="45.46688" lon="3.30028">
        <ele>394.92615</ele>
        <time>2012-09-23T09:31:37Z</time>
      </trkpt>
      <trkpt lat="45.46688" lon="3.30058">
        <ele>396.66238</ele>
        <time>2012-09-23T09:31:42Z</time>
      </trkpt>
      <trkpt lat="45.46689" lon="3.30084">
        <ele>397.29425</ele>
        <time>2012-09-23T09:31:46Z</time>
      </trkpt>
      <trkpt lat="45.46691" lon="3.30111">
        <ele>397.43793</ele>
        <time>2012-09-23T09:31:50Z</time>
      </trkpt>
      <trkpt lat="45.46697" lon="3.30138">
        <ele>397.865</ele>
        <time>2012-09-23T09:31:55Z</time>
      </trkpt>
      <trkpt lat="45.46702" lon="3.30167">
        <ele>398.12045</ele>
        <time>2012-09-23T09:31:59Z</time>
      </trkpt>
      <trkpt lat="45.46707" lon="3.30193">
        <ele>398.13803</ele>
        <time>2012-09-23T09:32:03Z</time>
      </trkpt>
      <trkpt lat="45.46712" lon="3.30221">
        <ele>397.03146</ele>
        <time>2012-09-23T09:32:07Z</time>
      </trkpt>
      <trkpt lat="45.46716" lon="3.30248">
        <ele>397.4993</ele>
        <time>2012-09-23T09:32:11Z</time>
      </trkpt>
      <trkpt lat="45.46721" lon="3.30275">
        <ele>397.9403</ele>
        <time>2012-09-23T09:32:15Z</time>
      </trkpt>
      <trkpt lat="45.46725" lon="3.30305">
        <ele>397.3443</ele>
        <time>2012-09-23T09:32:19Z</time>
      </trkpt>
      <trkpt lat="45.46729" lon="3.30332">
        <ele>396.25922</ele>
        <time>2012-09-23T09:32:23Z</time>
      </trkpt>
      <trkpt lat="45.46735" lon="3.3036">
        <ele>396.53156</ele>
        <time>2012-09-23T09:32:27Z</time>
      </trkpt>
      <trkpt lat="45.46739" lon="3.30386">
        <ele>397.2841</ele>
        <time>2012-09-23T09:32:31Z</time>
      </trkpt>
      <trkpt lat="45.46744" lon="3.30414">
        <ele>398.57025</ele>
        <time>2012-09-23T09:32:35Z</time>
      </trkpt>
      <trkpt lat="45.46752" lon="3.30441">
        <ele>399.14868</ele>
        <time>2012-09-23T09:32:39Z</time>
      </trkpt>
      <trkpt lat="45.46757" lon="3.30468">
        <ele>400.2868</ele>
        <time>2012-09-23T09:32:43Z</time>
      </trkpt>
      <trkpt lat="45.46764" lon="3.30497">
        <ele>400.6266</ele>
        <time>2012-09-23T09:32:48Z</time>
      </trkpt>
      <trkpt lat="45.46766" lon="3.30528">
        <ele>401.10715</ele>
        <time>2012-09-23T09:32:52Z</time>
      </trkpt>
      <trkpt lat="45.4677" lon="3.30554">
        <ele>400.87247</ele>
        <time>2012-09-23T09:32:56Z</time>
      </trkpt>
      <trkpt lat="45.46776" lon="3.30578">
        <ele>401.33182</ele>
        <time>2012-09-23T09:33:00Z</time>
      </trkpt>
      <trkpt lat="45.46781" lon="3.30604">
        <ele>401.86465</ele>
        <time>2012-09-23T09:33:04Z</time>
      </trkpt>
      <trkpt lat="45.46788" lon="3.30631">
        <ele>400.5442</ele>
        <time>2012-09-23T09:33:08Z</time>
      </trkpt>
      <trkpt lat="45.46794" lon="3.3066">
        <ele>401.1199</ele>
        <time>2012-09-23T09:33:13Z</time>
      </trkpt>
      <trkpt lat="45.46802" lon="3.30686">
        <ele>401.2238</ele>
        <time>2012-09-23T09:33:17Z</time>
      </trkpt>
      <trkpt lat="45.46807" lon="3.30714">
        <ele>401.32227</ele>
        <time>2012-09-23T09:33:21Z</time>
      </trkpt>
      <trkpt lat="45.46816" lon="3.30743">
        <ele>400.82034</ele>
        <time>2012-09-23T09:33:26Z</time>
      </trkpt>
      <trkpt lat="45.46825" lon="3.30772">
        <ele>402.47488</ele>
        <time>2012-09-23T09:33:31Z</time>
      </trkpt>
      <trkpt lat="45.46832" lon="3.30796">
        <ele>403.14352</ele>
        <time>2012-09-23T09:33:35Z</time>
      </trkpt>
      <trkpt lat="45.46843" lon="3.30822">
        <ele>404.7123</ele>
        <time>2012-09-23T09:33:40Z</time>
      </trkpt>
      <trkpt lat="45.46851" lon="3.30851">
        <ele>406.16296</ele>
        <time>2012-09-23T09:33:46Z</time>
      </trkpt>
      <trkpt lat="45.46852" lon="3.3088">
        <ele>406.03772</ele>
        <time>2012-09-23T09:33:52Z</time>
      </trkpt>
      <trkpt lat="45.46843" lon="3.30905">
        <ele>406.7584</ele>
        <time>2012-09-23T09:33:57Z</time>
      </trkpt>
      <trkpt lat="45.46836" lon="3.30933">
        <ele>408.20578</ele>
        <time>2012-09-23T09:34:02Z</time>
      </trkpt>
      <trkpt lat="45.46826" lon="3.30955">
        <ele>408.1353</ele>
        <time>2012-09-23T09:34:06Z</time>
      </trkpt>
      <trkpt lat="45.46811" lon="3.30978">
        <ele>407.7133</ele>
        <time>2012-09-23T09:34:11Z</time>
      </trkpt>
      <trkpt lat="45.46797" lon="3.31001">
        <ele>409.63498</ele>
        <time>2012-09-23T09:34:15Z</time>
      </trkpt>
      <trkpt lat="45.46781" lon="3.31022">
        <ele>410.9184</ele>
        <time>2012-09-23T09:34:20Z</time>
      </trkpt>
      <trkpt lat="45.46766" lon="3.31045">
        <ele>412.67374</ele>
        <time>2012-09-23T09:34:25Z</time>
      </trkpt>
      <trkpt lat="45.46759" lon="3.31073">
        <ele>413.1023</ele>
        <time>2012-09-23T09:34:30Z</time>
      </trkpt>
      <trkpt lat="45.46753" lon="3.31098">
        <ele>412.6018</ele>
        <time>2012-09-23T09:34:34Z</time>
      </trkpt>
      <trkpt lat="45.46748" lon="3.31125">
        <ele>412.178</ele>
        <time>2012-09-23T09:34:39Z</time>
      </trkpt>
      <trkpt lat="45.46739" lon="3.31151">
        <ele>413.0643</ele>
        <time>2012-09-23T09:34:45Z</time>
      </trkpt>
      <trkpt lat="45.46727" lon="3.31172">
        <ele>414.3242</ele>
        <time>2012-09-23T09:34:50Z</time>
      </trkpt>
      <trkpt lat="45.46712" lon="3.31193">
        <ele>416.12665</ele>
        <time>2012-09-23T09:34:55Z</time>
      </trkpt>
      <trkpt lat="45.467" lon="3.31217">
        <ele>417.73712</ele>
        <time>2012-09-23T09:35:00Z</time>
      </trkpt>
      <trkpt lat="45.46688" lon="3.31238">
        <ele>418.55356</ele>
        <time>2012-09-23T09:35:05Z</time>
      </trkpt>
      <trkpt lat="45.46675" lon="3.31257">
        <ele>420.07428</ele>
        <time>2012-09-23T09:35:09Z</time>
      </trkpt>
      <trkpt lat="45.46663" lon="3.31279">
        <ele>421.13864</ele>
        <time>2012-09-23T09:35:14Z</time>
      </trkpt>
      <trkpt lat="45.46656" lon="3.31304">
        <ele>423.15286</ele>
        <time>2012-09-23T09:35:18Z</time>
      </trkpt>
      <trkpt lat="45.46646" lon="3.31328">
        <ele>425.8406</ele>
        <time>2012-09-23T09:35:24Z</time>
      </trkpt>
      <trkpt lat="45.46632" lon="3.31399">
        <ele>423.759</ele>
        <time>2012-09-23T09:35:40Z</time>
      </trkpt>
      <trkpt lat="45.46629" lon="3.31426">
        <ele>425.38657</ele>
        <time>2012-09-23T09:35:47Z</time>
      </trkpt>
      <trkpt lat="45.46623" lon="3.31451">
        <ele>425.0203</ele>
        <time>2012-09-23T09:35:53Z</time>
      </trkpt>
      <trkpt lat="45.46616" lon="3.31477">
        <ele>425.17755</ele>
        <time>2012-09-23T09:35:59Z</time>
      </trkpt>
      <trkpt lat="45.46611" lon="3.31503">
        <ele>425.1655</ele>
        <time>2012-09-23T09:36:05Z</time>
      </trkpt>
      <trkpt lat="45.46605" lon="3.31528">
        <ele>424.29382</ele>
        <time>2012-09-23T09:36:11Z</time>
      </trkpt>
      <trkpt lat="45.46595" lon="3.31553">
        <ele>423.51312</ele>
        <time>2012-09-23T09:36:16Z</time>
      </trkpt>
      <trkpt lat="45.46595" lon="3.3158">
        <ele>424.52878</ele>
        <time>2012-09-23T09:36:23Z</time>
      </trkpt>
      <trkpt lat="45.46584" lon="3.31606">
        <ele>429.66583</ele>
        <time>2012-09-23T09:36:30Z</time>
      </trkpt>
      <trkpt lat="45.46586" lon="3.31633">
        <ele>433.6108</ele>
        <time>2012-09-23T09:36:36Z</time>
      </trkpt>
      <trkpt lat="45.46587" lon="3.31661">
        <ele>433.32532</ele>
        <time>2012-09-23T09:36:43Z</time>
      </trkpt>
      <trkpt lat="45.46574" lon="3.31684">
        <ele>433.78992</ele>
        <time>2012-09-23T09:36:50Z</time>
      </trkpt>
      <trkpt lat="45.46573" lon="3.3171">
        <ele>436.59525</ele>
        <time>2012-09-23T09:36:57Z</time>
      </trkpt>
      <trkpt lat="45.46577" lon="3.3174">
        <ele>438.26425</ele>
        <time>2012-09-23T09:37:03Z</time>
      </trkpt>
      <trkpt lat="45.46575" lon="3.31766">
        <ele>440.08194</ele>
        <time>2012-09-23T09:37:09Z</time>
      </trkpt>
      <trkpt lat="45.46582" lon="3.31791">
        <ele>440.73022</ele>
        <time>2012-09-23T09:37:14Z</time>
      </trkpt>
      <trkpt lat="45.46594" lon="3.31812">
        <ele>442.19247</ele>
        <time>2012-09-23T09:37:20Z</time>
      </trkpt>
      <trkpt lat="45.466" lon="3.31837">
        <ele>442.05713</ele>
        <time>2012-09-23T09:37:25Z</time>
      </trkpt>
      <trkpt lat="45.46608" lon="3.31866">
        <ele>441.53186</ele>
        <time>2012-09-23T09:37:32Z</time>
      </trkpt>
      <trkpt lat="45.46622" lon="3.31893">
        <ele>441.71072</ele>
        <time>2012-09-23T09:37:37Z</time>
      </trkpt>
      <trkpt lat="45.46637" lon="3.31909">
        <ele>442.7389</ele>
        <time>2012-09-23T09:37:42Z</time>
      </trkpt>
      <trkpt lat="45.46656" lon="3.31918">
        <ele>443.46152</ele>
        <time>2012-09-23T09:37:49Z</time>
      </trkpt>
      <trkpt lat="45.46674" lon="3.31932">
        <ele>442.51422</ele>
        <time>2012-09-23T09:37:55Z</time>
      </trkpt>
      <trkpt lat="45.46686" lon="3.31953">
        <ele>445.48572</ele>
        <time>2012-09-23T09:38:03Z</time>
      </trkpt>
      <trkpt lat="45.467" lon="3.31974">
        <ele>448.4918</ele>
        <time>2012-09-23T09:38:11Z</time>
      </trkpt>
      <trkpt lat="45.46717" lon="3.31988">
        <ele>448.67896</ele>
        <time>2012-09-23T09:38:18Z</time>
      </trkpt>
      <trkpt lat="45.46736" lon="3.31993">
        <ele>450.44678</ele>
        <time>2012-09-23T09:38:26Z</time>
      </trkpt>
      <trkpt lat="45.46753" lon="3.32004">
        <ele>453.29004</ele>
        <time>2012-09-23T09:38:34Z</time>
      </trkpt>
      <trkpt lat="45.46763" lon="3.32027">
        <ele>455.8611</ele>
        <time>2012-09-23T09:38:43Z</time>
      </trkpt>
      <trkpt lat="45.46772" lon="3.3205">
        <ele>456.89777</ele>
        <time>2012-09-23T09:38:51Z</time>
      </trkpt>
      <trkpt lat="45.46779" lon="3.32074">
        <ele>459.0372</ele>
        <time>2012-09-23T09:39:01Z</time>
      </trkpt>
      <trkpt lat="45.46784" lon="3.32103">
        <ele>462.6833</ele>
        <time>2012-09-23T09:39:12Z</time>
      </trkpt>
      <trkpt lat="45.46786" lon="3.32131">
        <ele>463.8369</ele>
        <time>2012-09-23T09:39:22Z</time>
      </trkpt>
      <trkpt lat="45.46788" lon="3.32159">
        <ele>463.89743</ele>
        <time>2012-09-23T09:39:29Z</time>
      </trkpt>
      <trkpt lat="45.46791" lon="3.32185">
        <ele>465.57477</ele>
        <time>2012-09-23T09:39:35Z</time>
      </trkpt>
      <trkpt lat="45.46792" lon="3.32213">
        <ele>466.47015</ele>
        <time>2012-09-23T09:39:41Z</time>
      </trkpt>
      <trkpt lat="45.46785" lon="3.32241">
        <ele>465.90817</ele>
        <time>2012-09-23T09:39:46Z</time>
      </trkpt>
      <trkpt lat="45.4678" lon="3.32266">
        <ele>466.0142</ele>
        <time>2012-09-23T09:39:50Z</time>
      </trkpt>
      <trkpt lat="45.46772" lon="3.32292">
        <ele>465.32822</ele>
        <time>2012-09-23T09:39:54Z</time>
      </trkpt>
      <trkpt lat="45.46764" lon="3.32315">
        <ele>466.01697</ele>
        <time>2012-09-23T09:39:59Z</time>
      </trkpt>
      <trkpt lat="45.46754" lon="3.32341">
        <ele>468.36697</ele>
        <time>2012-09-23T09:40:06Z</time>
      </trkpt>
      <trkpt lat="45.46743" lon="3.32364">
        <ele>471.29303</ele>
        <time>2012-09-23T09:40:15Z</time>
      </trkpt>
      <trkpt lat="45.46761" lon="3.32359">
        <ele>476.49887</ele>
        <time>2012-09-23T09:40:36Z</time>
      </trkpt>
      <trkpt lat="45.46778" lon="3.32348">
        <ele>479.80994</ele>
        <time>2012-09-23T09:40:47Z</time>
      </trkpt>
      <trkpt lat="45.46796" lon="3.32339">
        <ele>482.06052</ele>
        <time>2012-09-23T09:40:58Z</time>
      </trkpt>
      <trkpt lat="45.46811" lon="3.32323">
        <ele>485.1357</ele>
        <time>2012-09-23T09:41:09Z</time>
      </trkpt>
      <trkpt lat="45.46828" lon="3.32313">
        <ele>487.04257</ele>
        <time>2012-09-23T09:41:19Z</time>
      </trkpt>
      <trkpt lat="45.46847" lon="3.32313">
        <ele>490.61554</ele>
        <time>2012-09-23T09:41:29Z</time>
      </trkpt>
      <trkpt lat="45.46866" lon="3.32312">
        <ele>493.28842</ele>
        <time>2012-09-23T09:41:39Z</time>
      </trkpt>
      <trkpt lat="45.46884" lon="3.32312">
        <ele>496.1926</ele>
        <time>2012-09-23T09:41:51Z</time>
      </trkpt>
      <trkpt lat="45.46903" lon="3.32306">
        <ele>498.52652</ele>
        <time>2012-09-23T09:42:04Z</time>
      </trkpt>
      <trkpt lat="45.4692" lon="3.32292">
        <ele>500.21393</ele>
        <time>2012-09-23T09:42:16Z</time>
      </trkpt>
      <trkpt lat="45.46939" lon="3.32289">
        <ele>502.76987</ele>
        <time>2012-09-23T09:42:25Z</time>
      </trkpt>
      <trkpt lat="45.46957" lon="3.32296">
        <ele>505.88107</ele>
        <time>2012-09-23T09:42:35Z</time>
      </trkpt>
      <trkpt lat="45.46976" lon="3.32301">
        <ele>508.61234</ele>
        <time>2012-09-23T09:42:46Z</time>
      </trkpt>
      <trkpt lat="45.46996" lon="3.32305">
        <ele>508.95483</ele>
        <time>2012-09-23T09:42:57Z</time>
      </trkpt>
      <trkpt lat="45.47014" lon="3.32308">
        <ele>507.51212</ele>
        <time>2012-09-23T09:43:07Z</time>
      </trkpt>
      <trkpt lat="45.47034" lon="3.32311">
        <ele>505.24722</ele>
        <time>2012-09-23T09:43:14Z</time>
      </trkpt>
      <trkpt lat="45.47053" lon="3.32317">
        <ele>505.08997</ele>
        <time>2012-09-23T09:43:19Z</time>
      </trkpt>
      <trkpt lat="45.47074" lon="3.3232">
        <ele>505.28094</ele>
        <time>2012-09-23T09:43:24Z</time>
      </trkpt>
      <trkpt lat="45.47094" lon="3.3232">
        <ele>505.22824</ele>
        <time>2012-09-23T09:43:28Z</time>
      </trkpt>
      <trkpt lat="45.47112" lon="3.32317">
        <ele>505.17496</ele>
        <time>2012-09-23T09:43:31Z</time>
      </trkpt>
      <trkpt lat="45.47131" lon="3.32312">
        <ele>504.854</ele>
        <time>2012-09-23T09:43:34Z</time>
      </trkpt>
      <trkpt lat="45.47154" lon="3.32306">
        <ele>504.09048</ele>
        <time>2012-09-23T09:43:37Z</time>
      </trkpt>
      <trkpt lat="45.47179" lon="3.32298">
        <ele>502.76837</ele>
        <time>2012-09-23T09:43:40Z</time>
      </trkpt>
      <trkpt lat="45.47206" lon="3.32291">
        <ele>501.37155</ele>
        <time>2012-09-23T09:43:43Z</time>
      </trkpt>
      <trkpt lat="45.47223" lon="3.32285">
        <ele>500.88794</ele>
        <time>2012-09-23T09:43:45Z</time>
      </trkpt>
      <trkpt lat="45.47242" lon="3.3228">
        <ele>500.19714</ele>
        <time>2012-09-23T09:43:47Z</time>
      </trkpt>
      <trkpt lat="45.47261" lon="3.32274">
        <ele>499.43982</ele>
        <time>2012-09-23T09:43:49Z</time>
      </trkpt>
      <trkpt lat="45.47281" lon="3.32268">
        <ele>498.73883</ele>
        <time>2012-09-23T09:43:51Z</time>
      </trkpt>
      <trkpt lat="45.47301" lon="3.32262">
        <ele>498.22577</ele>
        <time>2012-09-23T09:43:53Z</time>
      </trkpt>
      <trkpt lat="45.47322" lon="3.32255">
        <ele>497.9747</ele>
        <time>2012-09-23T09:43:55Z</time>
      </trkpt>
      <trkpt lat="45.47343" lon="3.32246">
        <ele>496.9772</ele>
        <time>2012-09-23T09:43:57Z</time>
      </trkpt>
      <trkpt lat="45.47365" lon="3.32239">
        <ele>495.68484</ele>
        <time>2012-09-23T09:43:59Z</time>
      </trkpt>
      <trkpt lat="45.47387" lon="3.32231">
        <ele>494.45166</ele>
        <time>2012-09-23T09:44:01Z</time>
      </trkpt>
      <trkpt lat="45.47408" lon="3.32219">
        <ele>493.233</ele>
        <time>2012-09-23T09:44:03Z</time>
      </trkpt>
      <trkpt lat="45.47428" lon="3.32204">
        <ele>492.16626</ele>
        <time>2012-09-23T09:44:05Z</time>
      </trkpt>
      <trkpt lat="45.47448" lon="3.32188">
        <ele>491.69745</ele>
        <time>2012-09-23T09:44:07Z</time>
      </trkpt>
      <trkpt lat="45.47467" lon="3.32175">
        <ele>491.39</ele>
        <time>2012-09-23T09:44:09Z</time>
      </trkpt>
      <trkpt lat="45.47486" lon="3.32163">
        <ele>490.16818</ele>
        <time>2012-09-23T09:44:12Z</time>
      </trkpt>
      <trkpt lat="45.47505" lon="3.32159">
        <ele>488.8921</ele>
        <time>2012-09-23T09:44:17Z</time>
      </trkpt>
      <trkpt lat="45.47525" lon="3.32148">
        <ele>488.33005</ele>
        <time>2012-09-23T09:44:22Z</time>
      </trkpt>
      <trkpt lat="45.47543" lon="3.32141">
        <ele>487.94144</ele>
        <time>2012-09-23T09:44:27Z</time>
      </trkpt>
      <trkpt lat="45.47564" lon="3.32131">
        <ele>486.75323</ele>
        <time>2012-09-23T09:44:31Z</time>
      </trkpt>
      <trkpt lat="45.47584" lon="3.32122">
        <ele>485.85266</ele>
        <time>2012-09-23T09:44:34Z</time>
      </trkpt>
      <trkpt lat="45.47605" lon="3.32113">
        <ele>484.3196</ele>
        <time>2012-09-23T09:44:37Z</time>
      </trkpt>
      <trkpt lat="45.47627" lon="3.3211">
        <ele>483.301</ele>
        <time>2012-09-23T09:44:40Z</time>
      </trkpt>
      <trkpt lat="45.47653" lon="3.32106">
        <ele>482.3181</ele>
        <time>2012-09-23T09:44:43Z</time>
      </trkpt>
      <trkpt lat="45.47678" lon="3.32102">
        <ele>481.3941</ele>
        <time>2012-09-23T09:44:46Z</time>
      </trkpt>
      <trkpt lat="45.47697" lon="3.32098">
        <ele>480.6256</ele>
        <time>2012-09-23T09:44:48Z</time>
      </trkpt>
      <trkpt lat="45.47717" lon="3.32095">
        <ele>480.1746</ele>
        <time>2012-09-23T09:44:50Z</time>
      </trkpt>
      <trkpt lat="45.47736" lon="3.32092">
        <ele>479.4834</ele>
        <time>2012-09-23T09:44:52Z</time>
      </trkpt>
      <trkpt lat="45.47756" lon="3.32081">
        <ele>477.7001</ele>
        <time>2012-09-23T09:44:56Z</time>
      </trkpt>
      <trkpt lat="45.47758" lon="3.32055">
        <ele>476.6537</ele>
        <time>2012-09-23T09:44:59Z</time>
      </trkpt>
      <trkpt lat="45.47759" lon="3.32021">
        <ele>475.60947</ele>
        <time>2012-09-23T09:45:03Z</time>
      </trkpt>
      <trkpt lat="45.47759" lon="3.31994">
        <ele>475.14203</ele>
        <time>2012-09-23T09:45:06Z</time>
      </trkpt>
      <trkpt lat="45.47759" lon="3.31959">
        <ele>475.4882</ele>
        <time>2012-09-23T09:45:10Z</time>
      </trkpt>
      <trkpt lat="45.4776" lon="3.31926">
        <ele>475.51962</ele>
        <time>2012-09-23T09:45:14Z</time>
      </trkpt>
      <trkpt lat="45.4776" lon="3.319">
        <ele>474.92285</ele>
        <time>2012-09-23T09:45:17Z</time>
      </trkpt>
      <trkpt lat="45.47761" lon="3.31874">
        <ele>474.24298</ele>
        <time>2012-09-23T09:45:20Z</time>
      </trkpt>
      <trkpt lat="45.47761" lon="3.31842">
        <ele>473.4846</ele>
        <time>2012-09-23T09:45:24Z</time>
      </trkpt>
      <trkpt lat="45.47762" lon="3.31812">
        <ele>472.93567</ele>
        <time>2012-09-23T09:45:28Z</time>
      </trkpt>
      <trkpt lat="45.47762" lon="3.31781">
        <ele>472.04205</ele>
        <time>2012-09-23T09:45:32Z</time>
      </trkpt>
      <trkpt lat="45.47763" lon="3.31751">
        <ele>472.23315</ele>
        <time>2012-09-23T09:45:36Z</time>
      </trkpt>
      <trkpt lat="45.47764" lon="3.3172">
        <ele>472.5545</ele>
        <time>2012-09-23T09:45:40Z</time>
      </trkpt>
      <trkpt lat="45.47765" lon="3.31687">
        <ele>472.2726</ele>
        <time>2012-09-23T09:45:44Z</time>
      </trkpt>
      <trkpt lat="45.47765" lon="3.31661">
        <ele>472.50302</ele>
        <time>2012-09-23T09:45:47Z</time>
      </trkpt>
      <trkpt lat="45.47769" lon="3.31631">
        <ele>472.81415</ele>
        <time>2012-09-23T09:45:51Z</time>
      </trkpt>
      <trkpt lat="45.47775" lon="3.31606">
        <ele>472.869</ele>
        <time>2012-09-23T09:45:54Z</time>
      </trkpt>
      <trkpt lat="45.47782" lon="3.31579">
        <ele>473.1343</ele>
        <time>2012-09-23T09:45:57Z</time>
      </trkpt>
      <trkpt lat="45.47788" lon="3.31552">
        <ele>472.9806</ele>
        <time>2012-09-23T09:46:00Z</time>
      </trkpt>
      <trkpt lat="45.47798" lon="3.31526">
        <ele>472.60016</ele>
        <time>2012-09-23T09:46:03Z</time>
      </trkpt>
      <trkpt lat="45.47811" lon="3.31502">
        <ele>472.6162</ele>
        <time>2012-09-23T09:46:06Z</time>
      </trkpt>
      <trkpt lat="45.47825" lon="3.31478">
        <ele>472.16046</ele>
        <time>2012-09-23T09:46:09Z</time>
      </trkpt>
      <trkpt lat="45.4784" lon="3.31456">
        <ele>472.1323</ele>
        <time>2012-09-23T09:46:12Z</time>
      </trkpt>
      <trkpt lat="45.47855" lon="3.31433">
        <ele>471.67508</ele>
        <time>2012-09-23T09:46:15Z</time>
      </trkpt>
      <trkpt lat="45.47871" lon="3.31411">
        <ele>471.30875</ele>
        <time>2012-09-23T09:46:18Z</time>
      </trkpt>
      <trkpt lat="45.47889" lon="3.31391">
        <ele>470.64328</ele>
        <time>2012-09-23T09:46:21Z</time>
      </trkpt>
      <trkpt lat="45.47908" lon="3.31372">
        <ele>470.21722</ele>
        <time>2012-09-23T09:46:24Z</time>
      </trkpt>
      <trkpt lat="45.47925" lon="3.31355">
        <ele>469.84998</ele>
        <time>2012-09-23T09:46:27Z</time>
      </trkpt>
      <trkpt lat="45.47941" lon="3.31333">
        <ele>468.53876</ele>
        <time>2012-09-23T09:46:31Z</time>
      </trkpt>
      <trkpt lat="45.47952" lon="3.31312">
        <ele>467.61072</ele>
        <time>2012-09-23T09:46:39Z</time>
      </trkpt>
      <trkpt lat="45.47968" lon="3.31335">
        <ele>467.97763</ele>
        <time>2012-09-23T09:46:52Z</time>
      </trkpt>
      <trkpt lat="45.47986" lon="3.3135">
        <ele>467.86978</ele>
        <time>2012-09-23T09:46:56Z</time>
      </trkpt>
      <trkpt lat="45.48002" lon="3.31374">
        <ele>466.98956</ele>
        <time>2012-09-23T09:47:00Z</time>
      </trkpt>
      <trkpt lat="45.48023" lon="3.31384">
        <ele>464.79895</ele>
        <time>2012-09-23T09:47:04Z</time>
      </trkpt>
      <trkpt lat="45.48044" lon="3.31385">
        <ele>462.75854</ele>
        <time>2012-09-23T09:47:08Z</time>
      </trkpt>
      <trkpt lat="45.48062" lon="3.3138">
        <ele>461.0358</ele>
        <time>2012-09-23T09:47:15Z</time>
      </trkpt>
      <trkpt lat="45.48059" lon="3.3135">
        <ele>459.99387</ele>
        <time>2012-09-23T09:47:21Z</time>
      </trkpt>
      <trkpt lat="45.48053" lon="3.31323">
        <ele>460.49966</ele>
        <time>2012-09-23T09:47:26Z</time>
      </trkpt>
      <trkpt lat="45.48047" lon="3.31298">
        <ele>461.02948</ele>
        <time>2012-09-23T09:47:30Z</time>
      </trkpt>
      <trkpt lat="45.48039" lon="3.31269">
        <ele>460.4866</ele>
        <time>2012-09-23T09:47:35Z</time>
      </trkpt>
      <trkpt lat="45.48033" lon="3.31245">
        <ele>460.75348</ele>
        <time>2012-09-23T09:47:39Z</time>
      </trkpt>
      <trkpt lat="45.48027" lon="3.31219">
        <ele>461.0391</ele>
        <time>2012-09-23T09:47:43Z</time>
      </trkpt>
      <trkpt lat="45.48021" lon="3.31194">
        <ele>461.00446</ele>
        <time>2012-09-23T09:47:47Z</time>
      </trkpt>
      <trkpt lat="45.48019" lon="3.31167">
        <ele>460.91888</ele>
        <time>2012-09-23T09:47:51Z</time>
      </trkpt>
      <trkpt lat="45.48024" lon="3.31141">
        <ele>461.10196</ele>
        <time>2012-09-23T09:47:55Z</time>
      </trkpt>
      <trkpt lat="45.48033" lon="3.31116">
        <ele>461.47476</ele>
        <time>2012-09-23T09:47:59Z</time>
      </trkpt>
      <trkpt lat="45.48044" lon="3.31092">
        <ele>461.88995</ele>
        <time>2012-09-23T09:48:03Z</time>
      </trkpt>
      <trkpt lat="45.48055" lon="3.31066">
        <ele>461.39398</ele>
        <time>2012-09-23T09:48:07Z</time>
      </trkpt>
      <trkpt lat="45.48063" lon="3.31042">
        <ele>461.24448</ele>
        <time>2012-09-23T09:48:11Z</time>
      </trkpt>
      <trkpt lat="45.48072" lon="3.31017">
        <ele>462.09015</ele>
        <time>2012-09-23T09:48:15Z</time>
      </trkpt>
      <trkpt lat="45.4808" lon="3.30992">
        <ele>462.44403</ele>
        <time>2012-09-23T09:48:19Z</time>
      </trkpt>
      <trkpt lat="45.48089" lon="3.30968">
        <ele>462.90173</ele>
        <time>2012-09-23T09:48:23Z</time>
      </trkpt>
      <trkpt lat="45.48099" lon="3.30943">
        <ele>463.59732</ele>
        <time>2012-09-23T09:48:27Z</time>
      </trkpt>
      <trkpt lat="45.48109" lon="3.30921">
        <ele>463.73657</ele>
        <time>2012-09-23T09:48:31Z</time>
      </trkpt>
      <trkpt lat="45.48121" lon="3.30896">
        <ele>464.61935</ele>
        <time>2012-09-23T09:48:36Z</time>
      </trkpt>
      <trkpt lat="45.48133" lon="3.30871">
        <ele>465.28275</ele>
        <time>2012-09-23T09:48:41Z</time>
      </trkpt>
      <trkpt lat="45.48146" lon="3.30846">
        <ele>465.7227</ele>
        <time>2012-09-23T09:48:46Z</time>
      </trkpt>
      <trkpt lat="45.48158" lon="3.3082">
        <ele>466.1055</ele>
        <time>2012-09-23T09:48:51Z</time>
      </trkpt>
      <trkpt lat="45.4817" lon="3.30798">
        <ele>465.63602</ele>
        <time>2012-09-23T09:48:55Z</time>
      </trkpt>
      <trkpt lat="45.48189" lon="3.30797">
        <ele>466.0031</ele>
        <time>2012-09-23T09:48:59Z</time>
      </trkpt>
      <trkpt lat="45.48212" lon="3.30806">
        <ele>466.2341</ele>
        <time>2012-09-23T09:49:03Z</time>
      </trkpt>
      <trkpt lat="45.4823" lon="3.30812">
        <ele>466.2774</ele>
        <time>2012-09-23T09:49:06Z</time>
      </trkpt>
      <trkpt lat="45.48248" lon="3.30817">
        <ele>466.2988</ele>
        <time>2012-09-23T09:49:09Z</time>
      </trkpt>
      <trkpt lat="45.48265" lon="3.30821">
        <ele>467.2125</ele>
        <time>2012-09-23T09:49:12Z</time>
      </trkpt>
      <trkpt lat="45.48284" lon="3.30827">
        <ele>466.92142</ele>
        <time>2012-09-23T09:49:15Z</time>
      </trkpt>
      <trkpt lat="45.48302" lon="3.30833">
        <ele>467.0361</ele>
        <time>2012-09-23T09:49:18Z</time>
      </trkpt>
      <trkpt lat="45.4832" lon="3.30838">
        <ele>466.72668</ele>
        <time>2012-09-23T09:49:21Z</time>
      </trkpt>
      <trkpt lat="45.48339" lon="3.30843">
        <ele>466.0602</ele>
        <time>2012-09-23T09:49:24Z</time>
      </trkpt>
      <trkpt lat="45.4836" lon="3.30849">
        <ele>465.55875</ele>
        <time>2012-09-23T09:49:27Z</time>
      </trkpt>
      <trkpt lat="45.48381" lon="3.30854">
        <ele>464.555</ele>
        <time>2012-09-23T09:49:30Z</time>
      </trkpt>
      <trkpt lat="45.48404" lon="3.3086">
        <ele>463.73935</ele>
        <time>2012-09-23T09:49:33Z</time>
      </trkpt>
      <trkpt lat="45.48426" lon="3.30863">
        <ele>463.57962</ele>
        <time>2012-09-23T09:49:36Z</time>
      </trkpt>
      <trkpt lat="45.48446" lon="3.30869">
        <ele>463.49036</ele>
        <time>2012-09-23T09:49:39Z</time>
      </trkpt>
      <trkpt lat="45.48465" lon="3.30877">
        <ele>463.60583</ele>
        <time>2012-09-23T09:49:42Z</time>
      </trkpt>
      <trkpt lat="45.48484" lon="3.30878">
        <ele>463.64047</ele>
        <time>2012-09-23T09:49:45Z</time>
      </trkpt>
      <trkpt lat="45.48501" lon="3.30883">
        <ele>462.73007</ele>
        <time>2012-09-23T09:49:48Z</time>
      </trkpt>
      <trkpt lat="45.48519" lon="3.3089">
        <ele>461.52582</ele>
        <time>2012-09-23T09:49:52Z</time>
      </trkpt>
      <trkpt lat="45.4854" lon="3.30896">
        <ele>460.46082</ele>
        <time>2012-09-23T09:49:56Z</time>
      </trkpt>
      <trkpt lat="45.48559" lon="3.30904">
        <ele>460.03204</ele>
        <time>2012-09-23T09:50:00Z</time>
      </trkpt>
      <trkpt lat="45.48579" lon="3.30911">
        <ele>459.8581</ele>
        <time>2012-09-23T09:50:04Z</time>
      </trkpt>
      <trkpt lat="45.48598" lon="3.30916">
        <ele>459.9042</ele>
        <time>2012-09-23T09:50:08Z</time>
      </trkpt>
      <trkpt lat="45.48622" lon="3.30922">
        <ele>459.5109</ele>
        <time>2012-09-23T09:50:13Z</time>
      </trkpt>
      <trkpt lat="45.48643" lon="3.30931">
        <ele>459.10608</ele>
        <time>2012-09-23T09:50:17Z</time>
      </trkpt>
      <trkpt lat="45.48661" lon="3.30937">
        <ele>458.97028</ele>
        <time>2012-09-23T09:50:20Z</time>
      </trkpt>
      <trkpt lat="45.4868" lon="3.30942">
        <ele>459.33487</ele>
        <time>2012-09-23T09:50:23Z</time>
      </trkpt>
      <trkpt lat="45.48698" lon="3.30946">
        <ele>459.73242</ele>
        <time>2012-09-23T09:50:26Z</time>
      </trkpt>
      <trkpt lat="45.4872" lon="3.30948">
        <ele>459.40167</ele>
        <time>2012-09-23T09:50:29Z</time>
      </trkpt>
      <trkpt lat="45.48742" lon="3.30951">
        <ele>459.01685</ele>
        <time>2012-09-23T09:50:32Z</time>
      </trkpt>
      <trkpt lat="45.48764" lon="3.30952">
        <ele>459.00452</ele>
        <time>2012-09-23T09:50:35Z</time>
      </trkpt>
      <trkpt lat="45.48785" lon="3.30953">
        <ele>458.4618</ele>
        <time>2012-09-23T09:50:38Z</time>
      </trkpt>
      <trkpt lat="45.48809" lon="3.30956">
        <ele>457.20938</ele>
        <time>2012-09-23T09:50:41Z</time>
      </trkpt>
      <trkpt lat="45.48832" lon="3.30957">
        <ele>455.89978</ele>
        <time>2012-09-23T09:50:44Z</time>
      </trkpt>
      <trkpt lat="45.48854" lon="3.30956">
        <ele>454.27542</ele>
        <time>2012-09-23T09:50:47Z</time>
      </trkpt>
      <trkpt lat="45.48875" lon="3.30956">
        <ele>452.97452</ele>
        <time>2012-09-23T09:50:50Z</time>
      </trkpt>
      <trkpt lat="45.48896" lon="3.3096">
        <ele>451.86163</ele>
        <time>2012-09-23T09:50:53Z</time>
      </trkpt>
      <trkpt lat="45.48918" lon="3.30963">
        <ele>450.59213</ele>
        <time>2012-09-23T09:50:56Z</time>
      </trkpt>
      <trkpt lat="45.48938" lon="3.3097">
        <ele>449.7816</ele>
        <time>2012-09-23T09:50:59Z</time>
      </trkpt>
      <trkpt lat="45.48959" lon="3.30975">
        <ele>449.51773</ele>
        <time>2012-09-23T09:51:02Z</time>
      </trkpt>
      <trkpt lat="45.48978" lon="3.30982">
        <ele>449.02206</ele>
        <time>2012-09-23T09:51:05Z</time>
      </trkpt>
      <trkpt lat="45.48998" lon="3.30987">
        <ele>448.72858</ele>
        <time>2012-09-23T09:51:08Z</time>
      </trkpt>
      <trkpt lat="45.49019" lon="3.30992">
        <ele>447.90164</ele>
        <time>2012-09-23T09:51:11Z</time>
      </trkpt>
      <trkpt lat="45.49042" lon="3.30997">
        <ele>446.46527</ele>
        <time>2012-09-23T09:51:14Z</time>
      </trkpt>
      <trkpt lat="45.49061" lon="3.31001">
        <ele>445.2593</ele>
        <time>2012-09-23T09:51:17Z</time>
      </trkpt>
      <trkpt lat="45.49071" lon="3.31024">
        <ele>444.27884</ele>
        <time>2012-09-23T09:51:21Z</time>
      </trkpt>
      <trkpt lat="45.49071" lon="3.3105">
        <ele>444.20688</ele>
        <time>2012-09-23T09:51:25Z</time>
      </trkpt>
      <trkpt lat="45.4907" lon="3.3108">
        <ele>442.82474</ele>
        <time>2012-09-23T09:51:29Z</time>
      </trkpt>
      <trkpt lat="45.4907" lon="3.31107">
        <ele>440.7218</ele>
        <time>2012-09-23T09:51:34Z</time>
      </trkpt>
      <trkpt lat="45.49067" lon="3.31136">
        <ele>438.9229</ele>
        <time>2012-09-23T09:51:40Z</time>
      </trkpt>
      <trkpt lat="45.49058" lon="3.31166">
        <ele>436.68723</ele>
        <time>2012-09-23T09:51:45Z</time>
      </trkpt>
      <trkpt lat="45.4905" lon="3.31193">
        <ele>435.5545</ele>
        <time>2012-09-23T09:51:48Z</time>
      </trkpt>
      <trkpt lat="45.49042" lon="3.31221">
        <ele>433.56726</ele>
        <time>2012-09-23T09:51:51Z</time>
      </trkpt>
      <trkpt lat="45.49037" lon="3.3125">
        <ele>431.88837</ele>
        <time>2012-09-23T09:51:55Z</time>
      </trkpt>
      <trkpt lat="45.4904" lon="3.31282">
        <ele>431.07944</ele>
        <time>2012-09-23T09:51:59Z</time>
      </trkpt>
      <trkpt lat="45.49041" lon="3.3131">
        <ele>430.18207</ele>
        <time>2012-09-23T09:52:03Z</time>
      </trkpt>
      <trkpt lat="45.49045" lon="3.31335">
        <ele>429.86014</ele>
        <time>2012-09-23T09:52:06Z</time>
      </trkpt>
      <trkpt lat="45.49048" lon="3.31367">
        <ele>429.9987</ele>
        <time>2012-09-23T09:52:11Z</time>
      </trkpt>
      <trkpt lat="45.49049" lon="3.31394">
        <ele>429.7526</ele>
        <time>2012-09-23T09:52:15Z</time>
      </trkpt>
      <trkpt lat="45.49054" lon="3.31425">
        <ele>430.2982</ele>
        <time>2012-09-23T09:52:19Z</time>
      </trkpt>
      <trkpt lat="45.49058" lon="3.31453">
        <ele>431.3251</ele>
        <time>2012-09-23T09:52:23Z</time>
      </trkpt>
      <trkpt lat="45.49056" lon="3.3148">
        <ele>431.7383</ele>
        <time>2012-09-23T09:52:27Z</time>
      </trkpt>
      <trkpt lat="45.49058" lon="3.31513">
        <ele>431.03897</ele>
        <time>2012-09-23T09:52:31Z</time>
      </trkpt>
      <trkpt lat="45.49058" lon="3.31544">
        <ele>428.82947</ele>
        <time>2012-09-23T09:52:34Z</time>
      </trkpt>
      <trkpt lat="45.49056" lon="3.31571">
        <ele>427.28812</ele>
        <time>2012-09-23T09:52:38Z</time>
      </trkpt>
      <trkpt lat="45.49075" lon="3.31576">
        <ele>425.21616</ele>
        <time>2012-09-23T09:52:43Z</time>
      </trkpt>
      <trkpt lat="45.49095" lon="3.31588">
        <ele>423.85104</ele>
        <time>2012-09-23T09:52:48Z</time>
      </trkpt>
      <trkpt lat="45.49114" lon="3.31605">
        <ele>422.934</ele>
        <time>2012-09-23T09:52:53Z</time>
      </trkpt>
      <trkpt lat="45.49131" lon="3.31589">
        <ele>421.1462</ele>
        <time>2012-09-23T09:52:59Z</time>
      </trkpt>
      <trkpt lat="45.49145" lon="3.31566">
        <ele>421.15793</ele>
        <time>2012-09-23T09:53:05Z</time>
      </trkpt>
      <trkpt lat="45.49156" lon="3.31544">
        <ele>420.5923</ele>
        <time>2012-09-23T09:53:11Z</time>
      </trkpt>
      <trkpt lat="45.49167" lon="3.31521">
        <ele>420.2295</ele>
        <time>2012-09-23T09:53:15Z</time>
      </trkpt>
      <trkpt lat="45.49184" lon="3.31506">
        <ele>420.09576</ele>
        <time>2012-09-23T09:53:18Z</time>
      </trkpt>
      <trkpt lat="45.492" lon="3.31491">
        <ele>418.92905</ele>
        <time>2012-09-23T09:53:22Z</time>
      </trkpt>
      <trkpt lat="45.49218" lon="3.31469">
        <ele>418.05908</ele>
        <time>2012-09-23T09:53:26Z</time>
      </trkpt>
      <trkpt lat="45.49235" lon="3.31445">
        <ele>417.27914</ele>
        <time>2012-09-23T09:53:30Z</time>
      </trkpt>
      <trkpt lat="45.49251" lon="3.31425">
        <ele>415.85034</ele>
        <time>2012-09-23T09:53:34Z</time>
      </trkpt>
      <trkpt lat="45.4927" lon="3.31409">
        <ele>414.9889</ele>
        <time>2012-09-23T09:53:38Z</time>
      </trkpt>
      <trkpt lat="45.49281" lon="3.31389">
        <ele>414.91458</ele>
        <time>2012-09-23T09:53:41Z</time>
      </trkpt>
      <trkpt lat="45.49293" lon="3.3136">
        <ele>415.35135</ele>
        <time>2012-09-23T09:53:46Z</time>
      </trkpt>
      <trkpt lat="45.49306" lon="3.31337">
        <ele>415.83487</ele>
        <time>2012-09-23T09:53:51Z</time>
      </trkpt>
      <trkpt lat="45.49322" lon="3.31313">
        <ele>416.29922</ele>
        <time>2012-09-23T09:53:55Z</time>
      </trkpt>
      <trkpt lat="45.49335" lon="3.31294">
        <ele>415.5783</ele>
        <time>2012-09-23T09:53:57Z</time>
      </trkpt>
      <trkpt lat="45.49346" lon="3.3127">
        <ele>415.99695</ele>
        <time>2012-09-23T09:54:01Z</time>
      </trkpt>
      <trkpt lat="45.49363" lon="3.31248">
        <ele>415.59073</ele>
        <time>2012-09-23T09:54:06Z</time>
      </trkpt>
      <trkpt lat="45.4938" lon="3.31231">
        <ele>415.38446</ele>
        <time>2012-09-23T09:54:10Z</time>
      </trkpt>
      <trkpt lat="45.49395" lon="3.31208">
        <ele>415.15396</ele>
        <time>2012-09-23T09:54:14Z</time>
      </trkpt>
      <trkpt lat="45.49404" lon="3.3118">
        <ele>415.17245</ele>
        <time>2012-09-23T09:54:18Z</time>
      </trkpt>
      <trkpt lat="45.49411" lon="3.31156">
        <ele>415.6951</ele>
        <time>2012-09-23T09:54:22Z</time>
      </trkpt>
      <trkpt lat="45.49419" lon="3.31128">
        <ele>416.3671</ele>
        <time>2012-09-23T09:54:25Z</time>
      </trkpt>
      <trkpt lat="45.49429" lon="3.31102">
        <ele>416.34964</ele>
        <time>2012-09-23T09:54:30Z</time>
      </trkpt>
      <trkpt lat="45.49438" lon="3.31074">
        <ele>415.93436</ele>
        <time>2012-09-23T09:54:34Z</time>
      </trkpt>
      <trkpt lat="45.49449" lon="3.31053">
        <ele>415.25336</ele>
        <time>2012-09-23T09:54:38Z</time>
      </trkpt>
      <trkpt lat="45.49462" lon="3.31031">
        <ele>414.97266</ele>
        <time>2012-09-23T09:54:42Z</time>
      </trkpt>
      <trkpt lat="45.4948" lon="3.31009">
        <ele>415.151</ele>
        <time>2012-09-23T09:54:46Z</time>
      </trkpt>
      <trkpt lat="45.49501" lon="3.30988">
        <ele>415.14142</ele>
        <time>2012-09-23T09:54:50Z</time>
      </trkpt>
      <trkpt lat="45.49521" lon="3.30973">
        <ele>414.03683</ele>
        <time>2012-09-23T09:54:54Z</time>
      </trkpt>
      <trkpt lat="45.49539" lon="3.30958">
        <ele>413.38324</ele>
        <time>2012-09-23T09:54:57Z</time>
      </trkpt>
      <trkpt lat="45.49561" lon="3.30959">
        <ele>410.90594</ele>
        <time>2012-09-23T09:55:00Z</time>
      </trkpt>
      <trkpt lat="45.49579" lon="3.30958">
        <ele>409.39835</ele>
        <time>2012-09-23T09:55:03Z</time>
      </trkpt>
      <trkpt lat="45.49598" lon="3.30952">
        <ele>408.65918</ele>
        <time>2012-09-23T09:55:05Z</time>
      </trkpt>
      <trkpt lat="45.49622" lon="3.30943">
        <ele>408.1255</ele>
        <time>2012-09-23T09:55:09Z</time>
      </trkpt>
      <trkpt lat="45.49641" lon="3.3094">
        <ele>408.01596</ele>
        <time>2012-09-23T09:55:12Z</time>
      </trkpt>
      <trkpt lat="45.49665" lon="3.30938">
        <ele>407.9452</ele>
        <time>2012-09-23T09:55:16Z</time>
      </trkpt>
      <trkpt lat="45.49684" lon="3.30936">
        <ele>408.55865</ele>
        <time>2012-09-23T09:55:19Z</time>
      </trkpt>
      <trkpt lat="45.49708" lon="3.30929">
        <ele>410.2614</ele>
        <time>2012-09-23T09:55:23Z</time>
      </trkpt>
      <trkpt lat="45.49726" lon="3.3093">
        <ele>410.77176</ele>
        <time>2012-09-23T09:55:26Z</time>
      </trkpt>
      <trkpt lat="45.49745" lon="3.3094">
        <ele>411.65933</ele>
        <time>2012-09-23T09:55:31Z</time>
      </trkpt>
      <trkpt lat="45.49765" lon="3.30949">
        <ele>412.33307</ele>
        <time>2012-09-23T09:55:36Z</time>
      </trkpt>
      <trkpt lat="45.49788" lon="3.30949">
        <ele>413.4041</ele>
        <time>2012-09-23T09:55:40Z</time>
      </trkpt>
      <trkpt lat="45.49807" lon="3.30934">
        <ele>413.86136</ele>
        <time>2012-09-23T09:55:44Z</time>
      </trkpt>
      <trkpt lat="45.49825" lon="3.30917">
        <ele>414.31815</ele>
        <time>2012-09-23T09:55:48Z</time>
      </trkpt>
      <trkpt lat="45.49846" lon="3.3091">
        <ele>413.55838</ele>
        <time>2012-09-23T09:55:52Z</time>
      </trkpt>
      <trkpt lat="45.49864" lon="3.30906">
        <ele>413.3986</ele>
        <time>2012-09-23T09:55:55Z</time>
      </trkpt>
      <trkpt lat="45.49884" lon="3.30898">
        <ele>412.8468</ele>
        <time>2012-09-23T09:55:58Z</time>
      </trkpt>
      <trkpt lat="45.49903" lon="3.30876">
        <ele>413.0343</ele>
        <time>2012-09-23T09:56:01Z</time>
      </trkpt>
      <trkpt lat="45.49918" lon="3.30861">
        <ele>412.317</ele>
        <time>2012-09-23T09:56:03Z</time>
      </trkpt>
      <trkpt lat="45.49935" lon="3.30849">
        <ele>411.56238</ele>
        <time>2012-09-23T09:56:06Z</time>
      </trkpt>
      <trkpt lat="45.49957" lon="3.30841">
        <ele>411.84244</ele>
        <time>2012-09-23T09:56:09Z</time>
      </trkpt>
      <trkpt lat="45.49981" lon="3.30831">
        <ele>413.10748</ele>
        <time>2012-09-23T09:56:12Z</time>
      </trkpt>
      <trkpt lat="45.50001" lon="3.30818">
        <ele>413.42398</ele>
        <time>2012-09-23T09:56:15Z</time>
      </trkpt>
      <trkpt lat="45.50022" lon="3.30807">
        <ele>412.85596</ele>
        <time>2012-09-23T09:56:18Z</time>
      </trkpt>
      <trkpt lat="45.50043" lon="3.30798">
        <ele>412.30536</ele>
        <time>2012-09-23T09:56:20Z</time>
      </trkpt>
      <trkpt lat="45.50062" lon="3.30789">
        <ele>413.0262</ele>
        <time>2012-09-23T09:56:24Z</time>
      </trkpt>
      <trkpt lat="45.50082" lon="3.30783">
        <ele>413.73657</ele>
        <time>2012-09-23T09:56:27Z</time>
      </trkpt>
      <trkpt lat="45.50102" lon="3.30776">
        <ele>413.51752</ele>
        <time>2012-09-23T09:56:30Z</time>
      </trkpt>
      <trkpt lat="45.50122" lon="3.3077">
        <ele>412.9048</ele>
        <time>2012-09-23T09:56:33Z</time>
      </trkpt>
      <trkpt lat="45.50142" lon="3.30764">
        <ele>412.39316</ele>
        <time>2012-09-23T09:56:36Z</time>
      </trkpt>
      <trkpt lat="45.50162" lon="3.3076">
        <ele>412.50702</ele>
        <time>2012-09-23T09:56:39Z</time>
      </trkpt>
      <trkpt lat="45.50182" lon="3.30759">
        <ele>412.53314</ele>
        <time>2012-09-23T09:56:42Z</time>
      </trkpt>
      <trkpt lat="45.50205" lon="3.30763">
        <ele>412.0311</ele>
        <time>2012-09-23T09:56:46Z</time>
      </trkpt>
      <trkpt lat="45.50228" lon="3.30769">
        <ele>411.57068</ele>
        <time>2012-09-23T09:56:50Z</time>
      </trkpt>
      <trkpt lat="45.50246" lon="3.30768">
        <ele>411.15378</ele>
        <time>2012-09-23T09:56:53Z</time>
      </trkpt>
      <trkpt lat="45.50265" lon="3.30776">
        <ele>410.4982</ele>
        <time>2012-09-23T09:56:56Z</time>
      </trkpt>
      <trkpt lat="45.50283" lon="3.30778">
        <ele>410.10132</ele>
        <time>2012-09-23T09:56:59Z</time>
      </trkpt>
      <trkpt lat="45.50307" lon="3.30781">
        <ele>409.00107</ele>
        <time>2012-09-23T09:57:01Z</time>
      </trkpt>
      <trkpt lat="45.5033" lon="3.3078">
        <ele>406.47284</ele>
        <time>2012-09-23T09:57:05Z</time>
      </trkpt>
      <trkpt lat="45.50348" lon="3.30777">
        <ele>404.63437</ele>
        <time>2012-09-23T09:57:08Z</time>
      </trkpt>
      <trkpt lat="45.50369" lon="3.30768">
        <ele>403.55408</ele>
        <time>2012-09-23T09:57:11Z</time>
      </trkpt>
      <trkpt lat="45.50388" lon="3.30767">
        <ele>402.86975</ele>
        <time>2012-09-23T09:57:15Z</time>
      </trkpt>
      <trkpt lat="45.50409" lon="3.30766">
        <ele>403.02667</ele>
        <time>2012-09-23T09:57:19Z</time>
      </trkpt>
      <trkpt lat="45.50429" lon="3.30754">
        <ele>403.62738</ele>
        <time>2012-09-23T09:57:22Z</time>
      </trkpt>
      <trkpt lat="45.50446" lon="3.30747">
        <ele>403.68808</ele>
        <time>2012-09-23T09:57:24Z</time>
      </trkpt>
      <trkpt lat="45.50464" lon="3.30737">
        <ele>403.6689</ele>
        <time>2012-09-23T09:57:27Z</time>
      </trkpt>
      <trkpt lat="45.50482" lon="3.30725">
        <ele>403.83585</ele>
        <time>2012-09-23T09:57:30Z</time>
      </trkpt>
      <trkpt lat="45.50502" lon="3.30713">
        <ele>403.77454</ele>
        <time>2012-09-23T09:57:34Z</time>
      </trkpt>
      <trkpt lat="45.50526" lon="3.30703">
        <ele>403.0489</ele>
        <time>2012-09-23T09:57:38Z</time>
      </trkpt>
      <trkpt lat="45.50544" lon="3.3069">
        <ele>402.83832</ele>
        <time>2012-09-23T09:57:41Z</time>
      </trkpt>
      <trkpt lat="45.50562" lon="3.30688">
        <ele>402.3495</ele>
        <time>2012-09-23T09:57:44Z</time>
      </trkpt>
      <trkpt lat="45.50582" lon="3.30683">
        <ele>406.31555</ele>
        <time>2012-09-23T09:57:48Z</time>
      </trkpt>
      <trkpt lat="45.50601" lon="3.30677">
        <ele>409.37582</ele>
        <time>2012-09-23T09:57:51Z</time>
      </trkpt>
      <trkpt lat="45.50626" lon="3.30665">
        <ele>410.51843</ele>
        <time>2012-09-23T09:57:55Z</time>
      </trkpt>
      <trkpt lat="45.50644" lon="3.30645">
        <ele>411.56393</ele>
        <time>2012-09-23T09:57:59Z</time>
      </trkpt>
      <trkpt lat="45.5066" lon="3.30623">
        <ele>411.3053</ele>
        <time>2012-09-23T09:58:03Z</time>
      </trkpt>
      <trkpt lat="45.50681" lon="3.30602">
        <ele>409.41956</ele>
        <time>2012-09-23T09:58:07Z</time>
      </trkpt>
      <trkpt lat="45.50695" lon="3.30581">
        <ele>407.53812</ele>
        <time>2012-09-23T09:58:11Z</time>
      </trkpt>
      <trkpt lat="45.50712" lon="3.30563">
        <ele>406.68112</ele>
        <time>2012-09-23T09:58:15Z</time>
      </trkpt>
      <trkpt lat="45.50742" lon="3.30526">
        <ele>405.409</ele>
        <time>2012-09-23T09:58:21Z</time>
      </trkpt>
      <trkpt lat="45.50763" lon="3.30509">
        <ele>404.2871</ele>
        <time>2012-09-23T09:58:24Z</time>
      </trkpt>
      <trkpt lat="45.50776" lon="3.30491">
        <ele>403.1357</ele>
        <time>2012-09-23T09:58:27Z</time>
      </trkpt>
      <trkpt lat="45.508" lon="3.30475">
        <ele>403.04684</ele>
        <time>2012-09-23T09:58:30Z</time>
      </trkpt>
      <trkpt lat="45.50816" lon="3.30459">
        <ele>402.71716</ele>
        <time>2012-09-23T09:58:33Z</time>
      </trkpt>
      <trkpt lat="45.50832" lon="3.3044">
        <ele>402.92807</ele>
        <time>2012-09-23T09:58:36Z</time>
      </trkpt>
      <trkpt lat="45.50851" lon="3.30417">
        <ele>402.49667</ele>
        <time>2012-09-23T09:58:40Z</time>
      </trkpt>
      <trkpt lat="45.50866" lon="3.3039">
        <ele>401.15704</ele>
        <time>2012-09-23T09:58:44Z</time>
      </trkpt>
      <trkpt lat="45.50876" lon="3.30365">
        <ele>400.00156</ele>
        <time>2012-09-23T09:58:48Z</time>
      </trkpt>
      <trkpt lat="45.50894" lon="3.3034">
        <ele>399.7758</ele>
        <time>2012-09-23T09:58:52Z</time>
      </trkpt>
      <trkpt lat="45.50908" lon="3.30318">
        <ele>398.96326</ele>
        <time>2012-09-23T09:58:59Z</time>
      </trkpt>
      <trkpt lat="45.50927" lon="3.3032">
        <ele>401.34485</ele>
        <time>2012-09-23T09:59:07Z</time>
      </trkpt>
      <trkpt lat="45.50941" lon="3.30339">
        <ele>395.80106</ele>
        <time>2012-09-23T10:00:51Z</time>
      </trkpt>
      <trkpt lat="45.50961" lon="3.30329">
        <ele>394.3738</ele>
        <time>2012-09-23T10:00:56Z</time>
      </trkpt>
      <trkpt lat="45.50981" lon="3.30326">
        <ele>393.91507</ele>
        <time>2012-09-23T10:01:00Z</time>
      </trkpt>
      <trkpt lat="45.51001" lon="3.30331">
        <ele>393.89374</ele>
        <time>2012-09-23T10:01:04Z</time>
      </trkpt>
      <trkpt lat="45.51019" lon="3.30334">
        <ele>393.91434</ele>
        <time>2012-09-23T10:01:08Z</time>
      </trkpt>
      <trkpt lat="45.51039" lon="3.30339">
        <ele>393.8716</ele>
        <time>2012-09-23T10:01:12Z</time>
      </trkpt>
      <trkpt lat="45.51059" lon="3.30344">
        <ele>393.7085</ele>
        <time>2012-09-23T10:01:16Z</time>
      </trkpt>
      <trkpt lat="45.5108" lon="3.30348">
        <ele>393.4479</ele>
        <time>2012-09-23T10:01:20Z</time>
      </trkpt>
      <trkpt lat="45.51102" lon="3.30354">
        <ele>393.17404</ele>
        <time>2012-09-23T10:01:24Z</time>
      </trkpt>
      <trkpt lat="45.51123" lon="3.30362">
        <ele>392.7538</ele>
        <time>2012-09-23T10:01:28Z</time>
      </trkpt>
      <trkpt lat="45.51146" lon="3.30367">
        <ele>393.0177</ele>
        <time>2012-09-23T10:01:32Z</time>
      </trkpt>
      <trkpt lat="45.51165" lon="3.30376">
        <ele>392.10355</ele>
        <time>2012-09-23T10:01:36Z</time>
      </trkpt>
      <trkpt lat="45.51184" lon="3.30388">
        <ele>391.86353</ele>
        <time>2012-09-23T10:01:40Z</time>
      </trkpt>
      <trkpt lat="45.51205" lon="3.30395">
        <ele>392.10516</ele>
        <time>2012-09-23T10:01:44Z</time>
      </trkpt>
      <trkpt lat="45.51225" lon="3.30401">
        <ele>392.59842</ele>
        <time>2012-09-23T10:01:48Z</time>
      </trkpt>
      <trkpt lat="45.51245" lon="3.30407">
        <ele>393.0787</ele>
        <time>2012-09-23T10:01:52Z</time>
      </trkpt>
      <trkpt lat="45.51268" lon="3.30413">
        <ele>393.19824</ele>
        <time>2012-09-23T10:01:56Z</time>
      </trkpt>
      <trkpt lat="45.51289" lon="3.30419">
        <ele>392.52084</ele>
        <time>2012-09-23T10:02:00Z</time>
      </trkpt>
      <trkpt lat="45.51311" lon="3.30425">
        <ele>392.5268</ele>
        <time>2012-09-23T10:02:04Z</time>
      </trkpt>
      <trkpt lat="45.51333" lon="3.30429">
        <ele>392.9529</ele>
        <time>2012-09-23T10:02:08Z</time>
      </trkpt>
      <trkpt lat="45.51355" lon="3.30436">
        <ele>393.10883</ele>
        <time>2012-09-23T10:02:12Z</time>
      </trkpt>
      <trkpt lat="45.51374" lon="3.3044">
        <ele>392.77298</ele>
        <time>2012-09-23T10:02:15Z</time>
      </trkpt>
      <trkpt lat="45.51394" lon="3.30446">
        <ele>392.28442</ele>
        <time>2012-09-23T10:02:18Z</time>
      </trkpt>
      <trkpt lat="45.51414" lon="3.3045">
        <ele>391.33145</ele>
        <time>2012-09-23T10:02:21Z</time>
      </trkpt>
      <trkpt lat="45.51432" lon="3.30454">
        <ele>390.0966</ele>
        <time>2012-09-23T10:02:24Z</time>
      </trkpt>
      <trkpt lat="45.51452" lon="3.30458">
        <ele>389.02563</ele>
        <time>2012-09-23T10:02:27Z</time>
      </trkpt>
      <trkpt lat="45.51471" lon="3.30463">
        <ele>388.87695</ele>
        <time>2012-09-23T10:02:30Z</time>
      </trkpt>
      <trkpt lat="45.51495" lon="3.3047">
        <ele>389.09885</ele>
        <time>2012-09-23T10:02:34Z</time>
      </trkpt>
      <trkpt lat="45.51516" lon="3.30473">
        <ele>388.92972</ele>
        <time>2012-09-23T10:02:37Z</time>
      </trkpt>
      <trkpt lat="45.51535" lon="3.30477">
        <ele>389.04587</ele>
        <time>2012-09-23T10:02:40Z</time>
      </trkpt>
      <trkpt lat="45.51558" lon="3.30486">
        <ele>388.97067</ele>
        <time>2012-09-23T10:02:44Z</time>
      </trkpt>
      <trkpt lat="45.51577" lon="3.3049">
        <ele>388.71002</ele>
        <time>2012-09-23T10:02:47Z</time>
      </trkpt>
      <trkpt lat="45.51596" lon="3.30493">
        <ele>388.15317</ele>
        <time>2012-09-23T10:02:50Z</time>
      </trkpt>
      <trkpt lat="45.51615" lon="3.30495">
        <ele>388.19952</ele>
        <time>2012-09-23T10:02:53Z</time>
      </trkpt>
      <trkpt lat="45.51635" lon="3.30496">
        <ele>387.9675</ele>
        <time>2012-09-23T10:02:56Z</time>
      </trkpt>
      <trkpt lat="45.51654" lon="3.30497">
        <ele>387.73056</ele>
        <time>2012-09-23T10:02:59Z</time>
      </trkpt>
      <trkpt lat="45.51674" lon="3.30494">
        <ele>387.88528</ele>
        <time>2012-09-23T10:03:02Z</time>
      </trkpt>
      <trkpt lat="45.51693" lon="3.30494">
        <ele>387.73807</ele>
        <time>2012-09-23T10:03:05Z</time>
      </trkpt>
      <trkpt lat="45.51713" lon="3.30495">
        <ele>387.52127</ele>
        <time>2012-09-23T10:03:08Z</time>
      </trkpt>
      <trkpt lat="45.51736" lon="3.305">
        <ele>388.08945</ele>
        <time>2012-09-23T10:03:12Z</time>
      </trkpt>
      <trkpt lat="45.51758" lon="3.30508">
        <ele>388.40048</ele>
        <time>2012-09-23T10:03:16Z</time>
      </trkpt>
      <trkpt lat="45.5178" lon="3.30511">
        <ele>388.54654</ele>
        <time>2012-09-23T10:03:20Z</time>
      </trkpt>
      <trkpt lat="45.51803" lon="3.30519">
        <ele>389.1607</ele>
        <time>2012-09-23T10:03:24Z</time>
      </trkpt>
      <trkpt lat="45.51826" lon="3.30522">
        <ele>390.27185</ele>
        <time>2012-09-23T10:03:28Z</time>
      </trkpt>
      <trkpt lat="45.51844" lon="3.30524">
        <ele>389.79333</ele>
        <time>2012-09-23T10:03:31Z</time>
      </trkpt>
      <trkpt lat="45.51863" lon="3.30527">
        <ele>388.91644</ele>
        <time>2012-09-23T10:03:34Z</time>
      </trkpt>
      <trkpt lat="45.51887" lon="3.30528">
        <ele>388.8887</ele>
        <time>2012-09-23T10:03:38Z</time>
      </trkpt>
      <trkpt lat="45.51908" lon="3.30532">
        <ele>389.7145</ele>
        <time>2012-09-23T10:03:41Z</time>
      </trkpt>
      <trkpt lat="45.51927" lon="3.30536">
        <ele>390.2738</ele>
        <time>2012-09-23T10:03:44Z</time>
      </trkpt>
      <trkpt lat="45.51945" lon="3.3054">
        <ele>390.27072</ele>
        <time>2012-09-23T10:03:47Z</time>
      </trkpt>
      <trkpt lat="45.51968" lon="3.30548">
        <ele>389.45078</ele>
        <time>2012-09-23T10:03:51Z</time>
      </trkpt>
      <trkpt lat="45.51986" lon="3.30554">
        <ele>388.9063</ele>
        <time>2012-09-23T10:03:54Z</time>
      </trkpt>
      <trkpt lat="45.52008" lon="3.30564">
        <ele>388.173</ele>
        <time>2012-09-23T10:03:58Z</time>
      </trkpt>
      <trkpt lat="45.52028" lon="3.30571">
        <ele>386.89136</ele>
        <time>2012-09-23T10:04:02Z</time>
      </trkpt>
      <trkpt lat="45.52048" lon="3.30582">
        <ele>384.79672</ele>
        <time>2012-09-23T10:04:16Z</time>
      </trkpt>
      <trkpt lat="45.5207" lon="3.30581">
        <ele>384.45834</ele>
        <time>2012-09-23T10:04:22Z</time>
      </trkpt>
      <trkpt lat="45.52093" lon="3.3058">
        <ele>384.2582</ele>
        <time>2012-09-23T10:04:26Z</time>
      </trkpt>
      <trkpt lat="45.52117" lon="3.30576">
        <ele>383.53198</ele>
        <time>2012-09-23T10:04:30Z</time>
      </trkpt>
      <trkpt lat="45.52137" lon="3.30575">
        <ele>383.33432</ele>
        <time>2012-09-23T10:04:33Z</time>
      </trkpt>
      <trkpt lat="45.52157" lon="3.30573">
        <ele>383.38217</ele>
        <time>2012-09-23T10:04:36Z</time>
      </trkpt>
      <trkpt lat="45.52177" lon="3.30572">
        <ele>382.77426</ele>
        <time>2012-09-23T10:04:39Z</time>
      </trkpt>
      <trkpt lat="45.52198" lon="3.30566">
        <ele>381.96933</ele>
        <time>2012-09-23T10:04:42Z</time>
      </trkpt>
      <trkpt lat="45.52219" lon="3.30559">
        <ele>381.26727</ele>
        <time>2012-09-23T10:04:45Z</time>
      </trkpt>
      <trkpt lat="45.52238" lon="3.30556">
        <ele>381.86484</ele>
        <time>2012-09-23T10:04:48Z</time>
      </trkpt>
      <trkpt lat="45.52258" lon="3.30557">
        <ele>382.21536</ele>
        <time>2012-09-23T10:04:51Z</time>
      </trkpt>
      <trkpt lat="45.52279" lon="3.30556">
        <ele>382.93982</ele>
        <time>2012-09-23T10:04:54Z</time>
      </trkpt>
      <trkpt lat="45.52302" lon="3.3056">
        <ele>382.85013</ele>
        <time>2012-09-23T10:04:57Z</time>
      </trkpt>
      <trkpt lat="45.52322" lon="3.30568">
        <ele>381.8779</ele>
        <time>2012-09-23T10:05:00Z</time>
      </trkpt>
      <trkpt lat="45.52342" lon="3.30577">
        <ele>380.7318</ele>
        <time>2012-09-23T10:05:02Z</time>
      </trkpt>
      <trkpt lat="45.52364" lon="3.30576">
        <ele>379.24677</ele>
        <time>2012-09-23T10:05:06Z</time>
      </trkpt>
      <trkpt lat="45.52385" lon="3.30578">
        <ele>378.6624</ele>
        <time>2012-09-23T10:05:09Z</time>
      </trkpt>
      <trkpt lat="45.52404" lon="3.30587">
        <ele>378.07217</ele>
        <time>2012-09-23T10:05:12Z</time>
      </trkpt>
      <trkpt lat="45.52423" lon="3.30601">
        <ele>377.42783</ele>
        <time>2012-09-23T10:05:15Z</time>
      </trkpt>
      <trkpt lat="45.52444" lon="3.30611">
        <ele>377.50446</ele>
        <time>2012-09-23T10:05:18Z</time>
      </trkpt>
      <trkpt lat="45.52466" lon="3.3061">
        <ele>377.8524</ele>
        <time>2012-09-23T10:05:21Z</time>
      </trkpt>
      <trkpt lat="45.52486" lon="3.30606">
        <ele>378.01636</ele>
        <time>2012-09-23T10:05:24Z</time>
      </trkpt>
      <trkpt lat="45.52506" lon="3.306">
        <ele>378.61835</ele>
        <time>2012-09-23T10:05:26Z</time>
      </trkpt>
      <trkpt lat="45.52525" lon="3.306">
        <ele>379.38638</ele>
        <time>2012-09-23T10:05:30Z</time>
      </trkpt>
      <trkpt lat="45.52545" lon="3.306">
        <ele>379.75415</ele>
        <time>2012-09-23T10:05:33Z</time>
      </trkpt>
      <trkpt lat="45.52566" lon="3.30602">
        <ele>380.34055</ele>
        <time>2012-09-23T10:05:36Z</time>
      </trkpt>
      <trkpt lat="45.52586" lon="3.30599">
        <ele>381.02386</ele>
        <time>2012-09-23T10:05:38Z</time>
      </trkpt>
      <trkpt lat="45.52602" lon="3.30587">
        <ele>381.52933</ele>
        <time>2012-09-23T10:05:41Z</time>
      </trkpt>
      <trkpt lat="45.52618" lon="3.30569">
        <ele>381.89044</ele>
        <time>2012-09-23T10:05:46Z</time>
      </trkpt>
      <trkpt lat="45.5263" lon="3.30545">
        <ele>382.11874</ele>
        <time>2012-09-23T10:05:50Z</time>
      </trkpt>
      <trkpt lat="45.52647" lon="3.30527">
        <ele>382.3316</ele>
        <time>2012-09-23T10:05:54Z</time>
      </trkpt>
      <trkpt lat="45.52667" lon="3.30517">
        <ele>382.93253</ele>
        <time>2012-09-23T10:05:59Z</time>
      </trkpt>
      <trkpt lat="45.52692" lon="3.30513">
        <ele>383.39392</ele>
        <time>2012-09-23T10:06:02Z</time>
      </trkpt>
      <trkpt lat="45.52716" lon="3.30518">
        <ele>383.72922</ele>
        <time>2012-09-23T10:06:06Z</time>
      </trkpt>
      <trkpt lat="45.5274" lon="3.30528">
        <ele>382.98315</ele>
        <time>2012-09-23T10:06:09Z</time>
      </trkpt>
      <trkpt lat="45.52759" lon="3.30533">
        <ele>381.94183</ele>
        <time>2012-09-23T10:06:12Z</time>
      </trkpt>
      <trkpt lat="45.52778" lon="3.30538">
        <ele>381.68066</ele>
        <time>2012-09-23T10:06:15Z</time>
      </trkpt>
      <trkpt lat="45.52803" lon="3.30547">
        <ele>383.1908</ele>
        <time>2012-09-23T10:06:18Z</time>
      </trkpt>
      <trkpt lat="45.52824" lon="3.30535">
        <ele>382.83646</ele>
        <time>2012-09-23T10:06:22Z</time>
      </trkpt>
      <trkpt lat="45.52838" lon="3.30512">
        <ele>382.21533</ele>
        <time>2012-09-23T10:06:26Z</time>
      </trkpt>
      <trkpt lat="45.52841" lon="3.3048">
        <ele>381.81638</ele>
        <time>2012-09-23T10:06:29Z</time>
      </trkpt>
      <trkpt lat="45.52842" lon="3.30454">
        <ele>381.29337</ele>
        <time>2012-09-23T10:06:32Z</time>
      </trkpt>
      <trkpt lat="45.52853" lon="3.30429">
        <ele>381.38022</ele>
        <time>2012-09-23T10:06:35Z</time>
      </trkpt>
      <trkpt lat="45.52873" lon="3.30417">
        <ele>381.39676</ele>
        <time>2012-09-23T10:06:40Z</time>
      </trkpt>
      <trkpt lat="45.52893" lon="3.30408">
        <ele>380.59445</ele>
        <time>2012-09-23T10:06:42Z</time>
      </trkpt>
      <trkpt lat="45.52914" lon="3.30401">
        <ele>380.1423</ele>
        <time>2012-09-23T10:06:47Z</time>
      </trkpt>
      <trkpt lat="45.52928" lon="3.30383">
        <ele>380.10117</ele>
        <time>2012-09-23T10:06:50Z</time>
      </trkpt>
      <trkpt lat="45.52946" lon="3.30363">
        <ele>380.60654</ele>
        <time>2012-09-23T10:06:54Z</time>
      </trkpt>
      <trkpt lat="45.52968" lon="3.30362">
        <ele>380.83517</ele>
        <time>2012-09-23T10:06:58Z</time>
      </trkpt>
      <trkpt lat="45.52985" lon="3.30375">
        <ele>381.15442</ele>
        <time>2012-09-23T10:07:00Z</time>
      </trkpt>
      <trkpt lat="45.53" lon="3.30394">
        <ele>381.2269</ele>
        <time>2012-09-23T10:07:05Z</time>
      </trkpt>
      <trkpt lat="45.53019" lon="3.30407">
        <ele>380.6205</ele>
        <time>2012-09-23T10:07:09Z</time>
      </trkpt>
      <trkpt lat="45.53036" lon="3.30428">
        <ele>379.8915</ele>
        <time>2012-09-23T10:07:14Z</time>
      </trkpt>
      <trkpt lat="45.53051" lon="3.30448">
        <ele>379.32193</ele>
        <time>2012-09-23T10:07:17Z</time>
      </trkpt>
      <trkpt lat="45.53067" lon="3.30463">
        <ele>379.33633</ele>
        <time>2012-09-23T10:07:20Z</time>
      </trkpt>
      <trkpt lat="45.53088" lon="3.30473">
        <ele>379.85358</ele>
        <time>2012-09-23T10:07:25Z</time>
      </trkpt>
      <trkpt lat="45.53107" lon="3.30482">
        <ele>380.47156</ele>
        <time>2012-09-23T10:07:29Z</time>
      </trkpt>
      <trkpt lat="45.53125" lon="3.3048">
        <ele>380.87762</ele>
        <time>2012-09-23T10:07:33Z</time>
      </trkpt>
      <trkpt lat="45.53142" lon="3.30471">
        <ele>381.3289</ele>
        <time>2012-09-23T10:07:38Z</time>
      </trkpt>
      <trkpt lat="45.53161" lon="3.30462">
        <ele>381.1454</ele>
        <time>2012-09-23T10:07:42Z</time>
      </trkpt>
      <trkpt lat="45.53182" lon="3.30453">
        <ele>380.7002</ele>
        <time>2012-09-23T10:07:46Z</time>
      </trkpt>
      <trkpt lat="45.53203" lon="3.30445">
        <ele>380.48865</ele>
        <time>2012-09-23T10:07:50Z</time>
      </trkpt>
      <trkpt lat="45.5322" lon="3.30437">
        <ele>380.7676</ele>
        <time>2012-09-23T10:07:53Z</time>
      </trkpt>
      <trkpt lat="45.5324" lon="3.30434">
        <ele>379.88373</ele>
        <time>2012-09-23T10:07:56Z</time>
      </trkpt>
      <trkpt lat="45.5326" lon="3.30427">
        <ele>378.91553</ele>
        <time>2012-09-23T10:07:59Z</time>
      </trkpt>
      <trkpt lat="45.53278" lon="3.30419">
        <ele>378.15082</ele>
        <time>2012-09-23T10:08:02Z</time>
      </trkpt>
      <trkpt lat="45.53301" lon="3.30411">
        <ele>378.3945</ele>
        <time>2012-09-23T10:08:06Z</time>
      </trkpt>
      <trkpt lat="45.53323" lon="3.30418">
        <ele>377.963</ele>
        <time>2012-09-23T10:08:10Z</time>
      </trkpt>
      <trkpt lat="45.5334" lon="3.30428">
        <ele>378.4052</ele>
        <time>2012-09-23T10:08:13Z</time>
      </trkpt>
      <trkpt lat="45.5336" lon="3.30435">
        <ele>380.41132</ele>
        <time>2012-09-23T10:08:17Z</time>
      </trkpt>
      <trkpt lat="45.5338" lon="3.30445">
        <ele>381.64255</ele>
        <time>2012-09-23T10:08:21Z</time>
      </trkpt>
      <trkpt lat="45.53402" lon="3.30454">
        <ele>381.76572</ele>
        <time>2012-09-23T10:08:25Z</time>
      </trkpt>
      <trkpt lat="45.53424" lon="3.30464">
        <ele>380.75623</ele>
        <time>2012-09-23T10:08:29Z</time>
      </trkpt>
      <trkpt lat="45.53445" lon="3.30473">
        <ele>380.37006</ele>
        <time>2012-09-23T10:08:33Z</time>
      </trkpt>
      <trkpt lat="45.53464" lon="3.30483">
        <ele>380.9877</ele>
        <time>2012-09-23T10:08:37Z</time>
      </trkpt>
      <trkpt lat="45.53481" lon="3.30493">
        <ele>380.5375</ele>
        <time>2012-09-23T10:08:40Z</time>
      </trkpt>
      <trkpt lat="45.53501" lon="3.30503">
        <ele>380.41998</ele>
        <time>2012-09-23T10:08:44Z</time>
      </trkpt>
      <trkpt lat="45.53522" lon="3.30512">
        <ele>380.0574</ele>
        <time>2012-09-23T10:08:47Z</time>
      </trkpt>
      <trkpt lat="45.53544" lon="3.3052">
        <ele>379.38214</ele>
        <time>2012-09-23T10:08:52Z</time>
      </trkpt>
      <trkpt lat="45.53563" lon="3.30529">
        <ele>379.99933</ele>
        <time>2012-09-23T10:08:56Z</time>
      </trkpt>
      <trkpt lat="45.53582" lon="3.30524">
        <ele>379.17346</ele>
        <time>2012-09-23T10:09:02Z</time>
      </trkpt>
      <trkpt lat="45.53577" lon="3.30498">
        <ele>379.1784</ele>
        <time>2012-09-23T10:09:07Z</time>
      </trkpt>
      <trkpt lat="45.53571" lon="3.30467">
        <ele>380.11014</ele>
        <time>2012-09-23T10:09:12Z</time>
      </trkpt>
      <trkpt lat="45.53566" lon="3.30441">
        <ele>380.7328</ele>
        <time>2012-09-23T10:09:16Z</time>
      </trkpt>
      <trkpt lat="45.5356" lon="3.3041">
        <ele>380.4345</ele>
        <time>2012-09-23T10:09:20Z</time>
      </trkpt>
      <trkpt lat="45.53554" lon="3.30378">
        <ele>379.6374</ele>
        <time>2012-09-23T10:09:24Z</time>
      </trkpt>
      <trkpt lat="45.53548" lon="3.30345">
        <ele>379.2246</ele>
        <time>2012-09-23T10:09:28Z</time>
      </trkpt>
      <trkpt lat="45.53544" lon="3.30319">
        <ele>378.8281</ele>
        <time>2012-09-23T10:09:31Z</time>
      </trkpt>
      <trkpt lat="45.53539" lon="3.30293">
        <ele>378.65924</ele>
        <time>2012-09-23T10:09:34Z</time>
      </trkpt>
      <trkpt lat="45.53535" lon="3.30267">
        <ele>378.84427</ele>
        <time>2012-09-23T10:09:37Z</time>
      </trkpt>
      <trkpt lat="45.53531" lon="3.30242">
        <ele>378.56607</ele>
        <time>2012-09-23T10:09:40Z</time>
      </trkpt>
      <trkpt lat="45.53529" lon="3.30215">
        <ele>378.43933</ele>
        <time>2012-09-23T10:09:43Z</time>
      </trkpt>
      <trkpt lat="45.53525" lon="3.30189">
        <ele>378.44055</ele>
        <time>2012-09-23T10:09:46Z</time>
      </trkpt>
      <trkpt lat="45.53522" lon="3.30163">
        <ele>378.36295</ele>
        <time>2012-09-23T10:09:49Z</time>
      </trkpt>
      <trkpt lat="45.53518" lon="3.30132">
        <ele>377.95206</ele>
        <time>2012-09-23T10:09:52Z</time>
      </trkpt>
      <trkpt lat="45.53515" lon="3.30101">
        <ele>377.65997</ele>
        <time>2012-09-23T10:09:55Z</time>
      </trkpt>
      <trkpt lat="45.53512" lon="3.30071">
        <ele>376.868</ele>
        <time>2012-09-23T10:09:58Z</time>
      </trkpt>
      <trkpt lat="45.53508" lon="3.30041">
        <ele>375.9417</ele>
        <time>2012-09-23T10:10:01Z</time>
      </trkpt>
      <trkpt lat="45.53505" lon="3.30009">
        <ele>375.13687</ele>
        <time>2012-09-23T10:10:04Z</time>
      </trkpt>
      <trkpt lat="45.53504" lon="3.29978">
        <ele>374.59732</ele>
        <time>2012-09-23T10:10:07Z</time>
      </trkpt>
      <trkpt lat="45.535" lon="3.29945">
        <ele>373.84314</ele>
        <time>2012-09-23T10:10:10Z</time>
      </trkpt>
      <trkpt lat="45.53495" lon="3.29912">
        <ele>372.9531</ele>
        <time>2012-09-23T10:10:13Z</time>
      </trkpt>
      <trkpt lat="45.53493" lon="3.29879">
        <ele>372.5901</ele>
        <time>2012-09-23T10:10:16Z</time>
      </trkpt>
      <trkpt lat="45.5349" lon="3.29849">
        <ele>372.57916</ele>
        <time>2012-09-23T10:10:19Z</time>
      </trkpt>
      <trkpt lat="45.53488" lon="3.29819">
        <ele>372.49173</ele>
        <time>2012-09-23T10:10:22Z</time>
      </trkpt>
      <trkpt lat="45.53486" lon="3.29789">
        <ele>372.39078</ele>
        <time>2012-09-23T10:10:25Z</time>
      </trkpt>
      <trkpt lat="45.53485" lon="3.29761">
        <ele>372.54193</ele>
        <time>2012-09-23T10:10:28Z</time>
      </trkpt>
      <trkpt lat="45.53487" lon="3.29727">
        <ele>373.44363</ele>
        <time>2012-09-23T10:10:32Z</time>
      </trkpt>
      <trkpt lat="45.53492" lon="3.29699">
        <ele>373.77048</ele>
        <time>2012-09-23T10:10:35Z</time>
      </trkpt>
      <trkpt lat="45.53497" lon="3.29673">
        <ele>374.1537</ele>
        <time>2012-09-23T10:10:38Z</time>
      </trkpt>
      <trkpt lat="45.53502" lon="3.29645">
        <ele>374.1638</ele>
        <time>2012-09-23T10:10:41Z</time>
      </trkpt>
      <trkpt lat="45.53506" lon="3.29616">
        <ele>374.10556</ele>
        <time>2012-09-23T10:10:44Z</time>
      </trkpt>
      <trkpt lat="45.5351" lon="3.29584">
        <ele>374.3591</ele>
        <time>2012-09-23T10:10:47Z</time>
      </trkpt>
      <trkpt lat="45.53516" lon="3.29551">
        <ele>373.94733</ele>
        <time>2012-09-23T10:10:50Z</time>
      </trkpt>
      <trkpt lat="45.5352" lon="3.29519">
        <ele>373.72986</ele>
        <time>2012-09-23T10:10:53Z</time>
      </trkpt>
      <trkpt lat="45.53525" lon="3.29486">
        <ele>373.64124</ele>
        <time>2012-09-23T10:10:56Z</time>
      </trkpt>
      <trkpt lat="45.53531" lon="3.29452">
        <ele>373.22104</ele>
        <time>2012-09-23T10:10:58Z</time>
      </trkpt>
      <trkpt lat="45.53536" lon="3.29419">
        <ele>373.09845</ele>
        <time>2012-09-23T10:11:02Z</time>
      </trkpt>
      <trkpt lat="45.53528" lon="3.29389">
        <ele>373.4139</ele>
        <time>2012-09-23T10:11:05Z</time>
      </trkpt>
      <trkpt lat="45.53515" lon="3.29366">
        <ele>374.19388</ele>
        <time>2012-09-23T10:11:08Z</time>
      </trkpt>
      <trkpt lat="45.53498" lon="3.29346">
        <ele>374.68387</ele>
        <time>2012-09-23T10:11:11Z</time>
      </trkpt>
      <trkpt lat="45.5348" lon="3.29328">
        <ele>374.6656</ele>
        <time>2012-09-23T10:11:14Z</time>
      </trkpt>
      <trkpt lat="45.53463" lon="3.29312">
        <ele>374.65005</ele>
        <time>2012-09-23T10:11:17Z</time>
      </trkpt>
      <trkpt lat="45.53461" lon="3.29286">
        <ele>375.05133</ele>
        <time>2012-09-23T10:11:20Z</time>
      </trkpt>
      <trkpt lat="45.53471" lon="3.29259">
        <ele>375.25653</ele>
        <time>2012-09-23T10:11:23Z</time>
      </trkpt>
      <trkpt lat="45.53479" lon="3.29231">
        <ele>375.17593</ele>
        <time>2012-09-23T10:11:26Z</time>
      </trkpt>
      <trkpt lat="45.53482" lon="3.29203">
        <ele>374.97318</ele>
        <time>2012-09-23T10:11:29Z</time>
      </trkpt>
      <trkpt lat="45.53485" lon="3.29172">
        <ele>374.17514</ele>
        <time>2012-09-23T10:11:32Z</time>
      </trkpt>
      <trkpt lat="45.53491" lon="3.29141">
        <ele>373.7025</ele>
        <time>2012-09-23T10:11:35Z</time>
      </trkpt>
      <trkpt lat="45.53494" lon="3.29109">
        <ele>372.8141</ele>
        <time>2012-09-23T10:11:38Z</time>
      </trkpt>
      <trkpt lat="45.53488" lon="3.29082">
        <ele>372.12677</ele>
        <time>2012-09-23T10:11:41Z</time>
      </trkpt>
      <trkpt lat="45.53475" lon="3.2906">
        <ele>372.03525</ele>
        <time>2012-09-23T10:11:44Z</time>
      </trkpt>
      <trkpt lat="45.53478" lon="3.29032">
        <ele>372.4587</ele>
        <time>2012-09-23T10:11:48Z</time>
      </trkpt>
      <trkpt lat="45.53487" lon="3.29007">
        <ele>373.75482</ele>
        <time>2012-09-23T10:11:52Z</time>
      </trkpt>
      <trkpt lat="45.535" lon="3.28981">
        <ele>374.45737</ele>
        <time>2012-09-23T10:11:57Z</time>
      </trkpt>
      <trkpt lat="45.5352" lon="3.2896">
        <ele>375.28876</ele>
        <time>2012-09-23T10:12:01Z</time>
      </trkpt>
      <trkpt lat="45.53539" lon="3.28957">
        <ele>376.07388</ele>
        <time>2012-09-23T10:12:04Z</time>
      </trkpt>
      <trkpt lat="45.53557" lon="3.2896">
        <ele>376.008</ele>
        <time>2012-09-23T10:12:06Z</time>
      </trkpt>
      <trkpt lat="45.53581" lon="3.28955">
        <ele>375.41483</ele>
        <time>2012-09-23T10:12:09Z</time>
      </trkpt>
      <trkpt lat="45.53602" lon="3.28956">
        <ele>375.01303</ele>
        <time>2012-09-23T10:12:12Z</time>
      </trkpt>
      <trkpt lat="45.53627" lon="3.28957">
        <ele>374.08414</ele>
        <time>2012-09-23T10:12:15Z</time>
      </trkpt>
      <trkpt lat="45.5365" lon="3.2896">
        <ele>373.41257</ele>
        <time>2012-09-23T10:12:18Z</time>
      </trkpt>
      <trkpt lat="45.53675" lon="3.28964">
        <ele>372.298</ele>
        <time>2012-09-23T10:12:21Z</time>
      </trkpt>
      <trkpt lat="45.53695" lon="3.28965">
        <ele>372.57623</ele>
        <time>2012-09-23T10:12:24Z</time>
      </trkpt>
      <trkpt lat="45.53712" lon="3.28947">
        <ele>372.31464</ele>
        <time>2012-09-23T10:12:28Z</time>
      </trkpt>
      <trkpt lat="45.53717" lon="3.28919">
        <ele>371.7317</ele>
        <time>2012-09-23T10:12:31Z</time>
      </trkpt>
      <trkpt lat="45.53718" lon="3.28886">
        <ele>370.5013</ele>
        <time>2012-09-23T10:12:35Z</time>
      </trkpt>
      <trkpt lat="45.53716" lon="3.2886">
        <ele>369.79794</ele>
        <time>2012-09-23T10:12:39Z</time>
      </trkpt>
      <trkpt lat="45.53715" lon="3.28833">
        <ele>369.00278</ele>
        <time>2012-09-23T10:12:42Z</time>
      </trkpt>
      <trkpt lat="45.53718" lon="3.28806">
        <ele>368.56262</ele>
        <time>2012-09-23T10:12:45Z</time>
      </trkpt>
      <trkpt lat="45.53725" lon="3.28774">
        <ele>368.5238</ele>
        <time>2012-09-23T10:12:48Z</time>
      </trkpt>
      <trkpt lat="45.53734" lon="3.28748">
        <ele>368.55432</ele>
        <time>2012-09-23T10:12:51Z</time>
      </trkpt>
      <trkpt lat="45.53739" lon="3.28719">
        <ele>368.525</ele>
        <time>2012-09-23T10:12:53Z</time>
      </trkpt>
      <trkpt lat="45.53753" lon="3.28689">
        <ele>368.71417</ele>
        <time>2012-09-23T10:12:57Z</time>
      </trkpt>
      <trkpt lat="45.53758" lon="3.28658">
        <ele>369.54868</ele>
        <time>2012-09-23T10:13:00Z</time>
      </trkpt>
      <trkpt lat="45.53765" lon="3.2863">
        <ele>370.40073</ele>
        <time>2012-09-23T10:13:03Z</time>
      </trkpt>
      <trkpt lat="45.53775" lon="3.28602">
        <ele>370.80396</ele>
        <time>2012-09-23T10:13:06Z</time>
      </trkpt>
      <trkpt lat="45.53787" lon="3.28575">
        <ele>370.75998</ele>
        <time>2012-09-23T10:13:09Z</time>
      </trkpt>
      <trkpt lat="45.538" lon="3.28551">
        <ele>372.30396</ele>
        <time>2012-09-23T10:13:12Z</time>
      </trkpt>
      <trkpt lat="45.53815" lon="3.2853">
        <ele>373.5522</ele>
        <time>2012-09-23T10:13:15Z</time>
      </trkpt>
      <trkpt lat="45.53832" lon="3.28513">
        <ele>374.65222</ele>
        <time>2012-09-23T10:13:18Z</time>
      </trkpt>
      <trkpt lat="45.53848" lon="3.2849">
        <ele>375.28036</ele>
        <time>2012-09-23T10:13:21Z</time>
      </trkpt>
      <trkpt lat="45.53866" lon="3.28477">
        <ele>376.09848</ele>
        <time>2012-09-23T10:13:24Z</time>
      </trkpt>
      <trkpt lat="45.53885" lon="3.28464">
        <ele>376.43582</ele>
        <time>2012-09-23T10:13:27Z</time>
      </trkpt>
      <trkpt lat="45.53904" lon="3.2845">
        <ele>376.08594</ele>
        <time>2012-09-23T10:13:30Z</time>
      </trkpt>
      <trkpt lat="45.53922" lon="3.28434">
        <ele>376.03522</ele>
        <time>2012-09-23T10:13:33Z</time>
      </trkpt>
      <trkpt lat="45.53937" lon="3.28413">
        <ele>376.65756</ele>
        <time>2012-09-23T10:13:36Z</time>
      </trkpt>
      <trkpt lat="45.53948" lon="3.28385">
        <ele>376.61542</ele>
        <time>2012-09-23T10:13:39Z</time>
      </trkpt>
      <trkpt lat="45.53958" lon="3.28355">
        <ele>376.19922</ele>
        <time>2012-09-23T10:13:42Z</time>
      </trkpt>
      <trkpt lat="45.53967" lon="3.28322">
        <ele>375.52518</ele>
        <time>2012-09-23T10:13:45Z</time>
      </trkpt>
      <trkpt lat="45.53976" lon="3.2829">
        <ele>375.308</ele>
        <time>2012-09-23T10:13:48Z</time>
      </trkpt>
      <trkpt lat="45.53988" lon="3.28261">
        <ele>374.9586</ele>
        <time>2012-09-23T10:13:51Z</time>
      </trkpt>
      <trkpt lat="45.53995" lon="3.28228">
        <ele>375.08618</ele>
        <time>2012-09-23T10:13:54Z</time>
      </trkpt>
      <trkpt lat="45.53995" lon="3.28198">
        <ele>374.98218</ele>
        <time>2012-09-23T10:13:57Z</time>
      </trkpt>
      <trkpt lat="45.53991" lon="3.2817">
        <ele>374.69925</ele>
        <time>2012-09-23T10:14:00Z</time>
      </trkpt>
      <trkpt lat="45.53991" lon="3.28141">
        <ele>374.6502</ele>
        <time>2012-09-23T10:14:03Z</time>
      </trkpt>
      <trkpt lat="45.53991" lon="3.28111">
        <ele>373.4623</ele>
        <time>2012-09-23T10:14:06Z</time>
      </trkpt>
      <trkpt lat="45.53988" lon="3.28083">
        <ele>372.469</ele>
        <time>2012-09-23T10:14:09Z</time>
      </trkpt>
      <trkpt lat="45.53986" lon="3.28053">
        <ele>373.11392</ele>
        <time>2012-09-23T10:14:13Z</time>
      </trkpt>
      <trkpt lat="45.54001" lon="3.28037">
        <ele>373.5957</ele>
        <time>2012-09-23T10:14:17Z</time>
      </trkpt>
      <trkpt lat="45.54015" lon="3.28021">
        <ele>374.7708</ele>
        <time>2012-09-23T10:14:21Z</time>
      </trkpt>
      <trkpt lat="45.54035" lon="3.28004">
        <ele>376.74573</ele>
        <time>2012-09-23T10:14:25Z</time>
      </trkpt>
      <trkpt lat="45.54051" lon="3.27991">
        <ele>377.0464</ele>
        <time>2012-09-23T10:14:28Z</time>
      </trkpt>
      <trkpt lat="45.54067" lon="3.27975">
        <ele>377.15445</ele>
        <time>2012-09-23T10:14:30Z</time>
      </trkpt>
      <trkpt lat="45.54083" lon="3.2796">
        <ele>377.50943</ele>
        <time>2012-09-23T10:14:34Z</time>
      </trkpt>
      <trkpt lat="45.541" lon="3.27943">
        <ele>377.53262</ele>
        <time>2012-09-23T10:14:37Z</time>
      </trkpt>
      <trkpt lat="45.54117" lon="3.27928">
        <ele>378.44083</ele>
        <time>2012-09-23T10:14:40Z</time>
      </trkpt>
      <trkpt lat="45.54136" lon="3.27909">
        <ele>378.98236</ele>
        <time>2012-09-23T10:14:43Z</time>
      </trkpt>
      <trkpt lat="45.54151" lon="3.27892">
        <ele>378.72275</ele>
        <time>2012-09-23T10:14:47Z</time>
      </trkpt>
      <trkpt lat="45.54172" lon="3.27876">
        <ele>378.72574</ele>
        <time>2012-09-23T10:14:50Z</time>
      </trkpt>
      <trkpt lat="45.54186" lon="3.2786">
        <ele>378.8309</ele>
        <time>2012-09-23T10:14:52Z</time>
      </trkpt>
      <trkpt lat="45.54203" lon="3.27839">
        <ele>378.9995</ele>
        <time>2012-09-23T10:14:55Z</time>
      </trkpt>
      <trkpt lat="45.54221" lon="3.27817">
        <ele>379.13782</ele>
        <time>2012-09-23T10:14:58Z</time>
      </trkpt>
      <trkpt lat="45.54236" lon="3.27798">
        <ele>379.3877</ele>
        <time>2012-09-23T10:15:00Z</time>
      </trkpt>
      <trkpt lat="45.54241" lon="3.27769">
        <ele>379.53452</ele>
        <time>2012-09-23T10:15:02Z</time>
      </trkpt>
      <trkpt lat="45.54251" lon="3.27746">
        <ele>380.0046</ele>
        <time>2012-09-23T10:15:04Z</time>
      </trkpt>
      <trkpt lat="45.54264" lon="3.27718">
        <ele>380.45245</ele>
        <time>2012-09-23T10:15:06Z</time>
      </trkpt>
      <trkpt lat="45.54276" lon="3.27684">
        <ele>379.9164</ele>
        <time>2012-09-23T10:15:10Z</time>
      </trkpt>
      <trkpt lat="45.54283" lon="3.27654">
        <ele>379.7793</ele>
        <time>2012-09-23T10:15:13Z</time>
      </trkpt>
      <trkpt lat="45.54295" lon="3.27617">
        <ele>379.4746</ele>
        <time>2012-09-23T10:15:16Z</time>
      </trkpt>
      <trkpt lat="45.54302" lon="3.27587">
        <ele>378.0742</ele>
        <time>2012-09-23T10:15:19Z</time>
      </trkpt>
      <trkpt lat="45.54312" lon="3.27556">
        <ele>377.42868</ele>
        <time>2012-09-23T10:15:22Z</time>
      </trkpt>
      <trkpt lat="45.54321" lon="3.27524">
        <ele>376.81262</ele>
        <time>2012-09-23T10:15:25Z</time>
      </trkpt>
      <trkpt lat="45.54329" lon="3.27493">
        <ele>376.91678</ele>
        <time>2012-09-23T10:15:28Z</time>
      </trkpt>
      <trkpt lat="45.54339" lon="3.2746">
        <ele>377.02322</ele>
        <time>2012-09-23T10:15:31Z</time>
      </trkpt>
      <trkpt lat="45.54346" lon="3.27436">
        <ele>376.792</ele>
        <time>2012-09-23T10:15:33Z</time>
      </trkpt>
      <trkpt lat="45.54352" lon="3.27412">
        <ele>376.6182</ele>
        <time>2012-09-23T10:15:35Z</time>
      </trkpt>
      <trkpt lat="45.54356" lon="3.27387">
        <ele>376.65793</ele>
        <time>2012-09-23T10:15:37Z</time>
      </trkpt>
      <trkpt lat="45.5436" lon="3.27361">
        <ele>376.66153</ele>
        <time>2012-09-23T10:15:39Z</time>
      </trkpt>
      <trkpt lat="45.54363" lon="3.27322">
        <ele>376.31396</ele>
        <time>2012-09-23T10:15:42Z</time>
      </trkpt>
      <trkpt lat="45.54361" lon="3.27285">
        <ele>375.9142</ele>
        <time>2012-09-23T10:15:45Z</time>
      </trkpt>
      <trkpt lat="45.54356" lon="3.2726">
        <ele>375.60568</ele>
        <time>2012-09-23T10:15:47Z</time>
      </trkpt>
      <trkpt lat="45.54349" lon="3.27225">
        <ele>375.31073</ele>
        <time>2012-09-23T10:15:50Z</time>
      </trkpt>
      <trkpt lat="45.54337" lon="3.27197">
        <ele>375.2613</ele>
        <time>2012-09-23T10:15:53Z</time>
      </trkpt>
      <trkpt lat="45.54324" lon="3.2717">
        <ele>375.30292</ele>
        <time>2012-09-23T10:15:56Z</time>
      </trkpt>
      <trkpt lat="45.5432" lon="3.2714">
        <ele>375.25644</ele>
        <time>2012-09-23T10:15:59Z</time>
      </trkpt>
      <trkpt lat="45.54318" lon="3.27109">
        <ele>375.21182</ele>
        <time>2012-09-23T10:16:02Z</time>
      </trkpt>
      <trkpt lat="45.54314" lon="3.27082">
        <ele>374.64145</ele>
        <time>2012-09-23T10:16:05Z</time>
      </trkpt>
      <trkpt lat="45.54314" lon="3.27049">
        <ele>374.61957</ele>
        <time>2012-09-23T10:16:08Z</time>
      </trkpt>
      <trkpt lat="45.54314" lon="3.27018">
        <ele>374.64</ele>
        <time>2012-09-23T10:16:11Z</time>
      </trkpt>
      <trkpt lat="45.54316" lon="3.26984">
        <ele>374.1721</ele>
        <time>2012-09-23T10:16:14Z</time>
      </trkpt>
      <trkpt lat="45.54317" lon="3.26952">
        <ele>374.1575</ele>
        <time>2012-09-23T10:16:17Z</time>
      </trkpt>
      <trkpt lat="45.54316" lon="3.2692">
        <ele>373.95914</ele>
        <time>2012-09-23T10:16:20Z</time>
      </trkpt>
      <trkpt lat="45.54321" lon="3.26892">
        <ele>373.8442</ele>
        <time>2012-09-23T10:16:23Z</time>
      </trkpt>
      <trkpt lat="45.54336" lon="3.26871">
        <ele>373.8926</ele>
        <time>2012-09-23T10:16:26Z</time>
      </trkpt>
      <trkpt lat="45.54353" lon="3.26854">
        <ele>373.7021</ele>
        <time>2012-09-23T10:16:29Z</time>
      </trkpt>
      <trkpt lat="45.54369" lon="3.26841">
        <ele>374.6764</ele>
        <time>2012-09-23T10:16:32Z</time>
      </trkpt>
      <trkpt lat="45.54389" lon="3.26839">
        <ele>375.65063</ele>
        <time>2012-09-23T10:16:36Z</time>
      </trkpt>
      <trkpt lat="45.5441" lon="3.26842">
        <ele>374.9171</ele>
        <time>2012-09-23T10:16:40Z</time>
      </trkpt>
      <trkpt lat="45.54429" lon="3.26852">
        <ele>374.4015</ele>
        <time>2012-09-23T10:16:43Z</time>
      </trkpt>
      <trkpt lat="45.54446" lon="3.2686">
        <ele>374.65427</ele>
        <time>2012-09-23T10:16:46Z</time>
      </trkpt>
      <trkpt lat="45.54464" lon="3.26866">
        <ele>374.0562</ele>
        <time>2012-09-23T10:16:49Z</time>
      </trkpt>
      <trkpt lat="45.54483" lon="3.26875">
        <ele>373.17044</ele>
        <time>2012-09-23T10:16:52Z</time>
      </trkpt>
      <trkpt lat="45.54502" lon="3.26861">
        <ele>373.49994</ele>
        <time>2012-09-23T10:16:57Z</time>
      </trkpt>
      <trkpt lat="45.54516" lon="3.2684">
        <ele>373.64325</ele>
        <time>2012-09-23T10:17:02Z</time>
      </trkpt>
      <trkpt lat="45.54507" lon="3.26813">
        <ele>373.88596</ele>
        <time>2012-09-23T10:17:05Z</time>
      </trkpt>
      <trkpt lat="45.54513" lon="3.26787">
        <ele>374.74054</ele>
        <time>2012-09-23T10:17:10Z</time>
      </trkpt>
      <trkpt lat="45.54512" lon="3.26759">
        <ele>375.5514</ele>
        <time>2012-09-23T10:17:14Z</time>
      </trkpt>
      <trkpt lat="45.54508" lon="3.26728">
        <ele>376.50372</ele>
        <time>2012-09-23T10:17:19Z</time>
      </trkpt>
      <trkpt lat="45.54502" lon="3.26701">
        <ele>377.5921</ele>
        <time>2012-09-23T10:17:23Z</time>
      </trkpt>
      <trkpt lat="45.54498" lon="3.26671">
        <ele>378.2965</ele>
        <time>2012-09-23T10:17:28Z</time>
      </trkpt>
      <trkpt lat="45.54487" lon="3.26641">
        <ele>377.97565</ele>
        <time>2012-09-23T10:17:33Z</time>
      </trkpt>
      <trkpt lat="45.54479" lon="3.26608">
        <ele>377.9922</ele>
        <time>2012-09-23T10:17:37Z</time>
      </trkpt>
      <trkpt lat="45.54469" lon="3.26579">
        <ele>378.69586</ele>
        <time>2012-09-23T10:17:41Z</time>
      </trkpt>
      <trkpt lat="45.54463" lon="3.26548">
        <ele>377.99704</ele>
        <time>2012-09-23T10:17:44Z</time>
      </trkpt>
      <trkpt lat="45.54457" lon="3.26518">
        <ele>377.3966</ele>
        <time>2012-09-23T10:17:49Z</time>
      </trkpt>
      <trkpt lat="45.54453" lon="3.26492">
        <ele>377.5582</ele>
        <time>2012-09-23T10:17:53Z</time>
      </trkpt>
      <trkpt lat="45.54445" lon="3.26462">
        <ele>377.66403</ele>
        <time>2012-09-23T10:17:57Z</time>
      </trkpt>
      <trkpt lat="45.54438" lon="3.26432">
        <ele>378.43222</ele>
        <time>2012-09-23T10:18:01Z</time>
      </trkpt>
      <trkpt lat="45.54426" lon="3.26413">
        <ele>379.56412</ele>
        <time>2012-09-23T10:18:05Z</time>
      </trkpt>
      <trkpt lat="45.54426" lon="3.26385">
        <ele>381.05774</ele>
        <time>2012-09-23T10:18:11Z</time>
      </trkpt>
      <trkpt lat="45.54442" lon="3.26369">
        <ele>382.23138</ele>
        <time>2012-09-23T10:18:20Z</time>
      </trkpt>
      <trkpt lat="45.54446" lon="3.26337">
        <ele>380.8481</ele>
        <time>2012-09-23T10:18:27Z</time>
      </trkpt>
      <trkpt lat="45.54447" lon="3.26312">
        <ele>378.28906</ele>
        <time>2012-09-23T10:18:32Z</time>
      </trkpt>
      <trkpt lat="45.54444" lon="3.26284">
        <ele>376.474</ele>
        <time>2012-09-23T10:18:38Z</time>
      </trkpt>
      <trkpt lat="45.5444" lon="3.26256">
        <ele>376.47952</ele>
        <time>2012-09-23T10:18:44Z</time>
      </trkpt>
      <trkpt lat="45.54433" lon="3.26231">
        <ele>377.81067</ele>
        <time>2012-09-23T10:18:50Z</time>
      </trkpt>
      <trkpt lat="45.54423" lon="3.26205">
        <ele>377.7336</ele>
        <time>2012-09-23T10:18:55Z</time>
      </trkpt>
      <trkpt lat="45.54425" lon="3.26175">
        <ele>377.21564</ele>
        <time>2012-09-23T10:18:58Z</time>
      </trkpt>
      <trkpt lat="45.54424" lon="3.26148">
        <ele>377.2783</ele>
        <time>2012-09-23T10:19:02Z</time>
      </trkpt>
      <trkpt lat="45.54424" lon="3.26118">
        <ele>377.85864</ele>
        <time>2012-09-23T10:19:07Z</time>
      </trkpt>
      <trkpt lat="45.54424" lon="3.26091">
        <ele>377.85947</ele>
        <time>2012-09-23T10:19:11Z</time>
      </trkpt>
      <trkpt lat="45.54422" lon="3.26059">
        <ele>378.04724</ele>
        <time>2012-09-23T10:19:16Z</time>
      </trkpt>
      <trkpt lat="45.5442" lon="3.2603">
        <ele>378.8341</ele>
        <time>2012-09-23T10:19:21Z</time>
      </trkpt>
      <trkpt lat="45.54409" lon="3.26009">
        <ele>379.19937</ele>
        <time>2012-09-23T10:19:25Z</time>
      </trkpt>
      <trkpt lat="45.54397" lon="3.25982">
        <ele>378.07275</ele>
        <time>2012-09-23T10:19:29Z</time>
      </trkpt>
      <trkpt lat="45.54386" lon="3.25961">
        <ele>377.98386</ele>
        <time>2012-09-23T10:19:33Z</time>
      </trkpt>
      <trkpt lat="45.54363" lon="3.25954">
        <ele>378.62277</ele>
        <time>2012-09-23T10:19:38Z</time>
      </trkpt>
      <trkpt lat="45.54341" lon="3.25952">
        <ele>378.60553</ele>
        <time>2012-09-23T10:19:42Z</time>
      </trkpt>
      <trkpt lat="45.54331" lon="3.25928">
        <ele>378.97617</ele>
        <time>2012-09-23T10:19:47Z</time>
      </trkpt>
      <trkpt lat="45.54326" lon="3.25899">
        <ele>379.02594</ele>
        <time>2012-09-23T10:19:51Z</time>
      </trkpt>
      <trkpt lat="45.5433" lon="3.25869">
        <ele>379.562</ele>
        <time>2012-09-23T10:19:55Z</time>
      </trkpt>
      <trkpt lat="45.54333" lon="3.25841">
        <ele>380.05637</ele>
        <time>2012-09-23T10:19:58Z</time>
      </trkpt>
      <trkpt lat="45.54337" lon="3.25814">
        <ele>380.24774</ele>
        <time>2012-09-23T10:20:01Z</time>
      </trkpt>
      <trkpt lat="45.54339" lon="3.25783">
        <ele>379.95874</ele>
        <time>2012-09-23T10:20:04Z</time>
      </trkpt>
      <trkpt lat="45.54338" lon="3.2575">
        <ele>379.84036</ele>
        <time>2012-09-23T10:20:09Z</time>
      </trkpt>
      <trkpt lat="45.54354" lon="3.2573">
        <ele>379.82944</ele>
        <time>2012-09-23T10:20:14Z</time>
      </trkpt>
      <trkpt lat="45.5437" lon="3.25717">
        <ele>382.55725</ele>
        <time>2012-09-23T10:20:18Z</time>
      </trkpt>
      <trkpt lat="45.54366" lon="3.25689">
        <ele>384.0782</ele>
        <time>2012-09-23T10:20:22Z</time>
      </trkpt>
      <trkpt lat="45.54359" lon="3.25658">
        <ele>383.6684</ele>
        <time>2012-09-23T10:20:26Z</time>
      </trkpt>
      <trkpt lat="45.54357" lon="3.25629">
        <ele>383.47818</ele>
        <time>2012-09-23T10:20:30Z</time>
      </trkpt>
      <trkpt lat="45.54371" lon="3.25613">
        <ele>385.63303</ele>
        <time>2012-09-23T10:20:37Z</time>
      </trkpt>
      <trkpt lat="45.54367" lon="3.25588">
        <ele>388.06296</ele>
        <time>2012-09-23T10:20:42Z</time>
      </trkpt>
      <trkpt lat="45.54359" lon="3.25564">
        <ele>387.85822</ele>
        <time>2012-09-23T10:20:47Z</time>
      </trkpt>
      <trkpt lat="45.54348" lon="3.25538">
        <ele>386.60376</ele>
        <time>2012-09-23T10:20:53Z</time>
      </trkpt>
      <trkpt lat="45.54342" lon="3.25512">
        <ele>385.4952</ele>
        <time>2012-09-23T10:21:02Z</time>
      </trkpt>
      <trkpt lat="45.54339" lon="3.25486">
        <ele>384.62332</ele>
        <time>2012-09-23T10:21:07Z</time>
      </trkpt>
      <trkpt lat="45.54338" lon="3.25453">
        <ele>384.65262</ele>
        <time>2012-09-23T10:21:12Z</time>
      </trkpt>
      <trkpt lat="45.54336" lon="3.25424">
        <ele>383.67203</ele>
        <time>2012-09-23T10:21:15Z</time>
      </trkpt>
      <trkpt lat="45.54337" lon="3.25397">
        <ele>383.29886</ele>
        <time>2012-09-23T10:21:20Z</time>
      </trkpt>
      <trkpt lat="45.54342" lon="3.25366">
        <ele>383.5725</ele>
        <time>2012-09-23T10:21:25Z</time>
      </trkpt>
      <trkpt lat="45.54358" lon="3.25354">
        <ele>383.79706</ele>
        <time>2012-09-23T10:21:29Z</time>
      </trkpt>
      <trkpt lat="45.54376" lon="3.25352">
        <ele>383.90552</ele>
        <time>2012-09-23T10:21:32Z</time>
      </trkpt>
      <trkpt lat="45.54395" lon="3.25356">
        <ele>383.78876</ele>
        <time>2012-09-23T10:21:36Z</time>
      </trkpt>
      <trkpt lat="45.54404" lon="3.25327">
        <ele>385.37732</ele>
        <time>2012-09-23T10:21:47Z</time>
      </trkpt>
      <trkpt lat="45.544" lon="3.25299">
        <ele>385.69156</ele>
        <time>2012-09-23T10:21:50Z</time>
      </trkpt>
      <trkpt lat="45.54399" lon="3.25269">
        <ele>387.0988</ele>
        <time>2012-09-23T10:21:54Z</time>
      </trkpt>
      <trkpt lat="45.54399" lon="3.25238">
        <ele>387.96124</ele>
        <time>2012-09-23T10:21:59Z</time>
      </trkpt>
      <trkpt lat="45.54398" lon="3.25209">
        <ele>388.65405</ele>
        <time>2012-09-23T10:22:03Z</time>
      </trkpt>
      <trkpt lat="45.54397" lon="3.25183">
        <ele>388.6705</ele>
        <time>2012-09-23T10:22:07Z</time>
      </trkpt>
      <trkpt lat="45.54392" lon="3.25157">
        <ele>389.177</ele>
        <time>2012-09-23T10:22:12Z</time>
      </trkpt>
      <trkpt lat="45.54372" lon="3.2515">
        <ele>389.47153</ele>
        <time>2012-09-23T10:22:16Z</time>
      </trkpt>
      <trkpt lat="45.54352" lon="3.25139">
        <ele>389.93152</ele>
        <time>2012-09-23T10:22:20Z</time>
      </trkpt>
      <trkpt lat="45.54334" lon="3.25128">
        <ele>389.80518</ele>
        <time>2012-09-23T10:22:24Z</time>
      </trkpt>
      <trkpt lat="45.54317" lon="3.25111">
        <ele>389.8371</ele>
        <time>2012-09-23T10:22:27Z</time>
      </trkpt>
      <trkpt lat="45.543" lon="3.25099">
        <ele>390.1271</ele>
        <time>2012-09-23T10:22:32Z</time>
      </trkpt>
      <trkpt lat="45.54281" lon="3.25087">
        <ele>389.67914</ele>
        <time>2012-09-23T10:22:35Z</time>
      </trkpt>
      <trkpt lat="45.54263" lon="3.25072">
        <ele>389.61713</ele>
        <time>2012-09-23T10:22:39Z</time>
      </trkpt>
      <trkpt lat="45.54266" lon="3.25042">
        <ele>389.41586</ele>
        <time>2012-09-23T10:22:43Z</time>
      </trkpt>
      <trkpt lat="45.5427" lon="3.25015">
        <ele>389.58734</ele>
        <time>2012-09-23T10:22:47Z</time>
      </trkpt>
      <trkpt lat="45.54275" lon="3.24989">
        <ele>390.16974</ele>
        <time>2012-09-23T10:22:51Z</time>
      </trkpt>
      <trkpt lat="45.54277" lon="3.24963">
        <ele>391.2208</ele>
        <time>2012-09-23T10:22:55Z</time>
      </trkpt>
      <trkpt lat="45.54284" lon="3.24936">
        <ele>392.07056</ele>
        <time>2012-09-23T10:22:59Z</time>
      </trkpt>
      <trkpt lat="45.54256" lon="3.24743">
        <ele>394.909</ele>
        <time>2012-09-23T10:23:33Z</time>
      </trkpt>
      <trkpt lat="45.54244" lon="3.24724">
        <ele>394.64786</ele>
        <time>2012-09-23T10:23:38Z</time>
      </trkpt>
      <trkpt lat="45.54235" lon="3.24695">
        <ele>394.95294</ele>
        <time>2012-09-23T10:23:42Z</time>
      </trkpt>
      <trkpt lat="45.54227" lon="3.24662">
        <ele>395.25845</ele>
        <time>2012-09-23T10:23:46Z</time>
      </trkpt>
      <trkpt lat="45.54225" lon="3.24634">
        <ele>395.2145</ele>
        <time>2012-09-23T10:23:50Z</time>
      </trkpt>
      <trkpt lat="45.54225" lon="3.24602">
        <ele>394.85138</ele>
        <time>2012-09-23T10:23:54Z</time>
      </trkpt>
      <trkpt lat="45.54219" lon="3.24575">
        <ele>393.49405</ele>
        <time>2012-09-23T10:23:57Z</time>
      </trkpt>
      <trkpt lat="45.54212" lon="3.24548">
        <ele>392.9613</ele>
        <time>2012-09-23T10:24:00Z</time>
      </trkpt>
      <trkpt lat="45.54206" lon="3.24519">
        <ele>393.8041</ele>
        <time>2012-09-23T10:24:08Z</time>
      </trkpt>
      <trkpt lat="45.542" lon="3.24491">
        <ele>393.2466</ele>
        <time>2012-09-23T10:24:13Z</time>
      </trkpt>
      <trkpt lat="45.54192" lon="3.24467">
        <ele>393.73145</ele>
        <time>2012-09-23T10:24:17Z</time>
      </trkpt>
      <trkpt lat="45.54191" lon="3.24438">
        <ele>392.52783</ele>
        <time>2012-09-23T10:24:21Z</time>
      </trkpt>
      <trkpt lat="45.54193" lon="3.24406">
        <ele>391.8294</ele>
        <time>2012-09-23T10:24:24Z</time>
      </trkpt>
      <trkpt lat="45.54193" lon="3.24372">
        <ele>392.1256</ele>
        <time>2012-09-23T10:24:28Z</time>
      </trkpt>
      <trkpt lat="45.54193" lon="3.24344">
        <ele>392.09003</ele>
        <time>2012-09-23T10:24:33Z</time>
      </trkpt>
      <trkpt lat="45.54188" lon="3.24314">
        <ele>393.0456</ele>
        <time>2012-09-23T10:24:36Z</time>
      </trkpt>
      <trkpt lat="45.54186" lon="3.24286">
        <ele>394.026</ele>
        <time>2012-09-23T10:24:40Z</time>
      </trkpt>
      <trkpt lat="45.54183" lon="3.24253">
        <ele>394.84796</ele>
        <time>2012-09-23T10:24:44Z</time>
      </trkpt>
      <trkpt lat="45.54176" lon="3.24226">
        <ele>395.09012</ele>
        <time>2012-09-23T10:24:48Z</time>
      </trkpt>
      <trkpt lat="45.54158" lon="3.24224">
        <ele>397.25497</ele>
        <time>2012-09-23T10:25:01Z</time>
      </trkpt>
      <trkpt lat="45.54139" lon="3.24237">
        <ele>397.38486</ele>
        <time>2012-09-23T10:25:06Z</time>
      </trkpt>
      <trkpt lat="45.54117" lon="3.24247">
        <ele>397.48257</ele>
        <time>2012-09-23T10:25:11Z</time>
      </trkpt>
      <trkpt lat="45.54095" lon="3.24258">
        <ele>397.29947</ele>
        <time>2012-09-23T10:25:15Z</time>
      </trkpt>
      <trkpt lat="45.54077" lon="3.24268">
        <ele>397.53778</ele>
        <time>2012-09-23T10:25:18Z</time>
      </trkpt>
      <trkpt lat="45.54059" lon="3.24278">
        <ele>398.25864</ele>
        <time>2012-09-23T10:25:21Z</time>
      </trkpt>
      <trkpt lat="45.54041" lon="3.24292">
        <ele>398.3143</ele>
        <time>2012-09-23T10:25:23Z</time>
      </trkpt>
      <trkpt lat="45.54024" lon="3.24304">
        <ele>398.4956</ele>
        <time>2012-09-23T10:25:27Z</time>
      </trkpt>
      <trkpt lat="45.54007" lon="3.24318">
        <ele>398.71896</ele>
        <time>2012-09-23T10:25:30Z</time>
      </trkpt>
      <trkpt lat="45.53987" lon="3.24328">
        <ele>399.13196</ele>
        <time>2012-09-23T10:25:33Z</time>
      </trkpt>
      <trkpt lat="45.53969" lon="3.24339">
        <ele>398.90308</ele>
        <time>2012-09-23T10:25:36Z</time>
      </trkpt>
      <trkpt lat="45.5395" lon="3.24351">
        <ele>398.81024</ele>
        <time>2012-09-23T10:25:40Z</time>
      </trkpt>
      <trkpt lat="45.5393" lon="3.24362">
        <ele>399.40353</ele>
        <time>2012-09-23T10:25:44Z</time>
      </trkpt>
      <trkpt lat="45.53908" lon="3.24375">
        <ele>399.17056</ele>
        <time>2012-09-23T10:25:48Z</time>
      </trkpt>
      <trkpt lat="45.53887" lon="3.24386">
        <ele>399.35504</ele>
        <time>2012-09-23T10:25:52Z</time>
      </trkpt>
      <trkpt lat="45.53868" lon="3.2437">
        <ele>400.92612</ele>
        <time>2012-09-23T10:25:58Z</time>
      </trkpt>
      <trkpt lat="45.53858" lon="3.24346">
        <ele>400.30115</ele>
        <time>2012-09-23T10:26:02Z</time>
      </trkpt>
      <trkpt lat="45.5385" lon="3.24323">
        <ele>399.4041</ele>
        <time>2012-09-23T10:26:05Z</time>
      </trkpt>
      <trkpt lat="45.53843" lon="3.24296">
        <ele>398.03442</ele>
        <time>2012-09-23T10:26:09Z</time>
      </trkpt>
      <trkpt lat="45.53835" lon="3.24269">
        <ele>397.2897</ele>
        <time>2012-09-23T10:26:13Z</time>
      </trkpt>
      <trkpt lat="45.53827" lon="3.24241">
        <ele>397.00797</ele>
        <time>2012-09-23T10:26:17Z</time>
      </trkpt>
      <trkpt lat="45.53819" lon="3.24216">
        <ele>396.39383</ele>
        <time>2012-09-23T10:26:21Z</time>
      </trkpt>
      <trkpt lat="45.53811" lon="3.2419">
        <ele>396.9331</ele>
        <time>2012-09-23T10:26:25Z</time>
      </trkpt>
      <trkpt lat="45.53801" lon="3.24164">
        <ele>397.5627</ele>
        <time>2012-09-23T10:26:29Z</time>
      </trkpt>
      <trkpt lat="45.53796" lon="3.24137">
        <ele>397.31512</ele>
        <time>2012-09-23T10:26:33Z</time>
      </trkpt>
      <trkpt lat="45.53787" lon="3.24112">
        <ele>400.9851</ele>
        <time>2012-09-23T10:28:07Z</time>
      </trkpt>
      <trkpt lat="45.5378" lon="3.24084">
        <ele>402.02847</ele>
        <time>2012-09-23T10:28:13Z</time>
      </trkpt>
      <trkpt lat="45.53773" lon="3.24057">
        <ele>401.8014</ele>
        <time>2012-09-23T10:28:18Z</time>
      </trkpt>
      <trkpt lat="45.53767" lon="3.2403">
        <ele>401.33737</ele>
        <time>2012-09-23T10:28:24Z</time>
      </trkpt>
      <trkpt lat="45.53757" lon="3.24008">
        <ele>401.44727</ele>
        <time>2012-09-23T10:28:28Z</time>
      </trkpt>
      <trkpt lat="45.53747" lon="3.23985">
        <ele>402.55432</ele>
        <time>2012-09-23T10:28:32Z</time>
      </trkpt>
      <trkpt lat="45.53739" lon="3.23959">
        <ele>403.5124</ele>
        <time>2012-09-23T10:28:36Z</time>
      </trkpt>
      <trkpt lat="45.53733" lon="3.23932">
        <ele>403.48663</ele>
        <time>2012-09-23T10:28:39Z</time>
      </trkpt>
      <trkpt lat="45.53725" lon="3.23907">
        <ele>403.3902</ele>
        <time>2012-09-23T10:28:44Z</time>
      </trkpt>
      <trkpt lat="45.53717" lon="3.23878">
        <ele>403.04526</ele>
        <time>2012-09-23T10:28:48Z</time>
      </trkpt>
      <trkpt lat="45.53709" lon="3.2385">
        <ele>402.41226</ele>
        <time>2012-09-23T10:28:52Z</time>
      </trkpt>
      <trkpt lat="45.53699" lon="3.23823">
        <ele>402.20886</ele>
        <time>2012-09-23T10:28:56Z</time>
      </trkpt>
      <trkpt lat="45.53689" lon="3.23796">
        <ele>403.28513</ele>
        <time>2012-09-23T10:29:01Z</time>
      </trkpt>
      <trkpt lat="45.53681" lon="3.23769">
        <ele>404.1296</ele>
        <time>2012-09-23T10:29:06Z</time>
      </trkpt>
      <trkpt lat="45.53674" lon="3.23743">
        <ele>405.01434</ele>
        <time>2012-09-23T10:29:12Z</time>
      </trkpt>
      <trkpt lat="45.53667" lon="3.23715">
        <ele>405.81415</ele>
        <time>2012-09-23T10:29:18Z</time>
      </trkpt>
      <trkpt lat="45.5366" lon="3.23691">
        <ele>407.74255</ele>
        <time>2012-09-23T10:29:23Z</time>
      </trkpt>
      <trkpt lat="45.5365" lon="3.23665">
        <ele>410.24527</ele>
        <time>2012-09-23T10:29:29Z</time>
      </trkpt>
      <trkpt lat="45.53642" lon="3.23639">
        <ele>413.23135</ele>
        <time>2012-09-23T10:29:36Z</time>
      </trkpt>
      <trkpt lat="45.53632" lon="3.23616">
        <ele>415.1081</ele>
        <time>2012-09-23T10:29:44Z</time>
      </trkpt>
      <trkpt lat="45.53621" lon="3.23591">
        <ele>417.70044</ele>
        <time>2012-09-23T10:29:52Z</time>
      </trkpt>
      <trkpt lat="45.53614" lon="3.23567">
        <ele>418.7211</ele>
        <time>2012-09-23T10:29:59Z</time>
      </trkpt>
      <trkpt lat="45.53609" lon="3.23542">
        <ele>420.21503</ele>
        <time>2012-09-23T10:30:06Z</time>
      </trkpt>
      <trkpt lat="45.53603" lon="3.23514">
        <ele>422.99234</ele>
        <time>2012-09-23T10:30:13Z</time>
      </trkpt>
      <trkpt lat="45.53596" lon="3.2349">
        <ele>426.19742</ele>
        <time>2012-09-23T10:30:23Z</time>
      </trkpt>
      <trkpt lat="45.53586" lon="3.23468">
        <ele>426.32593</ele>
        <time>2012-09-23T10:30:33Z</time>
      </trkpt>
      <trkpt lat="45.53578" lon="3.23445">
        <ele>424.84207</ele>
        <time>2012-09-23T10:30:43Z</time>
      </trkpt>
      <trkpt lat="45.53568" lon="3.23422">
        <ele>428.64044</ele>
        <time>2012-09-23T10:30:56Z</time>
      </trkpt>
      <trkpt lat="45.53561" lon="3.23398">
        <ele>434.62485</ele>
        <time>2012-09-23T10:31:09Z</time>
      </trkpt>
      <trkpt lat="45.53543" lon="3.23386">
        <ele>440.36038</ele>
        <time>2012-09-23T10:31:24Z</time>
      </trkpt>
      <trkpt lat="45.53525" lon="3.23379">
        <ele>441.41238</ele>
        <time>2012-09-23T10:31:37Z</time>
      </trkpt>
      <trkpt lat="45.53505" lon="3.23373">
        <ele>442.69382</ele>
        <time>2012-09-23T10:31:47Z</time>
      </trkpt>
      <trkpt lat="45.5349" lon="3.2336">
        <ele>442.9568</ele>
        <time>2012-09-23T10:31:54Z</time>
      </trkpt>
      <trkpt lat="45.53472" lon="3.23352">
        <ele>442.97702</ele>
        <time>2012-09-23T10:32:00Z</time>
      </trkpt>
      <trkpt lat="45.53452" lon="3.23349">
        <ele>446.10703</ele>
        <time>2012-09-23T10:32:11Z</time>
      </trkpt>
      <trkpt lat="45.53432" lon="3.2335">
        <ele>450.2784</ele>
        <time>2012-09-23T10:32:21Z</time>
      </trkpt>
      <trkpt lat="45.53413" lon="3.23348">
        <ele>451.63818</ele>
        <time>2012-09-23T10:32:31Z</time>
      </trkpt>
      <trkpt lat="45.53394" lon="3.23348">
        <ele>454.35147</ele>
        <time>2012-09-23T10:32:41Z</time>
      </trkpt>
      <trkpt lat="45.53386" lon="3.23324">
        <ele>453.5306</ele>
        <time>2012-09-23T10:32:54Z</time>
      </trkpt>
      <trkpt lat="45.53381" lon="3.23298">
        <ele>452.59152</ele>
        <time>2012-09-23T10:33:02Z</time>
      </trkpt>
      <trkpt lat="45.53381" lon="3.23272">
        <ele>453.7842</ele>
        <time>2012-09-23T10:33:08Z</time>
      </trkpt>
      <trkpt lat="45.53378" lon="3.23244">
        <ele>453.31415</ele>
        <time>2012-09-23T10:33:15Z</time>
      </trkpt>
      <trkpt lat="45.53368" lon="3.23219">
        <ele>457.01215</ele>
        <time>2012-09-23T10:33:22Z</time>
      </trkpt>
      <trkpt lat="45.5337" lon="3.23189">
        <ele>455.31836</ele>
        <time>2012-09-23T10:33:28Z</time>
      </trkpt>
      <trkpt lat="45.5337" lon="3.23161">
        <ele>454.8738</ele>
        <time>2012-09-23T10:33:33Z</time>
      </trkpt>
      <trkpt lat="45.53368" lon="3.23132">
        <ele>454.33755</ele>
        <time>2012-09-23T10:33:38Z</time>
      </trkpt>
      <trkpt lat="45.53365" lon="3.23101">
        <ele>454.83606</ele>
        <time>2012-09-23T10:33:44Z</time>
      </trkpt>
      <trkpt lat="45.53364" lon="3.23073">
        <ele>454.7738</ele>
        <time>2012-09-23T10:33:48Z</time>
      </trkpt>
      <trkpt lat="45.53363" lon="3.23041">
        <ele>453.79578</ele>
        <time>2012-09-23T10:33:53Z</time>
      </trkpt>
      <trkpt lat="45.5336" lon="3.23005">
        <ele>453.19257</ele>
        <time>2012-09-23T10:33:58Z</time>
      </trkpt>
      <trkpt lat="45.53358" lon="3.22975">
        <ele>451.9573</ele>
        <time>2012-09-23T10:34:02Z</time>
      </trkpt>
      <trkpt lat="45.53357" lon="3.22947">
        <ele>451.08133</ele>
        <time>2012-09-23T10:34:06Z</time>
      </trkpt>
      <trkpt lat="45.53354" lon="3.22914">
        <ele>450.67563</ele>
        <time>2012-09-23T10:34:10Z</time>
      </trkpt>
      <trkpt lat="45.53349" lon="3.22883">
        <ele>450.86835</ele>
        <time>2012-09-23T10:34:14Z</time>
      </trkpt>
      <trkpt lat="45.53344" lon="3.22855">
        <ele>450.66684</ele>
        <time>2012-09-23T10:34:18Z</time>
      </trkpt>
      <trkpt lat="45.53347" lon="3.22824">
        <ele>451.33316</ele>
        <time>2012-09-23T10:34:22Z</time>
      </trkpt>
      <trkpt lat="45.53344" lon="3.22795">
        <ele>451.50336</ele>
        <time>2012-09-23T10:34:26Z</time>
      </trkpt>
      <trkpt lat="45.53342" lon="3.22768">
        <ele>451.86462</ele>
        <time>2012-09-23T10:34:30Z</time>
      </trkpt>
      <trkpt lat="45.5334" lon="3.22743">
        <ele>452.4227</ele>
        <time>2012-09-23T10:34:34Z</time>
      </trkpt>
      <trkpt lat="45.53336" lon="3.22713">
        <ele>453.5227</ele>
        <time>2012-09-23T10:34:37Z</time>
      </trkpt>
      <trkpt lat="45.53333" lon="3.22686">
        <ele>454.68835</ele>
        <time>2012-09-23T10:34:42Z</time>
      </trkpt>
      <trkpt lat="45.5333" lon="3.22656">
        <ele>455.1724</ele>
        <time>2012-09-23T10:34:46Z</time>
      </trkpt>
      <trkpt lat="45.53327" lon="3.22622">
        <ele>454.63412</ele>
        <time>2012-09-23T10:34:50Z</time>
      </trkpt>
      <trkpt lat="45.53326" lon="3.22595">
        <ele>455.30484</ele>
        <time>2012-09-23T10:34:54Z</time>
      </trkpt>
      <trkpt lat="45.53325" lon="3.22565">
        <ele>455.68936</ele>
        <time>2012-09-23T10:34:59Z</time>
      </trkpt>
      <trkpt lat="45.53322" lon="3.22537">
        <ele>456.46674</ele>
        <time>2012-09-23T10:35:04Z</time>
      </trkpt>
      <trkpt lat="45.53318" lon="3.22508">
        <ele>457.77927</ele>
        <time>2012-09-23T10:35:10Z</time>
      </trkpt>
      <trkpt lat="45.53317" lon="3.22477">
        <ele>458.64392</ele>
        <time>2012-09-23T10:35:15Z</time>
      </trkpt>
      <trkpt lat="45.53316" lon="3.2245">
        <ele>459.38095</ele>
        <time>2012-09-23T10:35:20Z</time>
      </trkpt>
      <trkpt lat="45.53313" lon="3.22423">
        <ele>459.59814</ele>
        <time>2012-09-23T10:35:25Z</time>
      </trkpt>
      <trkpt lat="45.53311" lon="3.22397">
        <ele>460.1946</ele>
        <time>2012-09-23T10:35:30Z</time>
      </trkpt>
      <trkpt lat="45.53309" lon="3.2237">
        <ele>460.58243</ele>
        <time>2012-09-23T10:35:35Z</time>
      </trkpt>
      <trkpt lat="45.53308" lon="3.22343">
        <ele>461.17477</ele>
        <time>2012-09-23T10:35:40Z</time>
      </trkpt>
      <trkpt lat="45.53304" lon="3.22312">
        <ele>461.60947</ele>
        <time>2012-09-23T10:35:44Z</time>
      </trkpt>
      <trkpt lat="45.53302" lon="3.22282">
        <ele>462.1941</ele>
        <time>2012-09-23T10:35:50Z</time>
      </trkpt>
      <trkpt lat="45.533" lon="3.22252">
        <ele>462.36044</ele>
        <time>2012-09-23T10:35:55Z</time>
      </trkpt>
      <trkpt lat="45.53297" lon="3.22224">
        <ele>462.38626</ele>
        <time>2012-09-23T10:36:00Z</time>
      </trkpt>
      <trkpt lat="45.53295" lon="3.22197">
        <ele>461.62405</ele>
        <time>2012-09-23T10:36:04Z</time>
      </trkpt>
      <trkpt lat="45.53292" lon="3.22166">
        <ele>460.87878</ele>
        <time>2012-09-23T10:36:09Z</time>
      </trkpt>
      <trkpt lat="45.53289" lon="3.22135">
        <ele>460.72937</ele>
        <time>2012-09-23T10:36:14Z</time>
      </trkpt>
      <trkpt lat="45.53286" lon="3.22109">
        <ele>460.78848</ele>
        <time>2012-09-23T10:36:18Z</time>
      </trkpt>
      <trkpt lat="45.53285" lon="3.22078">
        <ele>460.76205</ele>
        <time>2012-09-23T10:36:23Z</time>
      </trkpt>
      <trkpt lat="45.53283" lon="3.22047">
        <ele>460.89288</ele>
        <time>2012-09-23T10:36:28Z</time>
      </trkpt>
      <trkpt lat="45.53279" lon="3.22018">
        <ele>461.08456</ele>
        <time>2012-09-23T10:36:33Z</time>
      </trkpt>
      <trkpt lat="45.53279" lon="3.21992">
        <ele>462.01288</ele>
        <time>2012-09-23T10:36:38Z</time>
      </trkpt>
      <trkpt lat="45.53277" lon="3.21964">
        <ele>462.49713</ele>
        <time>2012-09-23T10:36:43Z</time>
      </trkpt>
      <trkpt lat="45.53275" lon="3.21935">
        <ele>463.34897</ele>
        <time>2012-09-23T10:36:48Z</time>
      </trkpt>
      <trkpt lat="45.53273" lon="3.21903">
        <ele>462.34702</ele>
        <time>2012-09-23T10:36:53Z</time>
      </trkpt>
      <trkpt lat="45.53271" lon="3.21877">
        <ele>462.36633</ele>
        <time>2012-09-23T10:36:57Z</time>
      </trkpt>
      <trkpt lat="45.53269" lon="3.21846">
        <ele>462.2065</ele>
        <time>2012-09-23T10:37:02Z</time>
      </trkpt>
      <trkpt lat="45.53266" lon="3.21815">
        <ele>462.26974</ele>
        <time>2012-09-23T10:37:07Z</time>
      </trkpt>
      <trkpt lat="45.5325" lon="3.21799">
        <ele>461.89175</ele>
        <time>2012-09-23T10:37:12Z</time>
      </trkpt>
      <trkpt lat="45.53231" lon="3.21801">
        <ele>462.12857</ele>
        <time>2012-09-23T10:37:16Z</time>
      </trkpt>
      <trkpt lat="45.53213" lon="3.21801">
        <ele>461.87222</ele>
        <time>2012-09-23T10:37:20Z</time>
      </trkpt>
      <trkpt lat="45.53192" lon="3.21801">
        <ele>462.34256</ele>
        <time>2012-09-23T10:37:26Z</time>
      </trkpt>
      <trkpt lat="45.53173" lon="3.218">
        <ele>463.26614</ele>
        <time>2012-09-23T10:37:32Z</time>
      </trkpt>
      <trkpt lat="45.53154" lon="3.21801">
        <ele>463.90665</ele>
        <time>2012-09-23T10:37:37Z</time>
      </trkpt>
      <trkpt lat="45.53135" lon="3.21802">
        <ele>464.69037</ele>
        <time>2012-09-23T10:37:42Z</time>
      </trkpt>
      <trkpt lat="45.53115" lon="3.21803">
        <ele>464.97684</ele>
        <time>2012-09-23T10:37:47Z</time>
      </trkpt>
      <trkpt lat="45.53095" lon="3.21804">
        <ele>465.2089</ele>
        <time>2012-09-23T10:37:52Z</time>
      </trkpt>
      <trkpt lat="45.53076" lon="3.21804">
        <ele>465.64636</ele>
        <time>2012-09-23T10:37:57Z</time>
      </trkpt>
      <trkpt lat="45.53057" lon="3.21805">
        <ele>466.45157</ele>
        <time>2012-09-23T10:38:02Z</time>
      </trkpt>
      <trkpt lat="45.53039" lon="3.21806">
        <ele>467.4944</ele>
        <time>2012-09-23T10:38:07Z</time>
      </trkpt>
      <trkpt lat="45.53021" lon="3.21806">
        <ele>468.19577</ele>
        <time>2012-09-23T10:38:12Z</time>
      </trkpt>
      <trkpt lat="45.53002" lon="3.21808">
        <ele>468.36377</ele>
        <time>2012-09-23T10:38:17Z</time>
      </trkpt>
      <trkpt lat="45.52984" lon="3.21807">
        <ele>468.55655</ele>
        <time>2012-09-23T10:38:22Z</time>
      </trkpt>
      <trkpt lat="45.52966" lon="3.21809">
        <ele>469.24188</ele>
        <time>2012-09-23T10:38:27Z</time>
      </trkpt>
      <trkpt lat="45.52947" lon="3.2181">
        <ele>469.30243</ele>
        <time>2012-09-23T10:38:32Z</time>
      </trkpt>
      <trkpt lat="45.52928" lon="3.2181">
        <ele>469.651</ele>
        <time>2012-09-23T10:38:37Z</time>
      </trkpt>
      <trkpt lat="45.52909" lon="3.21811">
        <ele>469.90753</ele>
        <time>2012-09-23T10:38:42Z</time>
      </trkpt>
      <trkpt lat="45.52891" lon="3.21812">
        <ele>470.53815</ele>
        <time>2012-09-23T10:38:47Z</time>
      </trkpt>
      <trkpt lat="45.52872" lon="3.21813">
        <ele>471.05685</ele>
        <time>2012-09-23T10:38:52Z</time>
      </trkpt>
      <trkpt lat="45.52851" lon="3.21814">
        <ele>471.69928</ele>
        <time>2012-09-23T10:38:58Z</time>
      </trkpt>
      <trkpt lat="45.52832" lon="3.21815">
        <ele>472.73996</ele>
        <time>2012-09-23T10:39:04Z</time>
      </trkpt>
      <trkpt lat="45.52812" lon="3.21818">
        <ele>474.7979</ele>
        <time>2012-09-23T10:39:11Z</time>
      </trkpt>
      <trkpt lat="45.52793" lon="3.2183">
        <ele>476.22742</ele>
        <time>2012-09-23T10:39:18Z</time>
      </trkpt>
      <trkpt lat="45.52776" lon="3.2184">
        <ele>477.0308</ele>
        <time>2012-09-23T10:39:25Z</time>
      </trkpt>
      <trkpt lat="45.52759" lon="3.2185">
        <ele>478.38574</ele>
        <time>2012-09-23T10:39:32Z</time>
      </trkpt>
      <trkpt lat="45.52742" lon="3.2186">
        <ele>479.75537</ele>
        <time>2012-09-23T10:39:39Z</time>
      </trkpt>
      <trkpt lat="45.52724" lon="3.21872">
        <ele>482.19452</ele>
        <time>2012-09-23T10:39:48Z</time>
      </trkpt>
      <trkpt lat="45.52707" lon="3.21883">
        <ele>483.28702</ele>
        <time>2012-09-23T10:39:56Z</time>
      </trkpt>
      <trkpt lat="45.52688" lon="3.21893">
        <ele>485.12668</ele>
        <time>2012-09-23T10:40:05Z</time>
      </trkpt>
      <trkpt lat="45.52668" lon="3.21893">
        <ele>486.0887</ele>
        <time>2012-09-23T10:40:13Z</time>
      </trkpt>
      <trkpt lat="45.5265" lon="3.21887">
        <ele>488.39963</ele>
        <time>2012-09-23T10:40:21Z</time>
      </trkpt>
      <trkpt lat="45.52631" lon="3.21879">
        <ele>490.6903</ele>
        <time>2012-09-23T10:40:30Z</time>
      </trkpt>
      <trkpt lat="45.52611" lon="3.21873">
        <ele>493.61026</ele>
        <time>2012-09-23T10:40:39Z</time>
      </trkpt>
      <trkpt lat="45.52592" lon="3.21868">
        <ele>495.11078</ele>
        <time>2012-09-23T10:40:48Z</time>
      </trkpt>
      <trkpt lat="45.52573" lon="3.21865">
        <ele>497.45367</ele>
        <time>2012-09-23T10:40:57Z</time>
      </trkpt>
      <trkpt lat="45.52553" lon="3.21863">
        <ele>501.52414</ele>
        <time>2012-09-23T10:41:06Z</time>
      </trkpt>
      <trkpt lat="45.52533" lon="3.21859">
        <ele>504.09964</ele>
        <time>2012-09-23T10:41:16Z</time>
      </trkpt>
      <trkpt lat="45.52513" lon="3.21856">
        <ele>506.4474</ele>
        <time>2012-09-23T10:41:26Z</time>
      </trkpt>
      <trkpt lat="45.52494" lon="3.21853">
        <ele>505.96298</ele>
        <time>2012-09-23T10:41:35Z</time>
      </trkpt>
      <trkpt lat="45.52475" lon="3.21847">
        <ele>506.66876</ele>
        <time>2012-09-23T10:41:44Z</time>
      </trkpt>
      <trkpt lat="45.52458" lon="3.21839">
        <ele>507.09494</ele>
        <time>2012-09-23T10:41:52Z</time>
      </trkpt>
      <trkpt lat="45.52442" lon="3.21828">
        <ele>508.80682</ele>
        <time>2012-09-23T10:42:00Z</time>
      </trkpt>
      <trkpt lat="45.52425" lon="3.21811">
        <ele>511.0351</ele>
        <time>2012-09-23T10:42:08Z</time>
      </trkpt>
      <trkpt lat="45.52412" lon="3.21789">
        <ele>512.3574</ele>
        <time>2012-09-23T10:42:16Z</time>
      </trkpt>
      <trkpt lat="45.52402" lon="3.21766">
        <ele>514.00806</ele>
        <time>2012-09-23T10:42:24Z</time>
      </trkpt>
      <trkpt lat="45.52392" lon="3.21741">
        <ele>515.59406</ele>
        <time>2012-09-23T10:42:32Z</time>
      </trkpt>
      <trkpt lat="45.52383" lon="3.21718">
        <ele>517.12384</ele>
        <time>2012-09-23T10:42:39Z</time>
      </trkpt>
      <trkpt lat="45.52373" lon="3.21694">
        <ele>518.0385</ele>
        <time>2012-09-23T10:42:46Z</time>
      </trkpt>
      <trkpt lat="45.52363" lon="3.2167">
        <ele>519.1931</ele>
        <time>2012-09-23T10:42:53Z</time>
      </trkpt>
      <trkpt lat="45.52354" lon="3.21646">
        <ele>520.4587</ele>
        <time>2012-09-23T10:43:00Z</time>
      </trkpt>
      <trkpt lat="45.52344" lon="3.21622">
        <ele>521.8571</ele>
        <time>2012-09-23T10:43:06Z</time>
      </trkpt>
      <trkpt lat="45.52334" lon="3.21598">
        <ele>523.2316</ele>
        <time>2012-09-23T10:43:14Z</time>
      </trkpt>
      <trkpt lat="45.52325" lon="3.21573">
        <ele>524.2383</ele>
        <time>2012-09-23T10:43:21Z</time>
      </trkpt>
      <trkpt lat="45.52315" lon="3.21548">
        <ele>525.20245</ele>
        <time>2012-09-23T10:43:28Z</time>
      </trkpt>
      <trkpt lat="45.52305" lon="3.21524">
        <ele>525.9162</ele>
        <time>2012-09-23T10:43:35Z</time>
      </trkpt>
      <trkpt lat="45.52295" lon="3.215">
        <ele>527.5015</ele>
        <time>2012-09-23T10:43:42Z</time>
      </trkpt>
      <trkpt lat="45.52285" lon="3.21474">
        <ele>529.6606</ele>
        <time>2012-09-23T10:43:49Z</time>
      </trkpt>
      <trkpt lat="45.52275" lon="3.2145">
        <ele>531.41565</ele>
        <time>2012-09-23T10:43:56Z</time>
      </trkpt>
      <trkpt lat="45.52264" lon="3.21425">
        <ele>532.84015</ele>
        <time>2012-09-23T10:44:03Z</time>
      </trkpt>
      <trkpt lat="45.52253" lon="3.21401">
        <ele>533.98944</ele>
        <time>2012-09-23T10:44:10Z</time>
      </trkpt>
      <trkpt lat="45.52244" lon="3.21379">
        <ele>535.35034</ele>
        <time>2012-09-23T10:44:16Z</time>
      </trkpt>
      <trkpt lat="45.52233" lon="3.21355">
        <ele>536.6401</ele>
        <time>2012-09-23T10:44:23Z</time>
      </trkpt>
      <trkpt lat="45.52221" lon="3.21333">
        <ele>539.05316</ele>
        <time>2012-09-23T10:44:30Z</time>
      </trkpt>
      <trkpt lat="45.52205" lon="3.21314">
        <ele>541.2927</ele>
        <time>2012-09-23T10:44:37Z</time>
      </trkpt>
      <trkpt lat="45.52189" lon="3.21297">
        <ele>542.02094</ele>
        <time>2012-09-23T10:44:44Z</time>
      </trkpt>
      <trkpt lat="45.52174" lon="3.21281">
        <ele>542.58075</ele>
        <time>2012-09-23T10:44:50Z</time>
      </trkpt>
      <trkpt lat="45.52157" lon="3.21265">
        <ele>542.9945</ele>
        <time>2012-09-23T10:44:56Z</time>
      </trkpt>
      <trkpt lat="45.5214" lon="3.21251">
        <ele>544.3139</ele>
        <time>2012-09-23T10:45:02Z</time>
      </trkpt>
      <trkpt lat="45.5212" lon="3.21245">
        <ele>543.8804</ele>
        <time>2012-09-23T10:45:08Z</time>
      </trkpt>
      <trkpt lat="45.52101" lon="3.21246">
        <ele>544.09186</ele>
        <time>2012-09-23T10:45:14Z</time>
      </trkpt>
      <trkpt lat="45.5208" lon="3.21251">
        <ele>544.3569</ele>
        <time>2012-09-23T10:45:20Z</time>
      </trkpt>
      <trkpt lat="45.52062" lon="3.21256">
        <ele>545.17883</ele>
        <time>2012-09-23T10:45:25Z</time>
      </trkpt>
      <trkpt lat="45.52043" lon="3.21264">
        <ele>545.11115</ele>
        <time>2012-09-23T10:45:30Z</time>
      </trkpt>
      <trkpt lat="45.52024" lon="3.21272">
        <ele>544.90924</ele>
        <time>2012-09-23T10:45:35Z</time>
      </trkpt>
      <trkpt lat="45.52005" lon="3.21278">
        <ele>544.4233</ele>
        <time>2012-09-23T10:45:39Z</time>
      </trkpt>
      <trkpt lat="45.51987" lon="3.21284">
        <ele>545.26544</ele>
        <time>2012-09-23T10:45:45Z</time>
      </trkpt>
      <trkpt lat="45.51968" lon="3.21288">
        <ele>546.03125</ele>
        <time>2012-09-23T10:45:50Z</time>
      </trkpt>
      <trkpt lat="45.51949" lon="3.2129">
        <ele>547.0014</ele>
        <time>2012-09-23T10:45:55Z</time>
      </trkpt>
      <trkpt lat="45.51929" lon="3.2129">
        <ele>548.0161</ele>
        <time>2012-09-23T10:46:00Z</time>
      </trkpt>
      <trkpt lat="45.51909" lon="3.21289">
        <ele>548.1765</ele>
        <time>2012-09-23T10:46:05Z</time>
      </trkpt>
      <trkpt lat="45.51888" lon="3.21287">
        <ele>548.31104</ele>
        <time>2012-09-23T10:46:10Z</time>
      </trkpt>
      <trkpt lat="45.51867" lon="3.21289">
        <ele>548.2775</ele>
        <time>2012-09-23T10:46:15Z</time>
      </trkpt>
      <trkpt lat="45.51847" lon="3.21296">
        <ele>548.62744</ele>
        <time>2012-09-23T10:46:20Z</time>
      </trkpt>
      <trkpt lat="45.51827" lon="3.21306">
        <ele>548.8295</ele>
        <time>2012-09-23T10:46:26Z</time>
      </trkpt>
      <trkpt lat="45.51809" lon="3.21321">
        <ele>549.1541</ele>
        <time>2012-09-23T10:46:31Z</time>
      </trkpt>
      <trkpt lat="45.51794" lon="3.21336">
        <ele>549.1045</ele>
        <time>2012-09-23T10:46:35Z</time>
      </trkpt>
      <trkpt lat="45.51776" lon="3.21354">
        <ele>548.4607</ele>
        <time>2012-09-23T10:46:39Z</time>
      </trkpt>
      <trkpt lat="45.51758" lon="3.21366">
        <ele>548.0886</ele>
        <time>2012-09-23T10:46:43Z</time>
      </trkpt>
      <trkpt lat="45.51741" lon="3.21379">
        <ele>547.84357</ele>
        <time>2012-09-23T10:46:47Z</time>
      </trkpt>
      <trkpt lat="45.51725" lon="3.21395">
        <ele>547.74493</ele>
        <time>2012-09-23T10:46:51Z</time>
      </trkpt>
      <trkpt lat="45.51707" lon="3.21409">
        <ele>548.2001</ele>
        <time>2012-09-23T10:46:55Z</time>
      </trkpt>
      <trkpt lat="45.5169" lon="3.21426">
        <ele>549.38586</ele>
        <time>2012-09-23T10:46:59Z</time>
      </trkpt>
      <trkpt lat="45.51673" lon="3.2144">
        <ele>549.75244</ele>
        <time>2012-09-23T10:47:03Z</time>
      </trkpt>
      <trkpt lat="45.51656" lon="3.21455">
        <ele>550.36536</ele>
        <time>2012-09-23T10:47:07Z</time>
      </trkpt>
      <trkpt lat="45.51637" lon="3.21469">
        <ele>551.5022</ele>
        <time>2012-09-23T10:47:11Z</time>
      </trkpt>
      <trkpt lat="45.51621" lon="3.21483">
        <ele>553.3592</ele>
        <time>2012-09-23T10:47:15Z</time>
      </trkpt>
      <trkpt lat="45.51603" lon="3.215">
        <ele>555.0937</ele>
        <time>2012-09-23T10:47:20Z</time>
      </trkpt>
      <trkpt lat="45.51586" lon="3.21514">
        <ele>556.6537</ele>
        <time>2012-09-23T10:47:25Z</time>
      </trkpt>
      <trkpt lat="45.51569" lon="3.21531">
        <ele>556.8404</ele>
        <time>2012-09-23T10:47:31Z</time>
      </trkpt>
      <trkpt lat="45.51551" lon="3.21547">
        <ele>557.29736</ele>
        <time>2012-09-23T10:47:37Z</time>
      </trkpt>
      <trkpt lat="45.51536" lon="3.21564">
        <ele>557.1631</ele>
        <time>2012-09-23T10:47:42Z</time>
      </trkpt>
      <trkpt lat="45.51521" lon="3.21578">
        <ele>558.9354</ele>
        <time>2012-09-23T10:47:47Z</time>
      </trkpt>
      <trkpt lat="45.51505" lon="3.21594">
        <ele>561.41986</ele>
        <time>2012-09-23T10:47:53Z</time>
      </trkpt>
      <trkpt lat="45.51487" lon="3.21607">
        <ele>562.4792</ele>
        <time>2012-09-23T10:47:59Z</time>
      </trkpt>
      <trkpt lat="45.51472" lon="3.21624">
        <ele>563.14935</ele>
        <time>2012-09-23T10:48:05Z</time>
      </trkpt>
      <trkpt lat="45.51454" lon="3.21641">
        <ele>563.38715</ele>
        <time>2012-09-23T10:48:11Z</time>
      </trkpt>
      <trkpt lat="45.51439" lon="3.21656">
        <ele>563.21454</ele>
        <time>2012-09-23T10:48:16Z</time>
      </trkpt>
      <trkpt lat="45.51422" lon="3.21672">
        <ele>563.3116</ele>
        <time>2012-09-23T10:48:21Z</time>
      </trkpt>
      <trkpt lat="45.51405" lon="3.21687">
        <ele>563.9872</ele>
        <time>2012-09-23T10:48:26Z</time>
      </trkpt>
      <trkpt lat="45.51384" lon="3.217">
        <ele>564.00745</ele>
        <time>2012-09-23T10:48:31Z</time>
      </trkpt>
      <trkpt lat="45.51368" lon="3.21712">
        <ele>564.16394</ele>
        <time>2012-09-23T10:48:35Z</time>
      </trkpt>
      <trkpt lat="45.51351" lon="3.21725">
        <ele>565.62366</ele>
        <time>2012-09-23T10:48:39Z</time>
      </trkpt>
      <trkpt lat="45.51333" lon="3.2174">
        <ele>567.76324</ele>
        <time>2012-09-23T10:48:43Z</time>
      </trkpt>
      <trkpt lat="45.51316" lon="3.21753">
        <ele>568.8828</ele>
        <time>2012-09-23T10:48:47Z</time>
      </trkpt>
      <trkpt lat="45.51298" lon="3.2177">
        <ele>570.06714</ele>
        <time>2012-09-23T10:48:51Z</time>
      </trkpt>
      <trkpt lat="45.51281" lon="3.21785">
        <ele>570.527</ele>
        <time>2012-09-23T10:48:55Z</time>
      </trkpt>
      <trkpt lat="45.51262" lon="3.21798">
        <ele>570.1858</ele>
        <time>2012-09-23T10:48:59Z</time>
      </trkpt>
      <trkpt lat="45.51241" lon="3.21806">
        <ele>570.54895</ele>
        <time>2012-09-23T10:49:03Z</time>
      </trkpt>
      <trkpt lat="45.51222" lon="3.21812">
        <ele>570.3212</ele>
        <time>2012-09-23T10:49:07Z</time>
      </trkpt>
      <trkpt lat="45.51201" lon="3.21813">
        <ele>569.89246</ele>
        <time>2012-09-23T10:49:12Z</time>
      </trkpt>
      <trkpt lat="45.51182" lon="3.21812">
        <ele>570.70416</ele>
        <time>2012-09-23T10:49:16Z</time>
      </trkpt>
      <trkpt lat="45.51161" lon="3.21818">
        <ele>571.97504</ele>
        <time>2012-09-23T10:49:20Z</time>
      </trkpt>
      <trkpt lat="45.5114" lon="3.21818">
        <ele>571.7877</ele>
        <time>2012-09-23T10:49:24Z</time>
      </trkpt>
      <trkpt lat="45.51121" lon="3.21823">
        <ele>571.6386</ele>
        <time>2012-09-23T10:49:28Z</time>
      </trkpt>
      <trkpt lat="45.51102" lon="3.21832">
        <ele>571.1297</ele>
        <time>2012-09-23T10:49:32Z</time>
      </trkpt>
      <trkpt lat="45.51084" lon="3.21845">
        <ele>571.10266</ele>
        <time>2012-09-23T10:49:36Z</time>
      </trkpt>
      <trkpt lat="45.51065" lon="3.21859">
        <ele>570.19995</ele>
        <time>2012-09-23T10:49:40Z</time>
      </trkpt>
      <trkpt lat="45.51047" lon="3.21873">
        <ele>569.21</ele>
        <time>2012-09-23T10:49:44Z</time>
      </trkpt>
      <trkpt lat="45.51026" lon="3.21882">
        <ele>569.50305</ele>
        <time>2012-09-23T10:49:48Z</time>
      </trkpt>
      <trkpt lat="45.51008" lon="3.2189">
        <ele>570.05554</ele>
        <time>2012-09-23T10:49:52Z</time>
      </trkpt>
      <trkpt lat="45.5099" lon="3.21899">
        <ele>570.00836</ele>
        <time>2012-09-23T10:49:55Z</time>
      </trkpt>
      <trkpt lat="45.50968" lon="3.21906">
        <ele>569.8236</ele>
        <time>2012-09-23T10:49:59Z</time>
      </trkpt>
      <trkpt lat="45.50948" lon="3.21913">
        <ele>570.3972</ele>
        <time>2012-09-23T10:50:03Z</time>
      </trkpt>
      <trkpt lat="45.5093" lon="3.21921">
        <ele>570.6041</ele>
        <time>2012-09-23T10:50:06Z</time>
      </trkpt>
      <trkpt lat="45.5091" lon="3.21931">
        <ele>570.32935</ele>
        <time>2012-09-23T10:50:11Z</time>
      </trkpt>
      <trkpt lat="45.50892" lon="3.21941">
        <ele>570.308</ele>
        <time>2012-09-23T10:50:15Z</time>
      </trkpt>
      <trkpt lat="45.50875" lon="3.21948">
        <ele>571.0665</ele>
        <time>2012-09-23T10:50:19Z</time>
      </trkpt>
      <trkpt lat="45.50855" lon="3.21954">
        <ele>570.0518</ele>
        <time>2012-09-23T10:50:22Z</time>
      </trkpt>
      <trkpt lat="45.50836" lon="3.21956">
        <ele>569.176</ele>
        <time>2012-09-23T10:50:27Z</time>
      </trkpt>
      <trkpt lat="45.50817" lon="3.21964">
        <ele>568.7009</ele>
        <time>2012-09-23T10:50:31Z</time>
      </trkpt>
      <trkpt lat="45.50801" lon="3.21986">
        <ele>570.25916</ele>
        <time>2012-09-23T10:50:35Z</time>
      </trkpt>
      <trkpt lat="45.50793" lon="3.22011">
        <ele>570.82294</ele>
        <time>2012-09-23T10:50:39Z</time>
      </trkpt>
      <trkpt lat="45.50784" lon="3.22041">
        <ele>570.43176</ele>
        <time>2012-09-23T10:50:43Z</time>
      </trkpt>
      <trkpt lat="45.50778" lon="3.22072">
        <ele>570.6709</ele>
        <time>2012-09-23T10:50:47Z</time>
      </trkpt>
    </trkseg>
  </trk>
</gpx>